<?xml version="1.0" encoding="UTF-8" standalone="no" ?>
<gpx xmlns="http://www.topografix.com/GPX/1/1" xmlns:xsi="http://www.w3.org/2001/XMLSchema-instance" xsi:schemaLocation="http://www.topografix.com/GPX/1/1 http://www.topografix.com/GPX/1/1/gpx.xsd" version="1.1" creator="VisuGPX - https://www.visugpx.com">
  <metadata>
    <name>140625ROBMinots</name>
    <desc><![CDATA[Derniere sortie avant les vacances]]></desc>
  </metadata>
  <trk>
    <name><![CDATA[140625ROBMinots]]></name>
    <trkseg>
      <trkpt lat="43.4158" lon="6.07045">
        <ele>218.87347412109</ele>
        <time>2014-06-25T12:08:26Z</time>
      </trkpt>
      <trkpt lat="43.41581" lon="6.07051">
        <ele>218.91467285156</ele>
        <time>2014-06-25T12:08:30Z</time>
      </trkpt>
      <trkpt lat="43.41581" lon="6.07054">
        <ele>218.92840576172</ele>
        <time>2014-06-25T12:08:31Z</time>
      </trkpt>
      <trkpt lat="43.41584" lon="6.07071">
        <ele>218.45364379883</ele>
        <time>2014-06-25T12:08:36Z</time>
      </trkpt>
      <trkpt lat="43.41586" lon="6.07103">
        <ele>218</ele>
        <time>2014-06-25T12:08:45Z</time>
      </trkpt>
      <trkpt lat="43.41585" lon="6.0711">
        <ele>218</ele>
        <time>2014-06-25T12:08:47Z</time>
      </trkpt>
      <trkpt lat="43.41581" lon="6.07113">
        <ele>217.92840576172</ele>
        <time>2014-06-25T12:08:49Z</time>
      </trkpt>
      <trkpt lat="43.41575" lon="6.07113">
        <ele>217.70867919922</ele>
        <time>2014-06-25T12:08:54Z</time>
      </trkpt>
      <trkpt lat="43.41574" lon="6.07113">
        <ele>217.66748046875</ele>
        <time>2014-06-25T12:08:59Z</time>
      </trkpt>
      <trkpt lat="43.41574" lon="6.07113">
        <ele>217.65374755859</ele>
        <time>2014-06-25T12:09:09Z</time>
      </trkpt>
      <trkpt lat="43.41573" lon="6.07114">
        <ele>217.62628173828</ele>
        <time>2014-06-25T12:09:17Z</time>
      </trkpt>
      <trkpt lat="43.4157" lon="6.07114">
        <ele>217.51641845703</ele>
        <time>2014-06-25T12:09:20Z</time>
      </trkpt>
      <trkpt lat="43.41567" lon="6.07116">
        <ele>217.40655517578</ele>
        <time>2014-06-25T12:09:22Z</time>
      </trkpt>
      <trkpt lat="43.41552" lon="6.07119">
        <ele>217</ele>
        <time>2014-06-25T12:09:28Z</time>
      </trkpt>
      <trkpt lat="43.41547" lon="6.07114">
        <ele>217</ele>
        <time>2014-06-25T12:09:30Z</time>
      </trkpt>
      <trkpt lat="43.41546" lon="6.07109">
        <ele>217</ele>
        <time>2014-06-25T12:09:31Z</time>
      </trkpt>
      <trkpt lat="43.41547" lon="6.07093">
        <ele>217</ele>
        <time>2014-06-25T12:09:35Z</time>
      </trkpt>
      <trkpt lat="43.41545" lon="6.07079">
        <ele>217.16696166992</ele>
        <time>2014-06-25T12:09:40Z</time>
      </trkpt>
      <trkpt lat="43.41537" lon="6.07077">
        <ele>217.22189331055</ele>
        <time>2014-06-25T12:09:44Z</time>
      </trkpt>
      <trkpt lat="43.4152" lon="6.07081">
        <ele>216.77108764648</ele>
        <time>2014-06-25T12:09:49Z</time>
      </trkpt>
      <trkpt lat="43.41512" lon="6.07084">
        <ele>216.42901611328</ele>
        <time>2014-06-25T12:09:51Z</time>
      </trkpt>
      <trkpt lat="43.41509" lon="6.07085">
        <ele>216.31915283203</ele>
        <time>2014-06-25T12:09:52Z</time>
      </trkpt>
      <trkpt lat="43.41505" lon="6.07086">
        <ele>216.19555664062</ele>
        <time>2014-06-25T12:09:53Z</time>
      </trkpt>
      <trkpt lat="43.41502" lon="6.07086">
        <ele>216.08569335938</ele>
        <time>2014-06-25T12:09:54Z</time>
      </trkpt>
      <trkpt lat="43.41499" lon="6.07086">
        <ele>215.97583007812</ele>
        <time>2014-06-25T12:09:55Z</time>
      </trkpt>
      <trkpt lat="43.41492" lon="6.07083">
        <ele>215.71879577637</ele>
        <time>2014-06-25T12:09:57Z</time>
      </trkpt>
      <trkpt lat="43.41488" lon="6.07081">
        <ele>215.66386413574</ele>
        <time>2014-06-25T12:09:58Z</time>
      </trkpt>
      <trkpt lat="43.41484" lon="6.07079">
        <ele>215.59692382812</ele>
        <time>2014-06-25T12:09:59Z</time>
      </trkpt>
      <trkpt lat="43.41475" lon="6.07075">
        <ele>215.38748168945</ele>
        <time>2014-06-25T12:10:02Z</time>
      </trkpt>
      <trkpt lat="43.41469" lon="6.07065">
        <ele>215.67337036133</ele>
        <time>2014-06-25T12:10:09Z</time>
      </trkpt>
      <trkpt lat="43.41471" lon="6.07057">
        <ele>215.93600463867</ele>
        <time>2014-06-25T12:10:12Z</time>
      </trkpt>
      <trkpt lat="43.41481" lon="6.07033">
        <ele>216.33038330078</ele>
        <time>2014-06-25T12:10:19Z</time>
      </trkpt>
      <trkpt lat="43.41492" lon="6.07003">
        <ele>216.96955871582</ele>
        <time>2014-06-25T12:10:25Z</time>
      </trkpt>
      <trkpt lat="43.41493" lon="6.06998">
        <ele>217</ele>
        <time>2014-06-25T12:10:26Z</time>
      </trkpt>
      <trkpt lat="43.41491" lon="6.06972">
        <ele>217.00297546387</ele>
        <time>2014-06-25T12:10:31Z</time>
      </trkpt>
      <trkpt lat="43.41488" lon="6.06966">
        <ele>217.09970092773</ele>
        <time>2014-06-25T12:10:33Z</time>
      </trkpt>
      <trkpt lat="43.41484" lon="6.0696">
        <ele>217.2561340332</ele>
        <time>2014-06-25T12:10:36Z</time>
      </trkpt>
      <trkpt lat="43.4148" lon="6.06954">
        <ele>217.46012878418</ele>
        <time>2014-06-25T12:10:41Z</time>
      </trkpt>
      <trkpt lat="43.41476" lon="6.06943">
        <ele>217.84814453125</ele>
        <time>2014-06-25T12:10:47Z</time>
      </trkpt>
      <trkpt lat="43.4147" lon="6.06932">
        <ele>218</ele>
        <time>2014-06-25T12:10:52Z</time>
      </trkpt>
      <trkpt lat="43.41469" lon="6.06929">
        <ele>218</ele>
        <time>2014-06-25T12:10:55Z</time>
      </trkpt>
      <trkpt lat="43.4147" lon="6.06927">
        <ele>218</ele>
        <time>2014-06-25T12:10:57Z</time>
      </trkpt>
      <trkpt lat="43.4147" lon="6.06925">
        <ele>218</ele>
        <time>2014-06-25T12:10:58Z</time>
      </trkpt>
      <trkpt lat="43.41474" lon="6.06913">
        <ele>217.94079589844</ele>
        <time>2014-06-25T12:11:02Z</time>
      </trkpt>
      <trkpt lat="43.41475" lon="6.06907">
        <ele>217.92828369141</ele>
        <time>2014-06-25T12:11:04Z</time>
      </trkpt>
      <trkpt lat="43.41475" lon="6.06899">
        <ele>217.96313476562</ele>
        <time>2014-06-25T12:11:09Z</time>
      </trkpt>
      <trkpt lat="43.41475" lon="6.06883">
        <ele>218.18830871582</ele>
        <time>2014-06-25T12:11:19Z</time>
      </trkpt>
      <trkpt lat="43.41475" lon="6.06879">
        <ele>218.32437133789</ele>
        <time>2014-06-25T12:11:20Z</time>
      </trkpt>
      <trkpt lat="43.41475" lon="6.06867">
        <ele>218.72158813477</ele>
        <time>2014-06-25T12:11:23Z</time>
      </trkpt>
      <trkpt lat="43.41473" lon="6.06863">
        <ele>218.89375305176</ele>
        <time>2014-06-25T12:11:24Z</time>
      </trkpt>
      <trkpt lat="43.41472" lon="6.06859">
        <ele>219.06338500977</ele>
        <time>2014-06-25T12:11:25Z</time>
      </trkpt>
      <trkpt lat="43.4147" lon="6.06856">
        <ele>219.18183898926</ele>
        <time>2014-06-25T12:11:26Z</time>
      </trkpt>
      <trkpt lat="43.41464" lon="6.06852">
        <ele>219.33633422852</ele>
        <time>2014-06-25T12:11:28Z</time>
      </trkpt>
      <trkpt lat="43.41455" lon="6.0685">
        <ele>219.39984130859</ele>
        <time>2014-06-25T12:11:34Z</time>
      </trkpt>
      <trkpt lat="43.41445" lon="6.06844">
        <ele>219.60069274902</ele>
        <time>2014-06-25T12:11:39Z</time>
      </trkpt>
      <trkpt lat="43.41436" lon="6.06849">
        <ele>219.29513549805</ele>
        <time>2014-06-25T12:11:42Z</time>
      </trkpt>
      <trkpt lat="43.41427" lon="6.06852">
        <ele>219.11877441406</ele>
        <time>2014-06-25T12:11:44Z</time>
      </trkpt>
      <trkpt lat="43.41423" lon="6.06853">
        <ele>219.06648254394</ele>
        <time>2014-06-25T12:11:45Z</time>
      </trkpt>
      <trkpt lat="43.41415" lon="6.06851">
        <ele>218.94085693359</ele>
        <time>2014-06-25T12:11:47Z</time>
      </trkpt>
      <trkpt lat="43.41407" lon="6.06845">
        <ele>218.66619873047</ele>
        <time>2014-06-25T12:11:49Z</time>
      </trkpt>
      <trkpt lat="43.41403" lon="6.06841">
        <ele>218.50140380859</ele>
        <time>2014-06-25T12:11:51Z</time>
      </trkpt>
      <trkpt lat="43.41391" lon="6.06836">
        <ele>218.07568359375</ele>
        <time>2014-06-25T12:11:55Z</time>
      </trkpt>
      <trkpt lat="43.41375" lon="6.06827">
        <ele>218.11680603027</ele>
        <time>2014-06-25T12:12:00Z</time>
      </trkpt>
      <trkpt lat="43.4135" lon="6.06814">
        <ele>217.60626220703</ele>
        <time>2014-06-25T12:12:07Z</time>
      </trkpt>
      <trkpt lat="43.41324" lon="6.068">
        <ele>217.20401000977</ele>
        <time>2014-06-25T12:12:13Z</time>
      </trkpt>
      <trkpt lat="43.41304" lon="6.06785">
        <ele>217.70133972168</ele>
        <time>2014-06-25T12:12:17Z</time>
      </trkpt>
      <trkpt lat="43.41296" lon="6.06775">
        <ele>217.64245605469</ele>
        <time>2014-06-25T12:12:19Z</time>
      </trkpt>
      <trkpt lat="43.41291" lon="6.0677">
        <ele>217.49139404297</ele>
        <time>2014-06-25T12:12:20Z</time>
      </trkpt>
      <trkpt lat="43.41281" lon="6.0675">
        <ele>217.12060546875</ele>
        <time>2014-06-25T12:12:23Z</time>
      </trkpt>
      <trkpt lat="43.41277" lon="6.06735">
        <ele>216.44123840332</ele>
        <time>2014-06-25T12:12:25Z</time>
      </trkpt>
      <trkpt lat="43.41276" lon="6.06728">
        <ele>216.12710571289</ele>
        <time>2014-06-25T12:12:26Z</time>
      </trkpt>
      <trkpt lat="43.41275" lon="6.06721">
        <ele>216.00119018555</ele>
        <time>2014-06-25T12:12:27Z</time>
      </trkpt>
      <trkpt lat="43.41274" lon="6.06714">
        <ele>216.43721008301</ele>
        <time>2014-06-25T12:12:28Z</time>
      </trkpt>
      <trkpt lat="43.41273" lon="6.06708">
        <ele>216.84576416016</ele>
        <time>2014-06-25T12:12:29Z</time>
      </trkpt>
      <trkpt lat="43.4127" lon="6.06693">
        <ele>217.72235107422</ele>
        <time>2014-06-25T12:12:32Z</time>
      </trkpt>
      <trkpt lat="43.41265" lon="6.06686">
        <ele>217.54382324219</ele>
        <time>2014-06-25T12:12:34Z</time>
      </trkpt>
      <trkpt lat="43.41261" lon="6.06685">
        <ele>217.37902832031</ele>
        <time>2014-06-25T12:12:35Z</time>
      </trkpt>
      <trkpt lat="43.4125" lon="6.0669">
        <ele>217.00823974609</ele>
        <time>2014-06-25T12:12:38Z</time>
      </trkpt>
      <trkpt lat="43.41245" lon="6.06702">
        <ele>216.26211547852</ele>
        <time>2014-06-25T12:12:44Z</time>
      </trkpt>
      <trkpt lat="43.41245" lon="6.06704">
        <ele>216.09732055664</ele>
        <time>2014-06-25T12:12:45Z</time>
      </trkpt>
      <trkpt lat="43.41245" lon="6.06707">
        <ele>215.91879272461</ele>
        <time>2014-06-25T12:12:46Z</time>
      </trkpt>
      <trkpt lat="43.41245" lon="6.06709">
        <ele>215.80206298828</ele>
        <time>2014-06-25T12:12:47Z</time>
      </trkpt>
      <trkpt lat="43.41246" lon="6.0671">
        <ele>215.74713134766</ele>
        <time>2014-06-25T12:12:48Z</time>
      </trkpt>
      <trkpt lat="43.41246" lon="6.06712">
        <ele>215.5926361084</ele>
        <time>2014-06-25T12:12:52Z</time>
      </trkpt>
      <trkpt lat="43.4124" lon="6.06711">
        <ele>215.4518737793</ele>
        <time>2014-06-25T12:12:55Z</time>
      </trkpt>
      <trkpt lat="43.41236" lon="6.0671">
        <ele>215.3729095459</ele>
        <time>2014-06-25T12:12:56Z</time>
      </trkpt>
      <trkpt lat="43.41228" lon="6.06711">
        <ele>215.01928710938</ele>
        <time>2014-06-25T12:12:58Z</time>
      </trkpt>
      <trkpt lat="43.41212" lon="6.06715">
        <ele>214.18157958984</ele>
        <time>2014-06-25T12:13:02Z</time>
      </trkpt>
      <trkpt lat="43.41199" lon="6.06716">
        <ele>213.63226318359</ele>
        <time>2014-06-25T12:13:05Z</time>
      </trkpt>
      <trkpt lat="43.41193" lon="6.06715">
        <ele>213.44686889648</ele>
        <time>2014-06-25T12:13:06Z</time>
      </trkpt>
      <trkpt lat="43.4116" lon="6.06713">
        <ele>212.42033386231</ele>
        <time>2014-06-25T12:13:12Z</time>
      </trkpt>
      <trkpt lat="43.41154" lon="6.06714">
        <ele>212.12507629394</ele>
        <time>2014-06-25T12:13:13Z</time>
      </trkpt>
      <trkpt lat="43.41144" lon="6.06716">
        <ele>211.6203918457</ele>
        <time>2014-06-25T12:13:15Z</time>
      </trkpt>
      <trkpt lat="43.4113" lon="6.0672">
        <ele>210.81015014648</ele>
        <time>2014-06-25T12:13:18Z</time>
      </trkpt>
      <trkpt lat="43.41126" lon="6.06723">
        <ele>210.55154418945</ele>
        <time>2014-06-25T12:13:19Z</time>
      </trkpt>
      <trkpt lat="43.41113" lon="6.06732">
        <ele>210.41076660156</ele>
        <time>2014-06-25T12:13:22Z</time>
      </trkpt>
      <trkpt lat="43.41108" lon="6.06736">
        <ele>210.43458557129</ele>
        <time>2014-06-25T12:13:23Z</time>
      </trkpt>
      <trkpt lat="43.411" lon="6.06741">
        <ele>210.39158630371</ele>
        <time>2014-06-25T12:13:25Z</time>
      </trkpt>
      <trkpt lat="43.41088" lon="6.06748">
        <ele>210.17282104492</ele>
        <time>2014-06-25T12:13:28Z</time>
      </trkpt>
      <trkpt lat="43.41083" lon="6.06764">
        <ele>209.98645019531</ele>
        <time>2014-06-25T12:13:31Z</time>
      </trkpt>
      <trkpt lat="43.41082" lon="6.06783">
        <ele>209.90405273438</ele>
        <time>2014-06-25T12:13:34Z</time>
      </trkpt>
      <trkpt lat="43.41079" lon="6.06803">
        <ele>209.68432617188</ele>
        <time>2014-06-25T12:13:37Z</time>
      </trkpt>
      <trkpt lat="43.41071" lon="6.06832">
        <ele>209.080078125</ele>
        <time>2014-06-25T12:13:42Z</time>
      </trkpt>
      <trkpt lat="43.41068" lon="6.06861">
        <ele>207.93060302734</ele>
        <time>2014-06-25T12:13:48Z</time>
      </trkpt>
      <trkpt lat="43.41067" lon="6.06865">
        <ele>207.80541992188</ele>
        <time>2014-06-25T12:13:50Z</time>
      </trkpt>
      <trkpt lat="43.41065" lon="6.06868">
        <ele>207.66809082031</ele>
        <time>2014-06-25T12:13:52Z</time>
      </trkpt>
      <trkpt lat="43.41053" lon="6.06873">
        <ele>207</ele>
        <time>2014-06-25T12:13:56Z</time>
      </trkpt>
      <trkpt lat="43.41041" lon="6.06878">
        <ele>207</ele>
        <time>2014-06-25T12:13:59Z</time>
      </trkpt>
      <trkpt lat="43.41032" lon="6.06882">
        <ele>207</ele>
        <time>2014-06-25T12:14:01Z</time>
      </trkpt>
      <trkpt lat="43.41018" lon="6.06892">
        <ele>207</ele>
        <time>2014-06-25T12:14:06Z</time>
      </trkpt>
      <trkpt lat="43.41009" lon="6.06908">
        <ele>207</ele>
        <time>2014-06-25T12:14:10Z</time>
      </trkpt>
      <trkpt lat="43.40988" lon="6.06922">
        <ele>207</ele>
        <time>2014-06-25T12:14:15Z</time>
      </trkpt>
      <trkpt lat="43.40983" lon="6.06924">
        <ele>207</ele>
        <time>2014-06-25T12:14:16Z</time>
      </trkpt>
      <trkpt lat="43.40946" lon="6.06938">
        <ele>207</ele>
        <time>2014-06-25T12:14:23Z</time>
      </trkpt>
      <trkpt lat="43.40912" lon="6.0695">
        <ele>208.15911865234</ele>
        <time>2014-06-25T12:14:30Z</time>
      </trkpt>
      <trkpt lat="43.40905" lon="6.06963">
        <ele>208.43377685547</ele>
        <time>2014-06-25T12:14:33Z</time>
      </trkpt>
      <trkpt lat="43.40903" lon="6.06975">
        <ele>208.48870849609</ele>
        <time>2014-06-25T12:14:35Z</time>
      </trkpt>
      <trkpt lat="43.40902" lon="6.06981">
        <ele>208.51617431641</ele>
        <time>2014-06-25T12:14:36Z</time>
      </trkpt>
      <trkpt lat="43.40897" lon="6.06991">
        <ele>208.70843505859</ele>
        <time>2014-06-25T12:14:38Z</time>
      </trkpt>
      <trkpt lat="43.40884" lon="6.06996">
        <ele>209.16162109375</ele>
        <time>2014-06-25T12:14:41Z</time>
      </trkpt>
      <trkpt lat="43.4088" lon="6.06997">
        <ele>209.32641601562</ele>
        <time>2014-06-25T12:14:42Z</time>
      </trkpt>
      <trkpt lat="43.40866" lon="6.07001">
        <ele>209.82080078125</ele>
        <time>2014-06-25T12:14:45Z</time>
      </trkpt>
      <trkpt lat="43.40862" lon="6.07003">
        <ele>209.97186279297</ele>
        <time>2014-06-25T12:14:46Z</time>
      </trkpt>
      <trkpt lat="43.40848" lon="6.07007">
        <ele>210.47998046875</ele>
        <time>2014-06-25T12:14:51Z</time>
      </trkpt>
      <trkpt lat="43.40847" lon="6.07007">
        <ele>210.50744628906</ele>
        <time>2014-06-25T12:14:52Z</time>
      </trkpt>
      <trkpt lat="43.40846" lon="6.07008">
        <ele>210.53491210938</ele>
        <time>2014-06-25T12:14:56Z</time>
      </trkpt>
      <trkpt lat="43.40846" lon="6.07008">
        <ele>210.54864501953</ele>
        <time>2014-06-25T12:15:03Z</time>
      </trkpt>
      <trkpt lat="43.40845" lon="6.07009">
        <ele>210.58984375</ele>
        <time>2014-06-25T12:15:04Z</time>
      </trkpt>
      <trkpt lat="43.40842" lon="6.07023">
        <ele>210.69970703125</ele>
        <time>2014-06-25T12:15:08Z</time>
      </trkpt>
      <trkpt lat="43.40844" lon="6.07049">
        <ele>210.63104248047</ele>
        <time>2014-06-25T12:15:13Z</time>
      </trkpt>
      <trkpt lat="43.40845" lon="6.07093">
        <ele>210.56237792969</ele>
        <time>2014-06-25T12:15:21Z</time>
      </trkpt>
      <trkpt lat="43.40841" lon="6.07131">
        <ele>210.74090576172</ele>
        <time>2014-06-25T12:15:27Z</time>
      </trkpt>
      <trkpt lat="43.40832" lon="6.07161">
        <ele>211.80961608887</ele>
        <time>2014-06-25T12:15:32Z</time>
      </trkpt>
      <trkpt lat="43.40807" lon="6.07208">
        <ele>211.94940185547</ele>
        <time>2014-06-25T12:15:41Z</time>
      </trkpt>
      <trkpt lat="43.40792" lon="6.07228">
        <ele>212</ele>
        <time>2014-06-25T12:15:45Z</time>
      </trkpt>
      <trkpt lat="43.40788" lon="6.07232">
        <ele>212</ele>
        <time>2014-06-25T12:15:46Z</time>
      </trkpt>
      <trkpt lat="43.4077" lon="6.07247">
        <ele>212.29522705078</ele>
        <time>2014-06-25T12:15:50Z</time>
      </trkpt>
      <trkpt lat="43.40755" lon="6.07255">
        <ele>212.81707763672</ele>
        <time>2014-06-25T12:15:53Z</time>
      </trkpt>
      <trkpt lat="43.40736" lon="6.07265">
        <ele>213.51745605469</ele>
        <time>2014-06-25T12:15:57Z</time>
      </trkpt>
      <trkpt lat="43.40731" lon="6.07267">
        <ele>213.68225097656</ele>
        <time>2014-06-25T12:15:58Z</time>
      </trkpt>
      <trkpt lat="43.40691" lon="6.07289">
        <ele>215</ele>
        <time>2014-06-25T12:16:07Z</time>
      </trkpt>
      <trkpt lat="43.4068" lon="6.07296">
        <ele>215</ele>
        <time>2014-06-25T12:16:10Z</time>
      </trkpt>
      <trkpt lat="43.40673" lon="6.073">
        <ele>215</ele>
        <time>2014-06-25T12:16:12Z</time>
      </trkpt>
      <trkpt lat="43.40644" lon="6.07317">
        <ele>215.37837219238</ele>
        <time>2014-06-25T12:16:20Z</time>
      </trkpt>
      <trkpt lat="43.40638" lon="6.07321">
        <ele>215.46936035156</ele>
        <time>2014-06-25T12:16:22Z</time>
      </trkpt>
      <trkpt lat="43.40632" lon="6.07323">
        <ele>215.63415527344</ele>
        <time>2014-06-25T12:16:24Z</time>
      </trkpt>
      <trkpt lat="43.40625" lon="6.0732">
        <ele>215.97402954102</ele>
        <time>2014-06-25T12:16:26Z</time>
      </trkpt>
      <trkpt lat="43.40619" lon="6.07315">
        <ele>216.37744140625</ele>
        <time>2014-06-25T12:16:28Z</time>
      </trkpt>
      <trkpt lat="43.40616" lon="6.07313">
        <ele>216.55940246582</ele>
        <time>2014-06-25T12:16:29Z</time>
      </trkpt>
      <trkpt lat="43.40614" lon="6.0731">
        <ele>216.75166320801</ele>
        <time>2014-06-25T12:16:30Z</time>
      </trkpt>
      <trkpt lat="43.40611" lon="6.07307">
        <ele>216.93803405762</ele>
        <time>2014-06-25T12:16:31Z</time>
      </trkpt>
      <trkpt lat="43.40609" lon="6.07305">
        <ele>217</ele>
        <time>2014-06-25T12:16:32Z</time>
      </trkpt>
      <trkpt lat="43.40606" lon="6.073">
        <ele>217</ele>
        <time>2014-06-25T12:16:35Z</time>
      </trkpt>
      <trkpt lat="43.40604" lon="6.07299">
        <ele>217</ele>
        <time>2014-06-25T12:16:38Z</time>
      </trkpt>
      <trkpt lat="43.40604" lon="6.07299">
        <ele>217</ele>
        <time>2014-06-25T12:16:46Z</time>
      </trkpt>
      <trkpt lat="43.40604" lon="6.07299">
        <ele>217</ele>
        <time>2014-06-25T12:16:54Z</time>
      </trkpt>
      <trkpt lat="43.40603" lon="6.07297">
        <ele>217</ele>
        <time>2014-06-25T12:16:58Z</time>
      </trkpt>
      <trkpt lat="43.40601" lon="6.07294">
        <ele>217</ele>
        <time>2014-06-25T12:17:00Z</time>
      </trkpt>
      <trkpt lat="43.40589" lon="6.07291">
        <ele>217</ele>
        <time>2014-06-25T12:17:04Z</time>
      </trkpt>
      <trkpt lat="43.40583" lon="6.07296">
        <ele>217.01062011719</ele>
        <time>2014-06-25T12:17:06Z</time>
      </trkpt>
      <trkpt lat="43.40576" lon="6.073">
        <ele>217.27154541016</ele>
        <time>2014-06-25T12:17:08Z</time>
      </trkpt>
      <trkpt lat="43.40572" lon="6.073">
        <ele>217.42260742188</ele>
        <time>2014-06-25T12:17:09Z</time>
      </trkpt>
      <trkpt lat="43.40556" lon="6.07298">
        <ele>217.99938964844</ele>
        <time>2014-06-25T12:17:13Z</time>
      </trkpt>
      <trkpt lat="43.40547" lon="6.07297">
        <ele>218</ele>
        <time>2014-06-25T12:17:15Z</time>
      </trkpt>
      <trkpt lat="43.40535" lon="6.07295">
        <ele>218</ele>
        <time>2014-06-25T12:17:18Z</time>
      </trkpt>
      <trkpt lat="43.40519" lon="6.07288">
        <ele>218.31774902344</ele>
        <time>2014-06-25T12:17:22Z</time>
      </trkpt>
      <trkpt lat="43.40503" lon="6.07278">
        <ele>218.89453125</ele>
        <time>2014-06-25T12:17:26Z</time>
      </trkpt>
      <trkpt lat="43.4049" lon="6.07276">
        <ele>219.36145019531</ele>
        <time>2014-06-25T12:17:29Z</time>
      </trkpt>
      <trkpt lat="43.40482" lon="6.07275">
        <ele>219.66357421875</ele>
        <time>2014-06-25T12:17:31Z</time>
      </trkpt>
      <trkpt lat="43.40469" lon="6.07276">
        <ele>220</ele>
        <time>2014-06-25T12:17:34Z</time>
      </trkpt>
      <trkpt lat="43.40435" lon="6.07278">
        <ele>220.65051269531</ele>
        <time>2014-06-25T12:17:42Z</time>
      </trkpt>
      <trkpt lat="43.40409" lon="6.07278">
        <ele>222.27282714844</ele>
        <time>2014-06-25T12:17:49Z</time>
      </trkpt>
      <trkpt lat="43.40398" lon="6.07266">
        <ele>222.68481445312</ele>
        <time>2014-06-25T12:17:53Z</time>
      </trkpt>
      <trkpt lat="43.40387" lon="6.07253">
        <ele>223.08306884766</ele>
        <time>2014-06-25T12:17:57Z</time>
      </trkpt>
      <trkpt lat="43.40379" lon="6.07249">
        <ele>223.34399414062</ele>
        <time>2014-06-25T12:17:59Z</time>
      </trkpt>
      <trkpt lat="43.40368" lon="6.07252">
        <ele>223.76971435547</ele>
        <time>2014-06-25T12:18:02Z</time>
      </trkpt>
      <trkpt lat="43.40361" lon="6.07265">
        <ele>224.00634765625</ele>
        <time>2014-06-25T12:18:05Z</time>
      </trkpt>
      <trkpt lat="43.40366" lon="6.07286">
        <ele>224.09446716309</ele>
        <time>2014-06-25T12:18:09Z</time>
      </trkpt>
      <trkpt lat="43.40372" lon="6.07301">
        <ele>224.07722473144</ele>
        <time>2014-06-25T12:18:12Z</time>
      </trkpt>
      <trkpt lat="43.40376" lon="6.07316">
        <ele>223.90771484375</ele>
        <time>2014-06-25T12:18:15Z</time>
      </trkpt>
      <trkpt lat="43.40378" lon="6.07321">
        <ele>223.7978515625</ele>
        <time>2014-06-25T12:18:16Z</time>
      </trkpt>
      <trkpt lat="43.40383" lon="6.07354">
        <ele>223.41333007812</ele>
        <time>2014-06-25T12:18:22Z</time>
      </trkpt>
      <trkpt lat="43.40387" lon="6.07387">
        <ele>223.11120605469</ele>
        <time>2014-06-25T12:18:28Z</time>
      </trkpt>
      <trkpt lat="43.40388" lon="6.07405">
        <ele>223.08374023438</ele>
        <time>2014-06-25T12:18:31Z</time>
      </trkpt>
      <trkpt lat="43.40384" lon="6.07453">
        <ele>224.38586425781</ele>
        <time>2014-06-25T12:18:39Z</time>
      </trkpt>
      <trkpt lat="43.40378" lon="6.07481">
        <ele>224.77038574219</ele>
        <time>2014-06-25T12:18:44Z</time>
      </trkpt>
      <trkpt lat="43.40377" lon="6.07492">
        <ele>224.88024902344</ele>
        <time>2014-06-25T12:18:46Z</time>
      </trkpt>
      <trkpt lat="43.4037" lon="6.0754">
        <ele>225.34716796875</ele>
        <time>2014-06-25T12:18:54Z</time>
      </trkpt>
      <trkpt lat="43.4037" lon="6.07581">
        <ele>225.37463378906</ele>
        <time>2014-06-25T12:19:00Z</time>
      </trkpt>
      <trkpt lat="43.40369" lon="6.07596">
        <ele>225.40209960938</ele>
        <time>2014-06-25T12:19:02Z</time>
      </trkpt>
      <trkpt lat="43.40368" lon="6.07618">
        <ele>225.57582092285</ele>
        <time>2014-06-25T12:19:05Z</time>
      </trkpt>
      <trkpt lat="43.40366" lon="6.07633">
        <ele>225.78547668457</ele>
        <time>2014-06-25T12:19:07Z</time>
      </trkpt>
      <trkpt lat="43.40359" lon="6.07653">
        <ele>225.61343383789</ele>
        <time>2014-06-25T12:19:10Z</time>
      </trkpt>
      <trkpt lat="43.40349" lon="6.07668">
        <ele>225.85778808594</ele>
        <time>2014-06-25T12:19:13Z</time>
      </trkpt>
      <trkpt lat="43.40324" lon="6.07697">
        <ele>227.53524780273</ele>
        <time>2014-06-25T12:19:20Z</time>
      </trkpt>
      <trkpt lat="43.40314" lon="6.07719">
        <ele>227.49749755859</ele>
        <time>2014-06-25T12:19:24Z</time>
      </trkpt>
      <trkpt lat="43.4031" lon="6.07731">
        <ele>227.08999633789</ele>
        <time>2014-06-25T12:19:26Z</time>
      </trkpt>
      <trkpt lat="43.40305" lon="6.07759">
        <ele>226.0712890625</ele>
        <time>2014-06-25T12:19:31Z</time>
      </trkpt>
      <trkpt lat="43.40301" lon="6.07789">
        <ele>226.34594726562</ele>
        <time>2014-06-25T12:19:36Z</time>
      </trkpt>
      <trkpt lat="43.40298" lon="6.07812">
        <ele>226.5107421875</ele>
        <time>2014-06-25T12:19:40Z</time>
      </trkpt>
      <trkpt lat="43.40287" lon="6.07909">
        <ele>228.36218261719</ele>
        <time>2014-06-25T12:19:57Z</time>
      </trkpt>
      <trkpt lat="43.40284" lon="6.07926">
        <ele>228.55444335938</ele>
        <time>2014-06-25T12:20:00Z</time>
      </trkpt>
      <trkpt lat="43.40277" lon="6.07947">
        <ele>229.02136230469</ele>
        <time>2014-06-25T12:20:04Z</time>
      </trkpt>
      <trkpt lat="43.40269" lon="6.07967">
        <ele>229.62561035156</ele>
        <time>2014-06-25T12:20:08Z</time>
      </trkpt>
      <trkpt lat="43.40264" lon="6.07976">
        <ele>230.01013183594</ele>
        <time>2014-06-25T12:20:10Z</time>
      </trkpt>
      <trkpt lat="43.40249" lon="6.07998">
        <ele>231.02691650391</ele>
        <time>2014-06-25T12:20:15Z</time>
      </trkpt>
      <trkpt lat="43.40222" lon="6.08031">
        <ele>232.12457275391</ele>
        <time>2014-06-25T12:20:24Z</time>
      </trkpt>
      <trkpt lat="43.40199" lon="6.08061">
        <ele>234.67932128906</ele>
        <time>2014-06-25T12:20:32Z</time>
      </trkpt>
      <trkpt lat="43.40196" lon="6.08065">
        <ele>234.87158203125</ele>
        <time>2014-06-25T12:20:33Z</time>
      </trkpt>
      <trkpt lat="43.40192" lon="6.08074">
        <ele>235.17370605469</ele>
        <time>2014-06-25T12:20:35Z</time>
      </trkpt>
      <trkpt lat="43.40189" lon="6.08084">
        <ele>235.36596679688</ele>
        <time>2014-06-25T12:20:37Z</time>
      </trkpt>
      <trkpt lat="43.40189" lon="6.08113">
        <ele>235.39343261719</ele>
        <time>2014-06-25T12:20:43Z</time>
      </trkpt>
      <trkpt lat="43.40197" lon="6.08133">
        <ele>234.78918457031</ele>
        <time>2014-06-25T12:20:48Z</time>
      </trkpt>
      <trkpt lat="43.40197" lon="6.08153">
        <ele>234.78918457031</ele>
        <time>2014-06-25T12:20:52Z</time>
      </trkpt>
      <trkpt lat="43.40197" lon="6.08164">
        <ele>234.81665039062</ele>
        <time>2014-06-25T12:20:54Z</time>
      </trkpt>
      <trkpt lat="43.40197" lon="6.08169">
        <ele>234.84411621094</ele>
        <time>2014-06-25T12:20:55Z</time>
      </trkpt>
      <trkpt lat="43.40193" lon="6.08189">
        <ele>235.16583251953</ele>
        <time>2014-06-25T12:20:59Z</time>
      </trkpt>
      <trkpt lat="43.40181" lon="6.08227">
        <ele>236.57867431641</ele>
        <time>2014-06-25T12:21:07Z</time>
      </trkpt>
      <trkpt lat="43.40179" lon="6.08231">
        <ele>236.80111694336</ele>
        <time>2014-06-25T12:21:08Z</time>
      </trkpt>
      <trkpt lat="43.40178" lon="6.08235">
        <ele>236.96881103516</ele>
        <time>2014-06-25T12:21:09Z</time>
      </trkpt>
      <trkpt lat="43.40178" lon="6.08242">
        <ele>237.07936096191</ele>
        <time>2014-06-25T12:21:11Z</time>
      </trkpt>
      <trkpt lat="43.40178" lon="6.08246">
        <ele>237.09774780273</ele>
        <time>2014-06-25T12:21:12Z</time>
      </trkpt>
      <trkpt lat="43.40179" lon="6.08247">
        <ele>237.03582763672</ele>
        <time>2014-06-25T12:21:13Z</time>
      </trkpt>
      <trkpt lat="43.40184" lon="6.08251">
        <ele>236.77795410156</ele>
        <time>2014-06-25T12:21:16Z</time>
      </trkpt>
      <trkpt lat="43.40184" lon="6.08253">
        <ele>236.72302246094</ele>
        <time>2014-06-25T12:21:21Z</time>
      </trkpt>
      <trkpt lat="43.40186" lon="6.08254">
        <ele>236.640625</ele>
        <time>2014-06-25T12:21:23Z</time>
      </trkpt>
      <trkpt lat="43.40186" lon="6.08256">
        <ele>236.61315917969</ele>
        <time>2014-06-25T12:21:25Z</time>
      </trkpt>
      <trkpt lat="43.40186" lon="6.08271">
        <ele>236.58569335938</ele>
        <time>2014-06-25T12:21:30Z</time>
      </trkpt>
      <trkpt lat="43.40186" lon="6.08275">
        <ele>236.61315917969</ele>
        <time>2014-06-25T12:21:31Z</time>
      </trkpt>
      <trkpt lat="43.4018" lon="6.08294">
        <ele>237.02514648438</ele>
        <time>2014-06-25T12:21:36Z</time>
      </trkpt>
      <trkpt lat="43.40178" lon="6.08313">
        <ele>237.34403991699</ele>
        <time>2014-06-25T12:21:41Z</time>
      </trkpt>
      <trkpt lat="43.40178" lon="6.08338">
        <ele>237.74371337891</ele>
        <time>2014-06-25T12:21:49Z</time>
      </trkpt>
      <trkpt lat="43.40178" lon="6.08346">
        <ele>237.82611083984</ele>
        <time>2014-06-25T12:21:51Z</time>
      </trkpt>
      <trkpt lat="43.40179" lon="6.08364">
        <ele>237.75491333008</ele>
        <time>2014-06-25T12:21:56Z</time>
      </trkpt>
      <trkpt lat="43.40176" lon="6.08421">
        <ele>238.32727050781</ele>
        <time>2014-06-25T12:22:08Z</time>
      </trkpt>
      <trkpt lat="43.40173" lon="6.08444">
        <ele>238.54653930664</ele>
        <time>2014-06-25T12:22:12Z</time>
      </trkpt>
      <trkpt lat="43.40169" lon="6.08465">
        <ele>238.75672912598</ele>
        <time>2014-06-25T12:22:16Z</time>
      </trkpt>
      <trkpt lat="43.40167" lon="6.08485">
        <ele>238.53701782227</ele>
        <time>2014-06-25T12:22:19Z</time>
      </trkpt>
      <trkpt lat="43.40164" lon="6.08506">
        <ele>237.91358947754</ele>
        <time>2014-06-25T12:22:22Z</time>
      </trkpt>
      <trkpt lat="43.40164" lon="6.0852">
        <ele>237.4217376709</ele>
        <time>2014-06-25T12:22:24Z</time>
      </trkpt>
      <trkpt lat="43.40165" lon="6.08565">
        <ele>236.70141601562</ele>
        <time>2014-06-25T12:22:30Z</time>
      </trkpt>
      <trkpt lat="43.40163" lon="6.08576">
        <ele>236.39584350586</ele>
        <time>2014-06-25T12:22:32Z</time>
      </trkpt>
      <trkpt lat="43.40161" lon="6.0858">
        <ele>236.32890319824</ele>
        <time>2014-06-25T12:22:33Z</time>
      </trkpt>
      <trkpt lat="43.40158" lon="6.08583">
        <ele>236.32376098633</ele>
        <time>2014-06-25T12:22:34Z</time>
      </trkpt>
      <trkpt lat="43.40147" lon="6.08588">
        <ele>236.51429748535</ele>
        <time>2014-06-25T12:22:37Z</time>
      </trkpt>
      <trkpt lat="43.40141" lon="6.08593">
        <ele>236.58810424805</ele>
        <time>2014-06-25T12:22:39Z</time>
      </trkpt>
      <trkpt lat="43.40137" lon="6.08596">
        <ele>236.69369506836</ele>
        <time>2014-06-25T12:22:40Z</time>
      </trkpt>
      <trkpt lat="43.4013" lon="6.08602">
        <ele>236.96664428711</ele>
        <time>2014-06-25T12:22:42Z</time>
      </trkpt>
      <trkpt lat="43.40114" lon="6.08618">
        <ele>237.77673339844</ele>
        <time>2014-06-25T12:22:47Z</time>
      </trkpt>
      <trkpt lat="43.40098" lon="6.08639">
        <ele>238.46514892578</ele>
        <time>2014-06-25T12:22:53Z</time>
      </trkpt>
      <trkpt lat="43.401" lon="6.08666">
        <ele>237.80661010742</ele>
        <time>2014-06-25T12:22:58Z</time>
      </trkpt>
      <trkpt lat="43.40102" lon="6.0869">
        <ele>237.65563964844</ele>
        <time>2014-06-25T12:23:04Z</time>
      </trkpt>
      <trkpt lat="43.401" lon="6.08699">
        <ele>237.76550292969</ele>
        <time>2014-06-25T12:23:06Z</time>
      </trkpt>
      <trkpt lat="43.40099" lon="6.08708">
        <ele>237.84790039062</ele>
        <time>2014-06-25T12:23:08Z</time>
      </trkpt>
      <trkpt lat="43.40094" lon="6.08734">
        <ele>238.61477661133</ele>
        <time>2014-06-25T12:23:13Z</time>
      </trkpt>
      <trkpt lat="43.40084" lon="6.08768">
        <ele>239.94653320312</ele>
        <time>2014-06-25T12:23:20Z</time>
      </trkpt>
      <trkpt lat="43.40075" lon="6.08795">
        <ele>242.12652587891</ele>
        <time>2014-06-25T12:23:25Z</time>
      </trkpt>
      <trkpt lat="43.40068" lon="6.0881">
        <ele>243.60269165039</ele>
        <time>2014-06-25T12:23:28Z</time>
      </trkpt>
      <trkpt lat="43.40061" lon="6.08829">
        <ele>244.81283569336</ele>
        <time>2014-06-25T12:23:31Z</time>
      </trkpt>
      <trkpt lat="43.40055" lon="6.08848">
        <ele>245.61991882324</ele>
        <time>2014-06-25T12:23:34Z</time>
      </trkpt>
      <trkpt lat="43.40053" lon="6.08855">
        <ele>245.59591674805</ele>
        <time>2014-06-25T12:23:35Z</time>
      </trkpt>
      <trkpt lat="43.40047" lon="6.08881">
        <ele>244.7313079834</ele>
        <time>2014-06-25T12:23:39Z</time>
      </trkpt>
      <trkpt lat="43.40046" lon="6.08888">
        <ele>244.4944152832</ele>
        <time>2014-06-25T12:23:40Z</time>
      </trkpt>
      <trkpt lat="43.4004" lon="6.08907">
        <ele>243.27648925781</ele>
        <time>2014-06-25T12:23:43Z</time>
      </trkpt>
      <trkpt lat="43.40037" lon="6.08919">
        <ele>242.4814453125</ele>
        <time>2014-06-25T12:23:45Z</time>
      </trkpt>
      <trkpt lat="43.40032" lon="6.08938">
        <ele>241.98300170898</ele>
        <time>2014-06-25T12:23:48Z</time>
      </trkpt>
      <trkpt lat="43.40025" lon="6.08956">
        <ele>241.25010681152</ele>
        <time>2014-06-25T12:23:51Z</time>
      </trkpt>
      <trkpt lat="43.40017" lon="6.08961">
        <ele>241.6964263916</ele>
        <time>2014-06-25T12:23:53Z</time>
      </trkpt>
      <trkpt lat="43.40014" lon="6.08964">
        <ele>241.98825073242</ele>
        <time>2014-06-25T12:23:54Z</time>
      </trkpt>
      <trkpt lat="43.39996" lon="6.08969">
        <ele>244.6819152832</ele>
        <time>2014-06-25T12:23:58Z</time>
      </trkpt>
      <trkpt lat="43.39972" lon="6.08975">
        <ele>250.86431884766</ele>
        <time>2014-06-25T12:24:03Z</time>
      </trkpt>
      <trkpt lat="43.39962" lon="6.08976">
        <ele>252.71826171875</ele>
        <time>2014-06-25T12:24:05Z</time>
      </trkpt>
      <trkpt lat="43.39958" lon="6.08978">
        <ele>253.44953918457</ele>
        <time>2014-06-25T12:24:06Z</time>
      </trkpt>
      <trkpt lat="43.39946" lon="6.08981">
        <ele>255.82876586914</ele>
        <time>2014-06-25T12:24:09Z</time>
      </trkpt>
      <trkpt lat="43.39933" lon="6.08983">
        <ele>257.03527832031</ele>
        <time>2014-06-25T12:24:13Z</time>
      </trkpt>
      <trkpt lat="43.39927" lon="6.08983">
        <ele>257.76141357422</ele>
        <time>2014-06-25T12:24:15Z</time>
      </trkpt>
      <trkpt lat="43.3992" lon="6.08983">
        <ele>258.43603515625</ele>
        <time>2014-06-25T12:24:17Z</time>
      </trkpt>
      <trkpt lat="43.39914" lon="6.08983">
        <ele>259.91360473633</ele>
        <time>2014-06-25T12:24:19Z</time>
      </trkpt>
      <trkpt lat="43.3991" lon="6.08983">
        <ele>261.30047607422</ele>
        <time>2014-06-25T12:24:20Z</time>
      </trkpt>
      <trkpt lat="43.39896" lon="6.08987">
        <ele>265.13012695312</ele>
        <time>2014-06-25T12:24:24Z</time>
      </trkpt>
      <trkpt lat="43.39882" lon="6.08994">
        <ele>268.91326904297</ele>
        <time>2014-06-25T12:24:28Z</time>
      </trkpt>
      <trkpt lat="43.39874" lon="6.08996">
        <ele>271.54016113281</ele>
        <time>2014-06-25T12:24:30Z</time>
      </trkpt>
      <trkpt lat="43.39864" lon="6.09008">
        <ele>274.32873535156</ele>
        <time>2014-06-25T12:24:34Z</time>
      </trkpt>
      <trkpt lat="43.39834" lon="6.09041">
        <ele>276.98956298828</ele>
        <time>2014-06-25T12:24:46Z</time>
      </trkpt>
      <trkpt lat="43.39832" lon="6.09044">
        <ele>276.70907592773</ele>
        <time>2014-06-25T12:24:47Z</time>
      </trkpt>
      <trkpt lat="43.39828" lon="6.09051">
        <ele>276.05029296875</ele>
        <time>2014-06-25T12:24:49Z</time>
      </trkpt>
      <trkpt lat="43.39827" lon="6.09055">
        <ele>275.7219543457</ele>
        <time>2014-06-25T12:24:50Z</time>
      </trkpt>
      <trkpt lat="43.39825" lon="6.09062">
        <ele>275.07412719727</ele>
        <time>2014-06-25T12:24:52Z</time>
      </trkpt>
      <trkpt lat="43.39819" lon="6.09076">
        <ele>274.96881103516</ele>
        <time>2014-06-25T12:24:56Z</time>
      </trkpt>
      <trkpt lat="43.39812" lon="6.09098">
        <ele>274.568359375</ele>
        <time>2014-06-25T12:25:01Z</time>
      </trkpt>
      <trkpt lat="43.39804" lon="6.09133">
        <ele>274.35824584961</ele>
        <time>2014-06-25T12:25:07Z</time>
      </trkpt>
      <trkpt lat="43.39802" lon="6.09151">
        <ele>273.90884399414</ele>
        <time>2014-06-25T12:25:10Z</time>
      </trkpt>
      <trkpt lat="43.39801" lon="6.0917">
        <ele>273.24530029297</ele>
        <time>2014-06-25T12:25:13Z</time>
      </trkpt>
      <trkpt lat="43.39801" lon="6.09184">
        <ele>271.66156005859</ele>
        <time>2014-06-25T12:25:15Z</time>
      </trkpt>
      <trkpt lat="43.39801" lon="6.09213">
        <ele>269.01477050781</ele>
        <time>2014-06-25T12:25:19Z</time>
      </trkpt>
      <trkpt lat="43.398" lon="6.09227">
        <ele>268.23010253906</ele>
        <time>2014-06-25T12:25:21Z</time>
      </trkpt>
      <trkpt lat="43.39796" lon="6.09253">
        <ele>268.3681640625</ele>
        <time>2014-06-25T12:25:25Z</time>
      </trkpt>
      <trkpt lat="43.39785" lon="6.09302">
        <ele>271.00659179688</ele>
        <time>2014-06-25T12:25:33Z</time>
      </trkpt>
      <trkpt lat="43.39779" lon="6.09313">
        <ele>273.36730957031</ele>
        <time>2014-06-25T12:25:35Z</time>
      </trkpt>
      <trkpt lat="43.39768" lon="6.09334">
        <ele>275.48773193359</ele>
        <time>2014-06-25T12:25:39Z</time>
      </trkpt>
      <trkpt lat="43.39754" lon="6.09363">
        <ele>274.35763549805</ele>
        <time>2014-06-25T12:25:45Z</time>
      </trkpt>
      <trkpt lat="43.39737" lon="6.09393">
        <ele>277.51708984375</ele>
        <time>2014-06-25T12:25:52Z</time>
      </trkpt>
      <trkpt lat="43.39724" lon="6.09413">
        <ele>281.75473022461</ele>
        <time>2014-06-25T12:25:57Z</time>
      </trkpt>
      <trkpt lat="43.39707" lon="6.09419">
        <ele>287.42556762695</ele>
        <time>2014-06-25T12:26:02Z</time>
      </trkpt>
      <trkpt lat="43.39698" lon="6.09425">
        <ele>289.18954467773</ele>
        <time>2014-06-25T12:26:05Z</time>
      </trkpt>
      <trkpt lat="43.39686" lon="6.09434">
        <ele>290.2580871582</ele>
        <time>2014-06-25T12:26:10Z</time>
      </trkpt>
      <trkpt lat="43.39684" lon="6.09436">
        <ele>290.08258056641</ele>
        <time>2014-06-25T12:26:11Z</time>
      </trkpt>
      <trkpt lat="43.39681" lon="6.09445">
        <ele>288.73098754883</ele>
        <time>2014-06-25T12:26:14Z</time>
      </trkpt>
      <trkpt lat="43.39678" lon="6.09455">
        <ele>287.32647705078</ele>
        <time>2014-06-25T12:26:17Z</time>
      </trkpt>
      <trkpt lat="43.39677" lon="6.09458">
        <ele>286.82385253906</ele>
        <time>2014-06-25T12:26:18Z</time>
      </trkpt>
      <trkpt lat="43.39669" lon="6.0948">
        <ele>282.49868774414</ele>
        <time>2014-06-25T12:26:25Z</time>
      </trkpt>
      <trkpt lat="43.39665" lon="6.09492">
        <ele>279.50936889648</ele>
        <time>2014-06-25T12:26:29Z</time>
      </trkpt>
      <trkpt lat="43.39659" lon="6.09506">
        <ele>276.18768310547</ele>
        <time>2014-06-25T12:26:34Z</time>
      </trkpt>
      <trkpt lat="43.39658" lon="6.09509">
        <ele>275.66171264648</ele>
        <time>2014-06-25T12:26:35Z</time>
      </trkpt>
      <trkpt lat="43.39655" lon="6.09514">
        <ele>274.85473632812</ele>
        <time>2014-06-25T12:26:37Z</time>
      </trkpt>
      <trkpt lat="43.3965" lon="6.09525">
        <ele>273.21896362305</ele>
        <time>2014-06-25T12:26:42Z</time>
      </trkpt>
      <trkpt lat="43.39649" lon="6.09527">
        <ele>272.78814697266</ele>
        <time>2014-06-25T12:26:43Z</time>
      </trkpt>
      <trkpt lat="43.39648" lon="6.09529">
        <ele>272.86618041992</ele>
        <time>2014-06-25T12:26:44Z</time>
      </trkpt>
      <trkpt lat="43.39642" lon="6.09537">
        <ele>273.81582641602</ele>
        <time>2014-06-25T12:26:49Z</time>
      </trkpt>
      <trkpt lat="43.39639" lon="6.0954">
        <ele>274.36343383789</ele>
        <time>2014-06-25T12:26:51Z</time>
      </trkpt>
      <trkpt lat="43.39632" lon="6.0955">
        <ele>274.93399047852</ele>
        <time>2014-06-25T12:26:57Z</time>
      </trkpt>
      <trkpt lat="43.39627" lon="6.09564">
        <ele>273.96057128906</ele>
        <time>2014-06-25T12:27:03Z</time>
      </trkpt>
      <trkpt lat="43.39626" lon="6.09568">
        <ele>273.54516601562</ele>
        <time>2014-06-25T12:27:05Z</time>
      </trkpt>
      <trkpt lat="43.39623" lon="6.09576">
        <ele>273.07049560547</ele>
        <time>2014-06-25T12:27:09Z</time>
      </trkpt>
      <trkpt lat="43.39621" lon="6.09581">
        <ele>272.89541625977</ele>
        <time>2014-06-25T12:27:12Z</time>
      </trkpt>
      <trkpt lat="43.39619" lon="6.09588">
        <ele>272.50796508789</ele>
        <time>2014-06-25T12:27:17Z</time>
      </trkpt>
      <trkpt lat="43.39618" lon="6.09589">
        <ele>272.62750244141</ele>
        <time>2014-06-25T12:27:18Z</time>
      </trkpt>
      <trkpt lat="43.39616" lon="6.09591">
        <ele>273.08721923828</ele>
        <time>2014-06-25T12:27:21Z</time>
      </trkpt>
      <trkpt lat="43.39616" lon="6.09591">
        <ele>273.24227905273</ele>
        <time>2014-06-25T12:27:24Z</time>
      </trkpt>
      <trkpt lat="43.39616" lon="6.09591">
        <ele>273.24227905273</ele>
        <time>2014-06-25T12:27:38Z</time>
      </trkpt>
      <trkpt lat="43.39616" lon="6.09591">
        <ele>273.24227905273</ele>
        <time>2014-06-25T12:28:00Z</time>
      </trkpt>
      <trkpt lat="43.39616" lon="6.09591">
        <ele>273.08108520508</ele>
        <time>2014-06-25T12:28:03Z</time>
      </trkpt>
      <trkpt lat="43.39616" lon="6.09591">
        <ele>273.08108520508</ele>
        <time>2014-06-25T12:28:22Z</time>
      </trkpt>
      <trkpt lat="43.39616" lon="6.09591">
        <ele>273.08108520508</ele>
        <time>2014-06-25T12:28:41Z</time>
      </trkpt>
      <trkpt lat="43.39617" lon="6.09592">
        <ele>272.88864135742</ele>
        <time>2014-06-25T12:28:42Z</time>
      </trkpt>
      <trkpt lat="43.39617" lon="6.09592">
        <ele>272.88864135742</ele>
        <time>2014-06-25T12:29:06Z</time>
      </trkpt>
      <trkpt lat="43.39617" lon="6.09592">
        <ele>272.70770263672</ele>
        <time>2014-06-25T12:29:35Z</time>
      </trkpt>
      <trkpt lat="43.39617" lon="6.09592">
        <ele>272.70770263672</ele>
        <time>2014-06-25T12:29:46Z</time>
      </trkpt>
      <trkpt lat="43.39617" lon="6.09592">
        <ele>272.70770263672</ele>
        <time>2014-06-25T12:29:56Z</time>
      </trkpt>
      <trkpt lat="43.39616" lon="6.09593">
        <ele>272.8298034668</ele>
        <time>2014-06-25T12:30:11Z</time>
      </trkpt>
      <trkpt lat="43.39616" lon="6.09598">
        <ele>272.42437744141</ele>
        <time>2014-06-25T12:30:14Z</time>
      </trkpt>
      <trkpt lat="43.39615" lon="6.09602">
        <ele>272.15551757812</ele>
        <time>2014-06-25T12:30:16Z</time>
      </trkpt>
      <trkpt lat="43.39613" lon="6.0961">
        <ele>272.2585144043</ele>
        <time>2014-06-25T12:30:19Z</time>
      </trkpt>
      <trkpt lat="43.3961" lon="6.09619">
        <ele>272.44317626953</ele>
        <time>2014-06-25T12:30:22Z</time>
      </trkpt>
      <trkpt lat="43.39604" lon="6.09644">
        <ele>271.25305175781</ele>
        <time>2014-06-25T12:30:29Z</time>
      </trkpt>
      <trkpt lat="43.39598" lon="6.09675">
        <ele>269.91442871094</ele>
        <time>2014-06-25T12:30:39Z</time>
      </trkpt>
      <trkpt lat="43.39596" lon="6.0969">
        <ele>269.6731262207</ele>
        <time>2014-06-25T12:30:44Z</time>
      </trkpt>
      <trkpt lat="43.39591" lon="6.09719">
        <ele>268.28265380859</ele>
        <time>2014-06-25T12:30:51Z</time>
      </trkpt>
      <trkpt lat="43.39585" lon="6.09737">
        <ele>268.76126098633</ele>
        <time>2014-06-25T12:30:55Z</time>
      </trkpt>
      <trkpt lat="43.39584" lon="6.09742">
        <ele>268.6789855957</ele>
        <time>2014-06-25T12:30:56Z</time>
      </trkpt>
      <trkpt lat="43.39577" lon="6.09762">
        <ele>269.51406860352</ele>
        <time>2014-06-25T12:31:00Z</time>
      </trkpt>
      <trkpt lat="43.39575" lon="6.09771">
        <ele>269.68548583984</ele>
        <time>2014-06-25T12:31:02Z</time>
      </trkpt>
      <trkpt lat="43.39569" lon="6.09801">
        <ele>269.17330932617</ele>
        <time>2014-06-25T12:31:08Z</time>
      </trkpt>
      <trkpt lat="43.39566" lon="6.09817">
        <ele>268.150390625</ele>
        <time>2014-06-25T12:31:12Z</time>
      </trkpt>
      <trkpt lat="43.3956" lon="6.0984">
        <ele>267.08825683594</ele>
        <time>2014-06-25T12:31:18Z</time>
      </trkpt>
      <trkpt lat="43.39559" lon="6.09864">
        <ele>265.10522460938</ele>
        <time>2014-06-25T12:31:23Z</time>
      </trkpt>
      <trkpt lat="43.39553" lon="6.09889">
        <ele>264.22653198242</ele>
        <time>2014-06-25T12:31:28Z</time>
      </trkpt>
      <trkpt lat="43.39544" lon="6.09916">
        <ele>260.96887207031</ele>
        <time>2014-06-25T12:31:33Z</time>
      </trkpt>
      <trkpt lat="43.3955" lon="6.09931">
        <ele>260.2951965332</ele>
        <time>2014-06-25T12:31:36Z</time>
      </trkpt>
      <trkpt lat="43.39553" lon="6.09948">
        <ele>260.06625366211</ele>
        <time>2014-06-25T12:31:39Z</time>
      </trkpt>
      <trkpt lat="43.39555" lon="6.09962">
        <ele>260.00259399414</ele>
        <time>2014-06-25T12:31:41Z</time>
      </trkpt>
      <trkpt lat="43.39555" lon="6.0997">
        <ele>260.00057983398</ele>
        <time>2014-06-25T12:31:42Z</time>
      </trkpt>
      <trkpt lat="43.39555" lon="6.09978">
        <ele>260</ele>
        <time>2014-06-25T12:31:43Z</time>
      </trkpt>
      <trkpt lat="43.39554" lon="6.09992">
        <ele>260</ele>
        <time>2014-06-25T12:31:45Z</time>
      </trkpt>
      <trkpt lat="43.39552" lon="6.10006">
        <ele>260</ele>
        <time>2014-06-25T12:31:48Z</time>
      </trkpt>
      <trkpt lat="43.39558" lon="6.10018">
        <ele>260</ele>
        <time>2014-06-25T12:31:52Z</time>
      </trkpt>
      <trkpt lat="43.39556" lon="6.10031">
        <ele>260</ele>
        <time>2014-06-25T12:31:56Z</time>
      </trkpt>
      <trkpt lat="43.39555" lon="6.10034">
        <ele>260</ele>
        <time>2014-06-25T12:31:57Z</time>
      </trkpt>
      <trkpt lat="43.3955" lon="6.10056">
        <ele>260</ele>
        <time>2014-06-25T12:32:03Z</time>
      </trkpt>
      <trkpt lat="43.39541" lon="6.10087">
        <ele>260</ele>
        <time>2014-06-25T12:32:11Z</time>
      </trkpt>
      <trkpt lat="43.39539" lon="6.10092">
        <ele>260</ele>
        <time>2014-06-25T12:32:12Z</time>
      </trkpt>
      <trkpt lat="43.39531" lon="6.10103">
        <ele>260</ele>
        <time>2014-06-25T12:32:15Z</time>
      </trkpt>
      <trkpt lat="43.39526" lon="6.10112">
        <ele>260.15649414062</ele>
        <time>2014-06-25T12:32:17Z</time>
      </trkpt>
      <trkpt lat="43.39523" lon="6.10122">
        <ele>260.37622070312</ele>
        <time>2014-06-25T12:32:19Z</time>
      </trkpt>
      <trkpt lat="43.39519" lon="6.10136">
        <ele>260.65087890625</ele>
        <time>2014-06-25T12:32:22Z</time>
      </trkpt>
      <trkpt lat="43.3951" lon="6.10168">
        <ele>260</ele>
        <time>2014-06-25T12:32:29Z</time>
      </trkpt>
      <trkpt lat="43.39502" lon="6.10202">
        <ele>260</ele>
        <time>2014-06-25T12:32:36Z</time>
      </trkpt>
      <trkpt lat="43.39496" lon="6.10219">
        <ele>260.92755126953</ele>
        <time>2014-06-25T12:32:40Z</time>
      </trkpt>
      <trkpt lat="43.39494" lon="6.10228">
        <ele>261.39086914062</ele>
        <time>2014-06-25T12:32:42Z</time>
      </trkpt>
      <trkpt lat="43.39481" lon="6.10251">
        <ele>264.05514526367</ele>
        <time>2014-06-25T12:32:48Z</time>
      </trkpt>
      <trkpt lat="43.39474" lon="6.1026">
        <ele>265.82751464844</ele>
        <time>2014-06-25T12:32:51Z</time>
      </trkpt>
      <trkpt lat="43.39465" lon="6.10269">
        <ele>268.42098999023</ele>
        <time>2014-06-25T12:32:55Z</time>
      </trkpt>
      <trkpt lat="43.39453" lon="6.1028">
        <ele>271.24301147461</ele>
        <time>2014-06-25T12:33:00Z</time>
      </trkpt>
      <trkpt lat="43.39446" lon="6.10286">
        <ele>272.90875244141</ele>
        <time>2014-06-25T12:33:03Z</time>
      </trkpt>
      <trkpt lat="43.39439" lon="6.10291">
        <ele>274.64511108398</ele>
        <time>2014-06-25T12:33:06Z</time>
      </trkpt>
      <trkpt lat="43.39427" lon="6.10299">
        <ele>276.73944091797</ele>
        <time>2014-06-25T12:33:11Z</time>
      </trkpt>
      <trkpt lat="43.39414" lon="6.10315">
        <ele>277.42987060547</ele>
        <time>2014-06-25T12:33:17Z</time>
      </trkpt>
      <trkpt lat="43.39402" lon="6.10337">
        <ele>276.11724853516</ele>
        <time>2014-06-25T12:33:24Z</time>
      </trkpt>
      <trkpt lat="43.39394" lon="6.10347">
        <ele>276.50518798828</ele>
        <time>2014-06-25T12:33:29Z</time>
      </trkpt>
      <trkpt lat="43.39386" lon="6.10366">
        <ele>277</ele>
        <time>2014-06-25T12:33:36Z</time>
      </trkpt>
      <trkpt lat="43.39374" lon="6.10384">
        <ele>277</ele>
        <time>2014-06-25T12:33:43Z</time>
      </trkpt>
      <trkpt lat="43.3937" lon="6.10395">
        <ele>277</ele>
        <time>2014-06-25T12:33:47Z</time>
      </trkpt>
      <trkpt lat="43.39369" lon="6.10403">
        <ele>277</ele>
        <time>2014-06-25T12:33:49Z</time>
      </trkpt>
      <trkpt lat="43.39368" lon="6.10412">
        <ele>277</ele>
        <time>2014-06-25T12:33:51Z</time>
      </trkpt>
      <trkpt lat="43.39364" lon="6.10418">
        <ele>277</ele>
        <time>2014-06-25T12:33:53Z</time>
      </trkpt>
      <trkpt lat="43.39351" lon="6.10421">
        <ele>276.61834716797</ele>
        <time>2014-06-25T12:33:58Z</time>
      </trkpt>
      <trkpt lat="43.39348" lon="6.10419">
        <ele>276.52221679688</ele>
        <time>2014-06-25T12:33:59Z</time>
      </trkpt>
      <trkpt lat="43.3934" lon="6.1042">
        <ele>276.24755859375</ele>
        <time>2014-06-25T12:34:02Z</time>
      </trkpt>
      <trkpt lat="43.3933" lon="6.10431">
        <ele>275.86303710938</ele>
        <time>2014-06-25T12:34:07Z</time>
      </trkpt>
      <trkpt lat="43.39318" lon="6.10452">
        <ele>275.71734619141</ele>
        <time>2014-06-25T12:34:14Z</time>
      </trkpt>
      <trkpt lat="43.39297" lon="6.10487">
        <ele>276.30426025391</ele>
        <time>2014-06-25T12:34:28Z</time>
      </trkpt>
      <trkpt lat="43.39296" lon="6.10489">
        <ele>276.35919189453</ele>
        <time>2014-06-25T12:34:29Z</time>
      </trkpt>
      <trkpt lat="43.39293" lon="6.10494">
        <ele>276.44158935547</ele>
        <time>2014-06-25T12:34:31Z</time>
      </trkpt>
      <trkpt lat="43.39288" lon="6.1051">
        <ele>276.63385009766</ele>
        <time>2014-06-25T12:34:37Z</time>
      </trkpt>
      <trkpt lat="43.3928" lon="6.10528">
        <ele>276.90850830078</ele>
        <time>2014-06-25T12:34:44Z</time>
      </trkpt>
      <trkpt lat="43.39273" lon="6.10544">
        <ele>277.44055175781</ele>
        <time>2014-06-25T12:34:51Z</time>
      </trkpt>
      <trkpt lat="43.3927" lon="6.10555">
        <ele>277.59411621094</ele>
        <time>2014-06-25T12:34:56Z</time>
      </trkpt>
      <trkpt lat="43.39269" lon="6.10557">
        <ele>277.61352539062</ele>
        <time>2014-06-25T12:34:57Z</time>
      </trkpt>
      <trkpt lat="43.39263" lon="6.10576">
        <ele>278.08044433594</ele>
        <time>2014-06-25T12:35:04Z</time>
      </trkpt>
      <trkpt lat="43.39245" lon="6.10599">
        <ele>278.60989379883</ele>
        <time>2014-06-25T12:35:12Z</time>
      </trkpt>
      <trkpt lat="43.39231" lon="6.10614">
        <ele>278.60549926758</ele>
        <time>2014-06-25T12:35:17Z</time>
      </trkpt>
      <trkpt lat="43.39222" lon="6.10624">
        <ele>278.52941894531</ele>
        <time>2014-06-25T12:35:20Z</time>
      </trkpt>
      <trkpt lat="43.39219" lon="6.10626">
        <ele>278.71737670898</ele>
        <time>2014-06-25T12:35:21Z</time>
      </trkpt>
      <trkpt lat="43.39208" lon="6.10635">
        <ele>279.13452148438</ele>
        <time>2014-06-25T12:35:25Z</time>
      </trkpt>
      <trkpt lat="43.39198" lon="6.10637">
        <ele>279.77825927734</ele>
        <time>2014-06-25T12:35:29Z</time>
      </trkpt>
      <trkpt lat="43.39195" lon="6.1064">
        <ele>279.90802001953</ele>
        <time>2014-06-25T12:35:31Z</time>
      </trkpt>
      <trkpt lat="43.39194" lon="6.10642">
        <ele>279.88314819336</ele>
        <time>2014-06-25T12:35:32Z</time>
      </trkpt>
      <trkpt lat="43.39194" lon="6.10646">
        <ele>279.75765991211</ele>
        <time>2014-06-25T12:35:35Z</time>
      </trkpt>
      <trkpt lat="43.39194" lon="6.10646">
        <ele>279.75592041016</ele>
        <time>2014-06-25T12:35:36Z</time>
      </trkpt>
      <trkpt lat="43.39194" lon="6.10647">
        <ele>279.77655029297</ele>
        <time>2014-06-25T12:35:44Z</time>
      </trkpt>
      <trkpt lat="43.39194" lon="6.10647">
        <ele>279.77655029297</ele>
        <time>2014-06-25T12:36:17Z</time>
      </trkpt>
      <trkpt lat="43.39194" lon="6.10647">
        <ele>279.77655029297</ele>
        <time>2014-06-25T12:36:51Z</time>
      </trkpt>
      <trkpt lat="43.39194" lon="6.10647">
        <ele>279.76794433594</ele>
        <time>2014-06-25T12:37:03Z</time>
      </trkpt>
      <trkpt lat="43.39194" lon="6.10647">
        <ele>279.76794433594</ele>
        <time>2014-06-25T12:37:04Z</time>
      </trkpt>
      <trkpt lat="43.39191" lon="6.10652">
        <ele>279.73361206055</ele>
        <time>2014-06-25T12:37:08Z</time>
      </trkpt>
      <trkpt lat="43.3919" lon="6.10655">
        <ele>279.72332763672</ele>
        <time>2014-06-25T12:37:09Z</time>
      </trkpt>
      <trkpt lat="43.39183" lon="6.10671">
        <ele>279.73831176758</ele>
        <time>2014-06-25T12:37:14Z</time>
      </trkpt>
      <trkpt lat="43.39183" lon="6.1068">
        <ele>279.6474609375</ele>
        <time>2014-06-25T12:37:17Z</time>
      </trkpt>
      <trkpt lat="43.39187" lon="6.10687">
        <ele>279.32601928711</ele>
        <time>2014-06-25T12:37:21Z</time>
      </trkpt>
      <trkpt lat="43.39191" lon="6.10694">
        <ele>279.12487792969</ele>
        <time>2014-06-25T12:37:24Z</time>
      </trkpt>
      <trkpt lat="43.39196" lon="6.10698">
        <ele>278.95156860352</ele>
        <time>2014-06-25T12:37:27Z</time>
      </trkpt>
      <trkpt lat="43.39201" lon="6.10703">
        <ele>278.84982299805</ele>
        <time>2014-06-25T12:37:29Z</time>
      </trkpt>
      <trkpt lat="43.39213" lon="6.10727">
        <ele>279</ele>
        <time>2014-06-25T12:37:35Z</time>
      </trkpt>
      <trkpt lat="43.39216" lon="6.10734">
        <ele>279</ele>
        <time>2014-06-25T12:37:37Z</time>
      </trkpt>
      <trkpt lat="43.39217" lon="6.10737">
        <ele>279</ele>
        <time>2014-06-25T12:37:38Z</time>
      </trkpt>
      <trkpt lat="43.39219" lon="6.10741">
        <ele>279</ele>
        <time>2014-06-25T12:37:39Z</time>
      </trkpt>
      <trkpt lat="43.39217" lon="6.10765">
        <ele>279</ele>
        <time>2014-06-25T12:37:44Z</time>
      </trkpt>
      <trkpt lat="43.3922" lon="6.10778">
        <ele>279</ele>
        <time>2014-06-25T12:37:48Z</time>
      </trkpt>
      <trkpt lat="43.39219" lon="6.10793">
        <ele>279</ele>
        <time>2014-06-25T12:37:51Z</time>
      </trkpt>
      <trkpt lat="43.39219" lon="6.10796">
        <ele>279</ele>
        <time>2014-06-25T12:37:52Z</time>
      </trkpt>
      <trkpt lat="43.39223" lon="6.10811">
        <ele>279</ele>
        <time>2014-06-25T12:37:56Z</time>
      </trkpt>
      <trkpt lat="43.39223" lon="6.1082">
        <ele>279</ele>
        <time>2014-06-25T12:38:00Z</time>
      </trkpt>
      <trkpt lat="43.39225" lon="6.10826">
        <ele>279</ele>
        <time>2014-06-25T12:38:02Z</time>
      </trkpt>
      <trkpt lat="43.39226" lon="6.10837">
        <ele>279.12753295898</ele>
        <time>2014-06-25T12:38:06Z</time>
      </trkpt>
      <trkpt lat="43.39229" lon="6.10846">
        <ele>279.35028076172</ele>
        <time>2014-06-25T12:38:09Z</time>
      </trkpt>
      <trkpt lat="43.39227" lon="6.10858">
        <ele>279.72476196289</ele>
        <time>2014-06-25T12:38:12Z</time>
      </trkpt>
      <trkpt lat="43.39228" lon="6.10878">
        <ele>279.91525268555</ele>
        <time>2014-06-25T12:38:17Z</time>
      </trkpt>
      <trkpt lat="43.3922" lon="6.10896">
        <ele>280.01889038086</ele>
        <time>2014-06-25T12:38:22Z</time>
      </trkpt>
      <trkpt lat="43.39211" lon="6.10911">
        <ele>280.33181762695</ele>
        <time>2014-06-25T12:38:27Z</time>
      </trkpt>
      <trkpt lat="43.39204" lon="6.1092">
        <ele>280.71368408203</ele>
        <time>2014-06-25T12:38:32Z</time>
      </trkpt>
      <trkpt lat="43.39202" lon="6.10923">
        <ele>280.77966308594</ele>
        <time>2014-06-25T12:38:33Z</time>
      </trkpt>
      <trkpt lat="43.39196" lon="6.10924">
        <ele>280.94747924805</ele>
        <time>2014-06-25T12:38:36Z</time>
      </trkpt>
      <trkpt lat="43.39191" lon="6.10928">
        <ele>280.92132568359</ele>
        <time>2014-06-25T12:38:41Z</time>
      </trkpt>
      <trkpt lat="43.39184" lon="6.10938">
        <ele>280.91848754883</ele>
        <time>2014-06-25T12:38:45Z</time>
      </trkpt>
      <trkpt lat="43.39182" lon="6.10945">
        <ele>281.01318359375</ele>
        <time>2014-06-25T12:38:47Z</time>
      </trkpt>
      <trkpt lat="43.39177" lon="6.10958">
        <ele>281.18264770508</ele>
        <time>2014-06-25T12:38:51Z</time>
      </trkpt>
      <trkpt lat="43.39168" lon="6.10966">
        <ele>281.03149414062</ele>
        <time>2014-06-25T12:38:56Z</time>
      </trkpt>
      <trkpt lat="43.39165" lon="6.10968">
        <ele>280.99334716797</ele>
        <time>2014-06-25T12:38:58Z</time>
      </trkpt>
      <trkpt lat="43.39163" lon="6.10972">
        <ele>280.99758911133</ele>
        <time>2014-06-25T12:39:00Z</time>
      </trkpt>
      <trkpt lat="43.39161" lon="6.10973">
        <ele>281.02328491211</ele>
        <time>2014-06-25T12:39:01Z</time>
      </trkpt>
      <trkpt lat="43.39153" lon="6.10985">
        <ele>281.23211669922</ele>
        <time>2014-06-25T12:39:06Z</time>
      </trkpt>
      <trkpt lat="43.3915" lon="6.10993">
        <ele>281.29876708984</ele>
        <time>2014-06-25T12:39:09Z</time>
      </trkpt>
      <trkpt lat="43.3915" lon="6.10997">
        <ele>281.349609375</ele>
        <time>2014-06-25T12:39:10Z</time>
      </trkpt>
      <trkpt lat="43.3915" lon="6.11001">
        <ele>281.41592407227</ele>
        <time>2014-06-25T12:39:11Z</time>
      </trkpt>
      <trkpt lat="43.39152" lon="6.11009">
        <ele>281.78842163086</ele>
        <time>2014-06-25T12:39:13Z</time>
      </trkpt>
      <trkpt lat="43.39153" lon="6.11026">
        <ele>282.45104980469</ele>
        <time>2014-06-25T12:39:17Z</time>
      </trkpt>
      <trkpt lat="43.39153" lon="6.1103">
        <ele>282.5393371582</ele>
        <time>2014-06-25T12:39:18Z</time>
      </trkpt>
      <trkpt lat="43.39149" lon="6.11044">
        <ele>282.72393798828</ele>
        <time>2014-06-25T12:39:23Z</time>
      </trkpt>
      <trkpt lat="43.39145" lon="6.1106">
        <ele>283.03311157227</ele>
        <time>2014-06-25T12:39:29Z</time>
      </trkpt>
      <trkpt lat="43.39146" lon="6.11078">
        <ele>283.20651245117</ele>
        <time>2014-06-25T12:39:35Z</time>
      </trkpt>
      <trkpt lat="43.39143" lon="6.11098">
        <ele>283.59875488281</ele>
        <time>2014-06-25T12:39:42Z</time>
      </trkpt>
      <trkpt lat="43.39142" lon="6.1112">
        <ele>284.03964233398</ele>
        <time>2014-06-25T12:39:49Z</time>
      </trkpt>
      <trkpt lat="43.3914" lon="6.11145">
        <ele>284.27713012695</ele>
        <time>2014-06-25T12:39:56Z</time>
      </trkpt>
      <trkpt lat="43.39138" lon="6.11161">
        <ele>284.80264282227</ele>
        <time>2014-06-25T12:40:02Z</time>
      </trkpt>
      <trkpt lat="43.39136" lon="6.11163">
        <ele>284.88330078125</ele>
        <time>2014-06-25T12:40:04Z</time>
      </trkpt>
      <trkpt lat="43.39135" lon="6.11164">
        <ele>284.91076660156</ele>
        <time>2014-06-25T12:40:05Z</time>
      </trkpt>
      <trkpt lat="43.39133" lon="6.11165">
        <ele>284.95025634766</ele>
        <time>2014-06-25T12:40:06Z</time>
      </trkpt>
      <trkpt lat="43.39132" lon="6.11166">
        <ele>284.9931640625</ele>
        <time>2014-06-25T12:40:07Z</time>
      </trkpt>
      <trkpt lat="43.39127" lon="6.11168">
        <ele>285</ele>
        <time>2014-06-25T12:40:10Z</time>
      </trkpt>
      <trkpt lat="43.39123" lon="6.11169">
        <ele>285</ele>
        <time>2014-06-25T12:40:13Z</time>
      </trkpt>
      <trkpt lat="43.39122" lon="6.11169">
        <ele>285</ele>
        <time>2014-06-25T12:40:14Z</time>
      </trkpt>
      <trkpt lat="43.39121" lon="6.11169">
        <ele>285</ele>
        <time>2014-06-25T12:40:15Z</time>
      </trkpt>
      <trkpt lat="43.39121" lon="6.11169">
        <ele>285</ele>
        <time>2014-06-25T12:40:16Z</time>
      </trkpt>
      <trkpt lat="43.39121" lon="6.11169">
        <ele>285</ele>
        <time>2014-06-25T12:40:28Z</time>
      </trkpt>
      <trkpt lat="43.39121" lon="6.11169">
        <ele>285</ele>
        <time>2014-06-25T12:40:30Z</time>
      </trkpt>
      <trkpt lat="43.39121" lon="6.11169">
        <ele>285</ele>
        <time>2014-06-25T12:40:36Z</time>
      </trkpt>
      <trkpt lat="43.39121" lon="6.11169">
        <ele>285</ele>
        <time>2014-06-25T12:40:37Z</time>
      </trkpt>
      <trkpt lat="43.3912" lon="6.1117">
        <ele>285</ele>
        <time>2014-06-25T12:40:41Z</time>
      </trkpt>
      <trkpt lat="43.39118" lon="6.1117">
        <ele>285</ele>
        <time>2014-06-25T12:40:43Z</time>
      </trkpt>
      <trkpt lat="43.39117" lon="6.1117">
        <ele>285</ele>
        <time>2014-06-25T12:40:46Z</time>
      </trkpt>
      <trkpt lat="43.39116" lon="6.11169">
        <ele>285</ele>
        <time>2014-06-25T12:40:47Z</time>
      </trkpt>
      <trkpt lat="43.39115" lon="6.11169">
        <ele>285</ele>
        <time>2014-06-25T12:40:48Z</time>
      </trkpt>
      <trkpt lat="43.39114" lon="6.11169">
        <ele>285</ele>
        <time>2014-06-25T12:40:49Z</time>
      </trkpt>
      <trkpt lat="43.39113" lon="6.11171">
        <ele>285</ele>
        <time>2014-06-25T12:40:55Z</time>
      </trkpt>
      <trkpt lat="43.39112" lon="6.11172">
        <ele>285</ele>
        <time>2014-06-25T12:41:00Z</time>
      </trkpt>
      <trkpt lat="43.39111" lon="6.1118">
        <ele>285</ele>
        <time>2014-06-25T12:41:06Z</time>
      </trkpt>
      <trkpt lat="43.3911" lon="6.11195">
        <ele>285.00576782227</ele>
        <time>2014-06-25T12:41:12Z</time>
      </trkpt>
      <trkpt lat="43.39109" lon="6.11204">
        <ele>285.31530761719</ele>
        <time>2014-06-25T12:41:16Z</time>
      </trkpt>
      <trkpt lat="43.39108" lon="6.11211">
        <ele>285.54794311523</ele>
        <time>2014-06-25T12:41:19Z</time>
      </trkpt>
      <trkpt lat="43.39108" lon="6.11224">
        <ele>285.87646484375</ele>
        <time>2014-06-25T12:41:23Z</time>
      </trkpt>
      <trkpt lat="43.39103" lon="6.11243">
        <ele>285.92697143555</ele>
        <time>2014-06-25T12:41:29Z</time>
      </trkpt>
      <trkpt lat="43.39102" lon="6.11257">
        <ele>286.17041015625</ele>
        <time>2014-06-25T12:41:33Z</time>
      </trkpt>
      <trkpt lat="43.39101" lon="6.11267">
        <ele>286.38317871094</ele>
        <time>2014-06-25T12:41:35Z</time>
      </trkpt>
      <trkpt lat="43.39096" lon="6.1128">
        <ele>286.51104736328</ele>
        <time>2014-06-25T12:41:39Z</time>
      </trkpt>
      <trkpt lat="43.39095" lon="6.11284">
        <ele>286.55395507812</ele>
        <time>2014-06-25T12:41:40Z</time>
      </trkpt>
      <trkpt lat="43.39087" lon="6.11297">
        <ele>286.72384643555</ele>
        <time>2014-06-25T12:41:46Z</time>
      </trkpt>
      <trkpt lat="43.39085" lon="6.11297">
        <ele>286.71899414062</ele>
        <time>2014-06-25T12:41:51Z</time>
      </trkpt>
      <trkpt lat="43.39085" lon="6.11297">
        <ele>286.71899414062</ele>
        <time>2014-06-25T12:42:15Z</time>
      </trkpt>
      <trkpt lat="43.39085" lon="6.11297">
        <ele>286.71899414062</ele>
        <time>2014-06-25T12:42:26Z</time>
      </trkpt>
      <trkpt lat="43.39085" lon="6.11298">
        <ele>286.73043823242</ele>
        <time>2014-06-25T12:42:32Z</time>
      </trkpt>
      <trkpt lat="43.39085" lon="6.11298">
        <ele>286.73043823242</ele>
        <time>2014-06-25T12:42:58Z</time>
      </trkpt>
      <trkpt lat="43.39085" lon="6.11298">
        <ele>286.73043823242</ele>
        <time>2014-06-25T12:43:06Z</time>
      </trkpt>
      <trkpt lat="43.39084" lon="6.11298">
        <ele>286.75146484375</ele>
        <time>2014-06-25T12:43:13Z</time>
      </trkpt>
      <trkpt lat="43.39084" lon="6.11298">
        <ele>286.75146484375</ele>
        <time>2014-06-25T12:43:42Z</time>
      </trkpt>
      <trkpt lat="43.39084" lon="6.11299">
        <ele>286.76815795898</ele>
        <time>2014-06-25T12:43:56Z</time>
      </trkpt>
      <trkpt lat="43.39084" lon="6.11299">
        <ele>286.76815795898</ele>
        <time>2014-06-25T12:44:12Z</time>
      </trkpt>
      <trkpt lat="43.39083" lon="6.113">
        <ele>286.79733276367</ele>
        <time>2014-06-25T12:44:36Z</time>
      </trkpt>
      <trkpt lat="43.39083" lon="6.113">
        <ele>286.79733276367</ele>
        <time>2014-06-25T12:44:50Z</time>
      </trkpt>
      <trkpt lat="43.39083" lon="6.11299">
        <ele>286.77911376953</ele>
        <time>2014-06-25T12:45:15Z</time>
      </trkpt>
      <trkpt lat="43.3908" lon="6.11298">
        <ele>286.73791503906</ele>
        <time>2014-06-25T12:45:23Z</time>
      </trkpt>
      <trkpt lat="43.39079" lon="6.11298">
        <ele>286.71215820312</ele>
        <time>2014-06-25T12:45:24Z</time>
      </trkpt>
      <trkpt lat="43.39075" lon="6.1129">
        <ele>286.44952392578</ele>
        <time>2014-06-25T12:45:29Z</time>
      </trkpt>
      <trkpt lat="43.39071" lon="6.11283">
        <ele>286.19030761719</ele>
        <time>2014-06-25T12:45:32Z</time>
      </trkpt>
      <trkpt lat="43.39069" lon="6.1128">
        <ele>286.08731079102</ele>
        <time>2014-06-25T12:45:33Z</time>
      </trkpt>
      <trkpt lat="43.39067" lon="6.11274">
        <ele>286</ele>
        <time>2014-06-25T12:45:35Z</time>
      </trkpt>
      <trkpt lat="43.39059" lon="6.11257">
        <ele>286</ele>
        <time>2014-06-25T12:45:41Z</time>
      </trkpt>
      <trkpt lat="43.39058" lon="6.11255">
        <ele>286</ele>
        <time>2014-06-25T12:45:42Z</time>
      </trkpt>
      <trkpt lat="43.39043" lon="6.11238">
        <ele>285.9875793457</ele>
        <time>2014-06-25T12:45:48Z</time>
      </trkpt>
      <trkpt lat="43.39035" lon="6.11219">
        <ele>285.75250244141</ele>
        <time>2014-06-25T12:45:52Z</time>
      </trkpt>
      <trkpt lat="43.39031" lon="6.1121">
        <ele>285.88983154297</ele>
        <time>2014-06-25T12:45:54Z</time>
      </trkpt>
      <trkpt lat="43.39028" lon="6.11207">
        <ele>285.99969482422</ele>
        <time>2014-06-25T12:45:55Z</time>
      </trkpt>
      <trkpt lat="43.39008" lon="6.1119">
        <ele>288.0969543457</ele>
        <time>2014-06-25T12:46:01Z</time>
      </trkpt>
      <trkpt lat="43.39" lon="6.11188">
        <ele>289.02816772461</ele>
        <time>2014-06-25T12:46:04Z</time>
      </trkpt>
      <trkpt lat="43.38997" lon="6.11189">
        <ele>289.22470092773</ele>
        <time>2014-06-25T12:46:05Z</time>
      </trkpt>
      <trkpt lat="43.38988" lon="6.1119">
        <ele>289.76330566406</ele>
        <time>2014-06-25T12:46:07Z</time>
      </trkpt>
      <trkpt lat="43.3898" lon="6.11191">
        <ele>290.32855224609</ele>
        <time>2014-06-25T12:46:09Z</time>
      </trkpt>
      <trkpt lat="43.38977" lon="6.11192">
        <ele>290.60409545898</ele>
        <time>2014-06-25T12:46:10Z</time>
      </trkpt>
      <trkpt lat="43.38969" lon="6.11191">
        <ele>290.99523925781</ele>
        <time>2014-06-25T12:46:12Z</time>
      </trkpt>
      <trkpt lat="43.38965" lon="6.11191">
        <ele>291.12396240234</ele>
        <time>2014-06-25T12:46:13Z</time>
      </trkpt>
      <trkpt lat="43.38961" lon="6.11191">
        <ele>291.26303100586</ele>
        <time>2014-06-25T12:46:14Z</time>
      </trkpt>
      <trkpt lat="43.38958" lon="6.11191">
        <ele>291.41235351562</ele>
        <time>2014-06-25T12:46:15Z</time>
      </trkpt>
      <trkpt lat="43.38953" lon="6.11192">
        <ele>291.61492919922</ele>
        <time>2014-06-25T12:46:16Z</time>
      </trkpt>
      <trkpt lat="43.38948" lon="6.11192">
        <ele>291.77630615234</ele>
        <time>2014-06-25T12:46:17Z</time>
      </trkpt>
      <trkpt lat="43.38944" lon="6.11191">
        <ele>291.90161132812</ele>
        <time>2014-06-25T12:46:18Z</time>
      </trkpt>
      <trkpt lat="43.3894" lon="6.1119">
        <ele>292.01318359375</ele>
        <time>2014-06-25T12:46:19Z</time>
      </trkpt>
      <trkpt lat="43.38932" lon="6.11188">
        <ele>292.19342041016</ele>
        <time>2014-06-25T12:46:21Z</time>
      </trkpt>
      <trkpt lat="43.38925" lon="6.11185">
        <ele>292.34106445312</ele>
        <time>2014-06-25T12:46:23Z</time>
      </trkpt>
      <trkpt lat="43.38919" lon="6.11182">
        <ele>292.49383544922</ele>
        <time>2014-06-25T12:46:25Z</time>
      </trkpt>
      <trkpt lat="43.38913" lon="6.1118">
        <ele>292.63116455078</ele>
        <time>2014-06-25T12:46:27Z</time>
      </trkpt>
      <trkpt lat="43.38911" lon="6.1118">
        <ele>292.70498657227</ele>
        <time>2014-06-25T12:46:28Z</time>
      </trkpt>
      <trkpt lat="43.38895" lon="6.11179">
        <ele>293.19250488281</ele>
        <time>2014-06-25T12:46:35Z</time>
      </trkpt>
      <trkpt lat="43.38881" lon="6.11177">
        <ele>293.55142211914</ele>
        <time>2014-06-25T12:46:41Z</time>
      </trkpt>
      <trkpt lat="43.38868" lon="6.11174">
        <ele>293.83178710938</ele>
        <time>2014-06-25T12:46:47Z</time>
      </trkpt>
      <trkpt lat="43.38852" lon="6.11172">
        <ele>294.33056640625</ele>
        <time>2014-06-25T12:46:53Z</time>
      </trkpt>
      <trkpt lat="43.3884" lon="6.11166">
        <ele>294.77001953125</ele>
        <time>2014-06-25T12:46:58Z</time>
      </trkpt>
      <trkpt lat="43.38827" lon="6.11158">
        <ele>295.23693847656</ele>
        <time>2014-06-25T12:47:03Z</time>
      </trkpt>
      <trkpt lat="43.38824" lon="6.11156">
        <ele>295.3193359375</ele>
        <time>2014-06-25T12:47:04Z</time>
      </trkpt>
      <trkpt lat="43.38817" lon="6.1115">
        <ele>295.58026123047</ele>
        <time>2014-06-25T12:47:07Z</time>
      </trkpt>
      <trkpt lat="43.38783" lon="6.11124">
        <ele>297.65991210938</ele>
        <time>2014-06-25T12:47:21Z</time>
      </trkpt>
      <trkpt lat="43.38763" lon="6.11118">
        <ele>298.53033447266</ele>
        <time>2014-06-25T12:47:28Z</time>
      </trkpt>
      <trkpt lat="43.38749" lon="6.11115">
        <ele>299</ele>
        <time>2014-06-25T12:47:33Z</time>
      </trkpt>
      <trkpt lat="43.38743" lon="6.11114">
        <ele>299</ele>
        <time>2014-06-25T12:47:35Z</time>
      </trkpt>
      <trkpt lat="43.38737" lon="6.11112">
        <ele>299</ele>
        <time>2014-06-25T12:47:37Z</time>
      </trkpt>
      <trkpt lat="43.38731" lon="6.1111">
        <ele>299</ele>
        <time>2014-06-25T12:47:39Z</time>
      </trkpt>
      <trkpt lat="43.38728" lon="6.11108">
        <ele>299</ele>
        <time>2014-06-25T12:47:40Z</time>
      </trkpt>
      <trkpt lat="43.38726" lon="6.11107">
        <ele>299</ele>
        <time>2014-06-25T12:47:41Z</time>
      </trkpt>
      <trkpt lat="43.38723" lon="6.11107">
        <ele>299</ele>
        <time>2014-06-25T12:47:42Z</time>
      </trkpt>
      <trkpt lat="43.38721" lon="6.11106">
        <ele>299</ele>
        <time>2014-06-25T12:47:43Z</time>
      </trkpt>
      <trkpt lat="43.38713" lon="6.11104">
        <ele>299</ele>
        <time>2014-06-25T12:47:47Z</time>
      </trkpt>
      <trkpt lat="43.38712" lon="6.11103">
        <ele>299</ele>
        <time>2014-06-25T12:47:48Z</time>
      </trkpt>
      <trkpt lat="43.38712" lon="6.11102">
        <ele>299</ele>
        <time>2014-06-25T12:47:50Z</time>
      </trkpt>
      <trkpt lat="43.38712" lon="6.11102">
        <ele>299</ele>
        <time>2014-06-25T12:47:54Z</time>
      </trkpt>
      <trkpt lat="43.38712" lon="6.11102">
        <ele>299</ele>
        <time>2014-06-25T12:48:08Z</time>
      </trkpt>
      <trkpt lat="43.38712" lon="6.11102">
        <ele>299</ele>
        <time>2014-06-25T12:48:25Z</time>
      </trkpt>
      <trkpt lat="43.38712" lon="6.11102">
        <ele>299</ele>
        <time>2014-06-25T12:48:35Z</time>
      </trkpt>
      <trkpt lat="43.3871" lon="6.11098">
        <ele>299</ele>
        <time>2014-06-25T12:48:45Z</time>
      </trkpt>
      <trkpt lat="43.38709" lon="6.11093">
        <ele>299</ele>
        <time>2014-06-25T12:48:48Z</time>
      </trkpt>
      <trkpt lat="43.38709" lon="6.11087">
        <ele>299</ele>
        <time>2014-06-25T12:48:51Z</time>
      </trkpt>
      <trkpt lat="43.38711" lon="6.11077">
        <ele>299</ele>
        <time>2014-06-25T12:48:57Z</time>
      </trkpt>
      <trkpt lat="43.3871" lon="6.11069">
        <ele>299</ele>
        <time>2014-06-25T12:49:03Z</time>
      </trkpt>
      <trkpt lat="43.38706" lon="6.11065">
        <ele>299</ele>
        <time>2014-06-25T12:49:07Z</time>
      </trkpt>
      <trkpt lat="43.38702" lon="6.11065">
        <ele>299</ele>
        <time>2014-06-25T12:49:10Z</time>
      </trkpt>
      <trkpt lat="43.387" lon="6.11065">
        <ele>299</ele>
        <time>2014-06-25T12:49:12Z</time>
      </trkpt>
      <trkpt lat="43.38694" lon="6.11061">
        <ele>299</ele>
        <time>2014-06-25T12:49:16Z</time>
      </trkpt>
      <trkpt lat="43.38688" lon="6.11055">
        <ele>299</ele>
        <time>2014-06-25T12:49:19Z</time>
      </trkpt>
      <trkpt lat="43.38681" lon="6.11048">
        <ele>299</ele>
        <time>2014-06-25T12:49:23Z</time>
      </trkpt>
      <trkpt lat="43.3868" lon="6.11047">
        <ele>299</ele>
        <time>2014-06-25T12:49:24Z</time>
      </trkpt>
      <trkpt lat="43.38673" lon="6.11041">
        <ele>299</ele>
        <time>2014-06-25T12:49:28Z</time>
      </trkpt>
      <trkpt lat="43.38667" lon="6.11038">
        <ele>298.99523925781</ele>
        <time>2014-06-25T12:49:33Z</time>
      </trkpt>
      <trkpt lat="43.38663" lon="6.11035">
        <ele>298.88537597656</ele>
        <time>2014-06-25T12:49:37Z</time>
      </trkpt>
      <trkpt lat="43.38662" lon="6.11035">
        <ele>298.84417724609</ele>
        <time>2014-06-25T12:49:39Z</time>
      </trkpt>
      <trkpt lat="43.38662" lon="6.11035">
        <ele>298.84417724609</ele>
        <time>2014-06-25T12:49:50Z</time>
      </trkpt>
      <trkpt lat="43.38662" lon="6.11035">
        <ele>298.84417724609</ele>
        <time>2014-06-25T12:50:09Z</time>
      </trkpt>
      <trkpt lat="43.38661" lon="6.11033">
        <ele>298.80297851562</ele>
        <time>2014-06-25T12:50:12Z</time>
      </trkpt>
      <trkpt lat="43.38657" lon="6.11028">
        <ele>298.65191650391</ele>
        <time>2014-06-25T12:50:15Z</time>
      </trkpt>
      <trkpt lat="43.38654" lon="6.11027">
        <ele>298.55578613281</ele>
        <time>2014-06-25T12:50:16Z</time>
      </trkpt>
      <trkpt lat="43.38649" lon="6.11021">
        <ele>298.36352539062</ele>
        <time>2014-06-25T12:50:18Z</time>
      </trkpt>
      <trkpt lat="43.38643" lon="6.11017">
        <ele>298.14379882812</ele>
        <time>2014-06-25T12:50:20Z</time>
      </trkpt>
      <trkpt lat="43.3864" lon="6.11015">
        <ele>298.04766845703</ele>
        <time>2014-06-25T12:50:21Z</time>
      </trkpt>
      <trkpt lat="43.38638" lon="6.11013">
        <ele>297.92489624023</ele>
        <time>2014-06-25T12:50:22Z</time>
      </trkpt>
      <trkpt lat="43.38631" lon="6.11007">
        <ele>297.48495483398</ele>
        <time>2014-06-25T12:50:25Z</time>
      </trkpt>
      <trkpt lat="43.38625" lon="6.11001">
        <ele>296.98010253906</ele>
        <time>2014-06-25T12:50:28Z</time>
      </trkpt>
      <trkpt lat="43.3862" lon="6.10996">
        <ele>296.50967407227</ele>
        <time>2014-06-25T12:50:30Z</time>
      </trkpt>
      <trkpt lat="43.38613" lon="6.10992">
        <ele>295.81787109375</ele>
        <time>2014-06-25T12:50:33Z</time>
      </trkpt>
      <trkpt lat="43.38607" lon="6.10989">
        <ele>295.47058105469</ele>
        <time>2014-06-25T12:50:35Z</time>
      </trkpt>
      <trkpt lat="43.38605" lon="6.10988">
        <ele>295.35040283203</ele>
        <time>2014-06-25T12:50:36Z</time>
      </trkpt>
      <trkpt lat="43.38591" lon="6.10987">
        <ele>294.82684326172</ele>
        <time>2014-06-25T12:50:40Z</time>
      </trkpt>
      <trkpt lat="43.38568" lon="6.10988">
        <ele>292.93807983398</ele>
        <time>2014-06-25T12:50:45Z</time>
      </trkpt>
      <trkpt lat="43.38562" lon="6.10988">
        <ele>292.29949951172</ele>
        <time>2014-06-25T12:50:46Z</time>
      </trkpt>
      <trkpt lat="43.3854" lon="6.1098">
        <ele>290.16677856445</ele>
        <time>2014-06-25T12:50:50Z</time>
      </trkpt>
      <trkpt lat="43.38535" lon="6.10977">
        <ele>289.70330810547</ele>
        <time>2014-06-25T12:50:51Z</time>
      </trkpt>
      <trkpt lat="43.3853" lon="6.10975">
        <ele>289.30160522461</ele>
        <time>2014-06-25T12:50:52Z</time>
      </trkpt>
      <trkpt lat="43.38525" lon="6.10974">
        <ele>288.87933349609</ele>
        <time>2014-06-25T12:50:53Z</time>
      </trkpt>
      <trkpt lat="43.3852" lon="6.10972">
        <ele>288.43472290039</ele>
        <time>2014-06-25T12:50:54Z</time>
      </trkpt>
      <trkpt lat="43.38488" lon="6.10964">
        <ele>286.28811645508</ele>
        <time>2014-06-25T12:50:59Z</time>
      </trkpt>
      <trkpt lat="43.38484" lon="6.10963">
        <ele>286.09759521484</ele>
        <time>2014-06-25T12:51:00Z</time>
      </trkpt>
      <trkpt lat="43.38482" lon="6.10962">
        <ele>285.97399902344</ele>
        <time>2014-06-25T12:51:01Z</time>
      </trkpt>
      <trkpt lat="43.3848" lon="6.10962">
        <ele>285.88128662109</ele>
        <time>2014-06-25T12:51:02Z</time>
      </trkpt>
      <trkpt lat="43.38475" lon="6.1096">
        <ele>285.65298461914</ele>
        <time>2014-06-25T12:51:04Z</time>
      </trkpt>
      <trkpt lat="43.38462" lon="6.10959">
        <ele>284.94778442383</ele>
        <time>2014-06-25T12:51:08Z</time>
      </trkpt>
      <trkpt lat="43.38439" lon="6.10956">
        <ele>283.5944519043</ele>
        <time>2014-06-25T12:51:14Z</time>
      </trkpt>
      <trkpt lat="43.38431" lon="6.10955">
        <ele>283.24084472656</ele>
        <time>2014-06-25T12:51:16Z</time>
      </trkpt>
      <trkpt lat="43.38419" lon="6.10952">
        <ele>282.59881591797</ele>
        <time>2014-06-25T12:51:19Z</time>
      </trkpt>
      <trkpt lat="43.38414" lon="6.1095">
        <ele>282.48834228516</ele>
        <time>2014-06-25T12:51:20Z</time>
      </trkpt>
      <trkpt lat="43.38402" lon="6.10947">
        <ele>282.68212890625</ele>
        <time>2014-06-25T12:51:23Z</time>
      </trkpt>
      <trkpt lat="43.38382" lon="6.10943">
        <ele>283.05914306641</ele>
        <time>2014-06-25T12:51:27Z</time>
      </trkpt>
      <trkpt lat="43.38371" lon="6.10939">
        <ele>283.08486938477</ele>
        <time>2014-06-25T12:51:29Z</time>
      </trkpt>
      <trkpt lat="43.38361" lon="6.10937">
        <ele>283.16900634766</ele>
        <time>2014-06-25T12:51:31Z</time>
      </trkpt>
      <trkpt lat="43.3835" lon="6.10934">
        <ele>283.29260253906</ele>
        <time>2014-06-25T12:51:34Z</time>
      </trkpt>
      <trkpt lat="43.38335" lon="6.1093">
        <ele>283.35781860352</ele>
        <time>2014-06-25T12:51:37Z</time>
      </trkpt>
      <trkpt lat="43.38324" lon="6.10927">
        <ele>283.00588989258</ele>
        <time>2014-06-25T12:51:39Z</time>
      </trkpt>
      <trkpt lat="43.38308" lon="6.1092">
        <ele>282.2790222168</ele>
        <time>2014-06-25T12:51:42Z</time>
      </trkpt>
      <trkpt lat="43.38268" lon="6.10909">
        <ele>280.35580444336</ele>
        <time>2014-06-25T12:51:49Z</time>
      </trkpt>
      <trkpt lat="43.38224" lon="6.10895">
        <ele>279.01751708984</ele>
        <time>2014-06-25T12:51:57Z</time>
      </trkpt>
      <trkpt lat="43.38215" lon="6.10892">
        <ele>279</ele>
        <time>2014-06-25T12:51:59Z</time>
      </trkpt>
      <trkpt lat="43.38204" lon="6.10889">
        <ele>279</ele>
        <time>2014-06-25T12:52:02Z</time>
      </trkpt>
      <trkpt lat="43.38199" lon="6.1089">
        <ele>279</ele>
        <time>2014-06-25T12:52:04Z</time>
      </trkpt>
      <trkpt lat="43.38197" lon="6.10893">
        <ele>279</ele>
        <time>2014-06-25T12:52:05Z</time>
      </trkpt>
      <trkpt lat="43.38195" lon="6.10914">
        <ele>279</ele>
        <time>2014-06-25T12:52:10Z</time>
      </trkpt>
      <trkpt lat="43.38188" lon="6.10951">
        <ele>279.18585205078</ele>
        <time>2014-06-25T12:52:18Z</time>
      </trkpt>
      <trkpt lat="43.38181" lon="6.10984">
        <ele>279.93350219727</ele>
        <time>2014-06-25T12:52:25Z</time>
      </trkpt>
      <trkpt lat="43.38178" lon="6.11002">
        <ele>280.47253417969</ele>
        <time>2014-06-25T12:52:29Z</time>
      </trkpt>
      <trkpt lat="43.38175" lon="6.11015">
        <ele>280.85018920898</ele>
        <time>2014-06-25T12:52:32Z</time>
      </trkpt>
      <trkpt lat="43.38169" lon="6.11044">
        <ele>281.67071533203</ele>
        <time>2014-06-25T12:52:38Z</time>
      </trkpt>
      <trkpt lat="43.38167" lon="6.11054">
        <ele>281.93850708008</ele>
        <time>2014-06-25T12:52:40Z</time>
      </trkpt>
      <trkpt lat="43.38164" lon="6.11064">
        <ele>282.6201171875</ele>
        <time>2014-06-25T12:52:42Z</time>
      </trkpt>
      <trkpt lat="43.38155" lon="6.11089">
        <ele>284.40881347656</ele>
        <time>2014-06-25T12:52:47Z</time>
      </trkpt>
      <trkpt lat="43.38152" lon="6.11097">
        <ele>285.08514404297</ele>
        <time>2014-06-25T12:52:49Z</time>
      </trkpt>
      <trkpt lat="43.38146" lon="6.11109">
        <ele>286.16146850586</ele>
        <time>2014-06-25T12:52:52Z</time>
      </trkpt>
      <trkpt lat="43.38137" lon="6.11121">
        <ele>287.07977294922</ele>
        <time>2014-06-25T12:52:56Z</time>
      </trkpt>
      <trkpt lat="43.38128" lon="6.11132">
        <ele>287.40936279297</ele>
        <time>2014-06-25T12:53:00Z</time>
      </trkpt>
      <trkpt lat="43.38124" lon="6.11136">
        <ele>287.54669189453</ele>
        <time>2014-06-25T12:53:02Z</time>
      </trkpt>
      <trkpt lat="43.38123" lon="6.11138">
        <ele>287.587890625</ele>
        <time>2014-06-25T12:53:03Z</time>
      </trkpt>
      <trkpt lat="43.38118" lon="6.1115">
        <ele>288.15191650391</ele>
        <time>2014-06-25T12:53:09Z</time>
      </trkpt>
      <trkpt lat="43.38119" lon="6.11153">
        <ele>288.22915649414</ele>
        <time>2014-06-25T12:53:10Z</time>
      </trkpt>
      <trkpt lat="43.3812" lon="6.11175">
        <ele>288.97760009766</ele>
        <time>2014-06-25T12:53:17Z</time>
      </trkpt>
      <trkpt lat="43.3812" lon="6.11193">
        <ele>289.62475585938</ele>
        <time>2014-06-25T12:53:22Z</time>
      </trkpt>
      <trkpt lat="43.3812" lon="6.11201">
        <ele>289.91143798828</ele>
        <time>2014-06-25T12:53:24Z</time>
      </trkpt>
      <trkpt lat="43.3812" lon="6.11209">
        <ele>290.17922973633</ele>
        <time>2014-06-25T12:53:26Z</time>
      </trkpt>
      <trkpt lat="43.3812" lon="6.11229">
        <ele>290.68402099609</ele>
        <time>2014-06-25T12:53:31Z</time>
      </trkpt>
      <trkpt lat="43.38118" lon="6.11247">
        <ele>290.73895263672</ele>
        <time>2014-06-25T12:53:36Z</time>
      </trkpt>
      <trkpt lat="43.38118" lon="6.11269">
        <ele>291.46575927734</ele>
        <time>2014-06-25T12:53:41Z</time>
      </trkpt>
      <trkpt lat="43.38117" lon="6.11278">
        <ele>291.77819824219</ele>
        <time>2014-06-25T12:53:43Z</time>
      </trkpt>
      <trkpt lat="43.38116" lon="6.11297">
        <ele>292.49401855469</ele>
        <time>2014-06-25T12:53:48Z</time>
      </trkpt>
      <trkpt lat="43.38115" lon="6.11319">
        <ele>293.34545898438</ele>
        <time>2014-06-25T12:53:53Z</time>
      </trkpt>
      <trkpt lat="43.38113" lon="6.11344">
        <ele>293.94494628906</ele>
        <time>2014-06-25T12:53:58Z</time>
      </trkpt>
      <trkpt lat="43.38112" lon="6.11353">
        <ele>293.97241210938</ele>
        <time>2014-06-25T12:54:00Z</time>
      </trkpt>
      <trkpt lat="43.38111" lon="6.11357">
        <ele>293.98614501953</ele>
        <time>2014-06-25T12:54:01Z</time>
      </trkpt>
      <trkpt lat="43.3811" lon="6.11364">
        <ele>294.14617919922</ele>
        <time>2014-06-25T12:54:03Z</time>
      </trkpt>
      <trkpt lat="43.38108" lon="6.11381">
        <ele>294.84826660156</ele>
        <time>2014-06-25T12:54:08Z</time>
      </trkpt>
      <trkpt lat="43.38105" lon="6.11407">
        <ele>295.72512817383</ele>
        <time>2014-06-25T12:54:16Z</time>
      </trkpt>
      <trkpt lat="43.38103" lon="6.11413">
        <ele>295.90365600586</ele>
        <time>2014-06-25T12:54:18Z</time>
      </trkpt>
      <trkpt lat="43.38101" lon="6.11423">
        <ele>296.07669067383</ele>
        <time>2014-06-25T12:54:21Z</time>
      </trkpt>
      <trkpt lat="43.38092" lon="6.11464">
        <ele>297.39825439453</ele>
        <time>2014-06-25T12:54:33Z</time>
      </trkpt>
      <trkpt lat="43.38089" lon="6.11484">
        <ele>297.8830871582</ele>
        <time>2014-06-25T12:54:38Z</time>
      </trkpt>
      <trkpt lat="43.38088" lon="6.11488">
        <ele>297.92333984375</ele>
        <time>2014-06-25T12:54:39Z</time>
      </trkpt>
      <trkpt lat="43.38088" lon="6.11495">
        <ele>297.97225952148</ele>
        <time>2014-06-25T12:54:41Z</time>
      </trkpt>
      <trkpt lat="43.38086" lon="6.11519">
        <ele>298.69268798828</ele>
        <time>2014-06-25T12:54:48Z</time>
      </trkpt>
      <trkpt lat="43.38084" lon="6.11554">
        <ele>299.95953369141</ele>
        <time>2014-06-25T12:54:58Z</time>
      </trkpt>
      <trkpt lat="43.38082" lon="6.11572">
        <ele>300.6015625</ele>
        <time>2014-06-25T12:55:04Z</time>
      </trkpt>
      <trkpt lat="43.3808" lon="6.11614">
        <ele>302.20059204102</ele>
        <time>2014-06-25T12:55:16Z</time>
      </trkpt>
      <trkpt lat="43.38078" lon="6.11637">
        <ele>303.72793579102</ele>
        <time>2014-06-25T12:55:23Z</time>
      </trkpt>
      <trkpt lat="43.38078" lon="6.11656">
        <ele>304.41784667969</ele>
        <time>2014-06-25T12:55:29Z</time>
      </trkpt>
      <trkpt lat="43.38075" lon="6.1168">
        <ele>305.3186340332</ele>
        <time>2014-06-25T12:55:36Z</time>
      </trkpt>
      <trkpt lat="43.38073" lon="6.11698">
        <ele>306.13342285156</ele>
        <time>2014-06-25T12:55:42Z</time>
      </trkpt>
      <trkpt lat="43.38072" lon="6.11707">
        <ele>306.46472167969</ele>
        <time>2014-06-25T12:55:46Z</time>
      </trkpt>
      <trkpt lat="43.38071" lon="6.11712">
        <ele>306.62265014648</ele>
        <time>2014-06-25T12:55:48Z</time>
      </trkpt>
      <trkpt lat="43.38071" lon="6.11729">
        <ele>307.25610351562</ele>
        <time>2014-06-25T12:55:56Z</time>
      </trkpt>
      <trkpt lat="43.3807" lon="6.11743">
        <ele>307.74703979492</ele>
        <time>2014-06-25T12:56:01Z</time>
      </trkpt>
      <trkpt lat="43.38068" lon="6.11751">
        <ele>308.0412902832</ele>
        <time>2014-06-25T12:56:05Z</time>
      </trkpt>
      <trkpt lat="43.38068" lon="6.11756">
        <ele>308.31585693359</ele>
        <time>2014-06-25T12:56:07Z</time>
      </trkpt>
      <trkpt lat="43.3807" lon="6.11768">
        <ele>308.94717407227</ele>
        <time>2014-06-25T12:56:11Z</time>
      </trkpt>
      <trkpt lat="43.38073" lon="6.1178">
        <ele>309.45059204102</ele>
        <time>2014-06-25T12:56:15Z</time>
      </trkpt>
      <trkpt lat="43.38076" lon="6.11788">
        <ele>309.63940429688</ele>
        <time>2014-06-25T12:56:18Z</time>
      </trkpt>
      <trkpt lat="43.38078" lon="6.11806">
        <ele>310.19732666016</ele>
        <time>2014-06-25T12:56:24Z</time>
      </trkpt>
      <trkpt lat="43.38078" lon="6.11819">
        <ele>310.64706420898</ele>
        <time>2014-06-25T12:56:28Z</time>
      </trkpt>
      <trkpt lat="43.38078" lon="6.11825">
        <ele>310.88568115234</ele>
        <time>2014-06-25T12:56:30Z</time>
      </trkpt>
      <trkpt lat="43.38078" lon="6.11832">
        <ele>311.12771606445</ele>
        <time>2014-06-25T12:56:32Z</time>
      </trkpt>
      <trkpt lat="43.38079" lon="6.11845">
        <ele>311.65243530273</ele>
        <time>2014-06-25T12:56:37Z</time>
      </trkpt>
      <trkpt lat="43.38078" lon="6.11859">
        <ele>312.28573608398</ele>
        <time>2014-06-25T12:56:43Z</time>
      </trkpt>
      <trkpt lat="43.38078" lon="6.11863">
        <ele>312.44500732422</ele>
        <time>2014-06-25T12:56:45Z</time>
      </trkpt>
      <trkpt lat="43.38078" lon="6.11869">
        <ele>312.67504882812</ele>
        <time>2014-06-25T12:56:47Z</time>
      </trkpt>
      <trkpt lat="43.38078" lon="6.11876">
        <ele>312.95141601562</ele>
        <time>2014-06-25T12:56:51Z</time>
      </trkpt>
      <trkpt lat="43.38078" lon="6.11888">
        <ele>313.38229370117</ele>
        <time>2014-06-25T12:56:58Z</time>
      </trkpt>
      <trkpt lat="43.38076" lon="6.11903">
        <ele>313.9951171875</ele>
        <time>2014-06-25T12:57:05Z</time>
      </trkpt>
      <trkpt lat="43.38074" lon="6.11908">
        <ele>314.31097412109</ele>
        <time>2014-06-25T12:57:08Z</time>
      </trkpt>
      <trkpt lat="43.38075" lon="6.1191">
        <ele>314.35733032227</ele>
        <time>2014-06-25T12:57:10Z</time>
      </trkpt>
      <trkpt lat="43.38074" lon="6.11922">
        <ele>314.83969116211</ele>
        <time>2014-06-25T12:57:16Z</time>
      </trkpt>
      <trkpt lat="43.38074" lon="6.11929">
        <ele>315.1435546875</ele>
        <time>2014-06-25T12:57:21Z</time>
      </trkpt>
      <trkpt lat="43.38074" lon="6.11942">
        <ele>315.54522705078</ele>
        <time>2014-06-25T12:57:27Z</time>
      </trkpt>
      <trkpt lat="43.38074" lon="6.11953">
        <ele>315.97436523438</ele>
        <time>2014-06-25T12:57:32Z</time>
      </trkpt>
      <trkpt lat="43.38073" lon="6.11956">
        <ele>316.1305847168</ele>
        <time>2014-06-25T12:57:34Z</time>
      </trkpt>
      <trkpt lat="43.38073" lon="6.11958">
        <ele>316.23358154297</ele>
        <time>2014-06-25T12:57:35Z</time>
      </trkpt>
      <trkpt lat="43.38073" lon="6.11972">
        <ele>316.70565795898</ele>
        <time>2014-06-25T12:57:41Z</time>
      </trkpt>
      <trkpt lat="43.38073" lon="6.11975">
        <ele>316.83392333984</ele>
        <time>2014-06-25T12:57:42Z</time>
      </trkpt>
      <trkpt lat="43.38072" lon="6.1198">
        <ele>317.20822143555</ele>
        <time>2014-06-25T12:57:44Z</time>
      </trkpt>
      <trkpt lat="43.38069" lon="6.11994">
        <ele>318.22930908203</ele>
        <time>2014-06-25T12:57:50Z</time>
      </trkpt>
      <trkpt lat="43.38068" lon="6.11998">
        <ele>318.48916625977</ele>
        <time>2014-06-25T12:57:52Z</time>
      </trkpt>
      <trkpt lat="43.38066" lon="6.12008">
        <ele>319.12158203125</ele>
        <time>2014-06-25T12:57:56Z</time>
      </trkpt>
      <trkpt lat="43.38066" lon="6.12014">
        <ele>319.41171264648</ele>
        <time>2014-06-25T12:57:58Z</time>
      </trkpt>
      <trkpt lat="43.38066" lon="6.12021">
        <ele>319.57135009766</ele>
        <time>2014-06-25T12:58:01Z</time>
      </trkpt>
      <trkpt lat="43.38067" lon="6.12025">
        <ele>319.63659667969</ele>
        <time>2014-06-25T12:58:03Z</time>
      </trkpt>
      <trkpt lat="43.38066" lon="6.12031">
        <ele>319.92324829102</ele>
        <time>2014-06-25T12:58:05Z</time>
      </trkpt>
      <trkpt lat="43.38065" lon="6.1204">
        <ele>320.38845825195</ele>
        <time>2014-06-25T12:58:09Z</time>
      </trkpt>
      <trkpt lat="43.38065" lon="6.12043">
        <ele>320.48974609375</ele>
        <time>2014-06-25T12:58:10Z</time>
      </trkpt>
      <trkpt lat="43.38066" lon="6.12045">
        <ele>320.53607177734</ele>
        <time>2014-06-25T12:58:11Z</time>
      </trkpt>
      <trkpt lat="43.38066" lon="6.1205">
        <ele>320.66827392578</ele>
        <time>2014-06-25T12:58:13Z</time>
      </trkpt>
      <trkpt lat="43.38066" lon="6.12052">
        <ele>320.74722290039</ele>
        <time>2014-06-25T12:58:14Z</time>
      </trkpt>
      <trkpt lat="43.38066" lon="6.12055">
        <ele>320.87255859375</ele>
        <time>2014-06-25T12:58:15Z</time>
      </trkpt>
      <trkpt lat="43.38066" lon="6.12061">
        <ele>321.19869995117</ele>
        <time>2014-06-25T12:58:19Z</time>
      </trkpt>
      <trkpt lat="43.38066" lon="6.12061">
        <ele>321.22396850586</ele>
        <time>2014-06-25T12:58:20Z</time>
      </trkpt>
      <trkpt lat="43.38065" lon="6.12062">
        <ele>321.31594848633</ele>
        <time>2014-06-25T12:58:22Z</time>
      </trkpt>
      <trkpt lat="43.38065" lon="6.12066">
        <ele>321.63751220703</ele>
        <time>2014-06-25T12:58:25Z</time>
      </trkpt>
      <trkpt lat="43.38062" lon="6.12073">
        <ele>322.49444580078</ele>
        <time>2014-06-25T12:58:29Z</time>
      </trkpt>
      <trkpt lat="43.38062" lon="6.1208">
        <ele>322.92041015625</ele>
        <time>2014-06-25T12:58:32Z</time>
      </trkpt>
      <trkpt lat="43.38063" lon="6.12086">
        <ele>323.25164794922</ele>
        <time>2014-06-25T12:58:35Z</time>
      </trkpt>
      <trkpt lat="43.38061" lon="6.12093">
        <ele>324.1686706543</ele>
        <time>2014-06-25T12:58:38Z</time>
      </trkpt>
      <trkpt lat="43.38059" lon="6.12097">
        <ele>324.71099853516</ele>
        <time>2014-06-25T12:58:41Z</time>
      </trkpt>
      <trkpt lat="43.38055" lon="6.12107">
        <ele>325.75720214844</ele>
        <time>2014-06-25T12:58:46Z</time>
      </trkpt>
      <trkpt lat="43.38054" lon="6.12117">
        <ele>326.70819091797</ele>
        <time>2014-06-25T12:58:52Z</time>
      </trkpt>
      <trkpt lat="43.38052" lon="6.12122">
        <ele>327.37768554688</ele>
        <time>2014-06-25T12:58:55Z</time>
      </trkpt>
      <trkpt lat="43.3805" lon="6.12125">
        <ele>327.73474121094</ele>
        <time>2014-06-25T12:58:56Z</time>
      </trkpt>
      <trkpt lat="43.38049" lon="6.12126">
        <ele>328.00598144531</ele>
        <time>2014-06-25T12:58:58Z</time>
      </trkpt>
      <trkpt lat="43.38049" lon="6.12127">
        <ele>328.0299987793</ele>
        <time>2014-06-25T12:58:59Z</time>
      </trkpt>
      <trkpt lat="43.38046" lon="6.12134">
        <ele>328.96383666992</ele>
        <time>2014-06-25T12:59:02Z</time>
      </trkpt>
      <trkpt lat="43.38044" lon="6.12145">
        <ele>330.34713745117</ele>
        <time>2014-06-25T12:59:07Z</time>
      </trkpt>
      <trkpt lat="43.38043" lon="6.12151">
        <ele>331.11819458008</ele>
        <time>2014-06-25T12:59:09Z</time>
      </trkpt>
      <trkpt lat="43.38042" lon="6.12159">
        <ele>332.17163085938</ele>
        <time>2014-06-25T12:59:12Z</time>
      </trkpt>
      <trkpt lat="43.38039" lon="6.12186">
        <ele>334.86050415039</ele>
        <time>2014-06-25T12:59:22Z</time>
      </trkpt>
      <trkpt lat="43.38037" lon="6.1219">
        <ele>335.31491088867</ele>
        <time>2014-06-25T12:59:24Z</time>
      </trkpt>
      <trkpt lat="43.38036" lon="6.12197">
        <ele>335.84530639648</ele>
        <time>2014-06-25T12:59:27Z</time>
      </trkpt>
      <trkpt lat="43.38037" lon="6.12202">
        <ele>336.09783935547</ele>
        <time>2014-06-25T12:59:29Z</time>
      </trkpt>
      <trkpt lat="43.38039" lon="6.12216">
        <ele>336.85757446289</ele>
        <time>2014-06-25T12:59:33Z</time>
      </trkpt>
      <trkpt lat="43.38041" lon="6.12229">
        <ele>337.26913452148</ele>
        <time>2014-06-25T12:59:37Z</time>
      </trkpt>
      <trkpt lat="43.38044" lon="6.12246">
        <ele>337.83557128906</ele>
        <time>2014-06-25T12:59:43Z</time>
      </trkpt>
      <trkpt lat="43.38047" lon="6.1226">
        <ele>338.37231445312</ele>
        <time>2014-06-25T12:59:49Z</time>
      </trkpt>
      <trkpt lat="43.3805" lon="6.12267">
        <ele>338.60748291016</ele>
        <time>2014-06-25T12:59:52Z</time>
      </trkpt>
      <trkpt lat="43.3805" lon="6.12273">
        <ele>338.82720947266</ele>
        <time>2014-06-25T12:59:54Z</time>
      </trkpt>
      <trkpt lat="43.3805" lon="6.12279">
        <ele>339.05206298828</ele>
        <time>2014-06-25T12:59:56Z</time>
      </trkpt>
      <trkpt lat="43.38052" lon="6.12287">
        <ele>339.32846069336</ele>
        <time>2014-06-25T12:59:59Z</time>
      </trkpt>
      <trkpt lat="43.38055" lon="6.12293">
        <ele>339.54302978516</ele>
        <time>2014-06-25T13:00:01Z</time>
      </trkpt>
      <trkpt lat="43.38055" lon="6.12297">
        <ele>339.67864990234</ele>
        <time>2014-06-25T13:00:04Z</time>
      </trkpt>
      <trkpt lat="43.38057" lon="6.12306">
        <ele>340.34704589844</ele>
        <time>2014-06-25T13:00:08Z</time>
      </trkpt>
      <trkpt lat="43.38058" lon="6.12308">
        <ele>340.82769775391</ele>
        <time>2014-06-25T13:00:09Z</time>
      </trkpt>
      <trkpt lat="43.38056" lon="6.12319">
        <ele>341.56411743164</ele>
        <time>2014-06-25T13:00:13Z</time>
      </trkpt>
      <trkpt lat="43.38054" lon="6.1233">
        <ele>342.59448242188</ele>
        <time>2014-06-25T13:00:17Z</time>
      </trkpt>
      <trkpt lat="43.38053" lon="6.1234">
        <ele>343.27270507812</ele>
        <time>2014-06-25T13:00:21Z</time>
      </trkpt>
      <trkpt lat="43.38052" lon="6.12346">
        <ele>343.53872680664</ele>
        <time>2014-06-25T13:00:24Z</time>
      </trkpt>
      <trkpt lat="43.38052" lon="6.1235">
        <ele>343.73202514648</ele>
        <time>2014-06-25T13:00:26Z</time>
      </trkpt>
      <trkpt lat="43.38052" lon="6.12352">
        <ele>343.82263183594</ele>
        <time>2014-06-25T13:00:27Z</time>
      </trkpt>
      <trkpt lat="43.38053" lon="6.12354">
        <ele>343.88778686523</ele>
        <time>2014-06-25T13:00:28Z</time>
      </trkpt>
      <trkpt lat="43.38054" lon="6.12364">
        <ele>344.18682861328</ele>
        <time>2014-06-25T13:00:33Z</time>
      </trkpt>
      <trkpt lat="43.38055" lon="6.12366">
        <ele>344.19900512695</ele>
        <time>2014-06-25T13:00:34Z</time>
      </trkpt>
      <trkpt lat="43.38058" lon="6.12381">
        <ele>345.18014526367</ele>
        <time>2014-06-25T13:00:39Z</time>
      </trkpt>
      <trkpt lat="43.38059" lon="6.12384">
        <ele>345.43420410156</ele>
        <time>2014-06-25T13:00:40Z</time>
      </trkpt>
      <trkpt lat="43.3806" lon="6.12386">
        <ele>345.77239990234</ele>
        <time>2014-06-25T13:00:41Z</time>
      </trkpt>
      <trkpt lat="43.38063" lon="6.1239">
        <ele>346.43872070312</ele>
        <time>2014-06-25T13:00:44Z</time>
      </trkpt>
      <trkpt lat="43.38063" lon="6.12398">
        <ele>347.00518798828</ele>
        <time>2014-06-25T13:00:49Z</time>
      </trkpt>
      <trkpt lat="43.38063" lon="6.12403">
        <ele>347.33477783203</ele>
        <time>2014-06-25T13:00:51Z</time>
      </trkpt>
      <trkpt lat="43.38065" lon="6.12409">
        <ele>348.22058105469</ele>
        <time>2014-06-25T13:00:55Z</time>
      </trkpt>
      <trkpt lat="43.38066" lon="6.1242">
        <ele>348.96105957031</ele>
        <time>2014-06-25T13:01:00Z</time>
      </trkpt>
      <trkpt lat="43.38067" lon="6.12434">
        <ele>349.65631103516</ele>
        <time>2014-06-25T13:01:07Z</time>
      </trkpt>
      <trkpt lat="43.38068" lon="6.12438">
        <ele>349.93096923828</ele>
        <time>2014-06-25T13:01:10Z</time>
      </trkpt>
      <trkpt lat="43.38068" lon="6.12443">
        <ele>350.18844604492</ele>
        <time>2014-06-25T13:01:13Z</time>
      </trkpt>
      <trkpt lat="43.38069" lon="6.12447">
        <ele>350.53704833984</ele>
        <time>2014-06-25T13:01:15Z</time>
      </trkpt>
      <trkpt lat="43.3807" lon="6.12453">
        <ele>351.12072753906</ele>
        <time>2014-06-25T13:01:18Z</time>
      </trkpt>
      <trkpt lat="43.38068" lon="6.12458">
        <ele>351.21340942383</ele>
        <time>2014-06-25T13:01:20Z</time>
      </trkpt>
      <trkpt lat="43.38067" lon="6.12462">
        <ele>351.37475585938</ele>
        <time>2014-06-25T13:01:22Z</time>
      </trkpt>
      <trkpt lat="43.38067" lon="6.12466">
        <ele>351.61853027344</ele>
        <time>2014-06-25T13:01:24Z</time>
      </trkpt>
      <trkpt lat="43.38064" lon="6.12475">
        <ele>351.72152709961</ele>
        <time>2014-06-25T13:01:27Z</time>
      </trkpt>
      <trkpt lat="43.38063" lon="6.12479">
        <ele>351.93096923828</ele>
        <time>2014-06-25T13:01:29Z</time>
      </trkpt>
      <trkpt lat="43.38064" lon="6.12486">
        <ele>352.45623779297</ele>
        <time>2014-06-25T13:01:32Z</time>
      </trkpt>
      <trkpt lat="43.38064" lon="6.12499">
        <ele>353.51708984375</ele>
        <time>2014-06-25T13:01:38Z</time>
      </trkpt>
      <trkpt lat="43.3806" lon="6.12518">
        <ele>353.46044921875</ele>
        <time>2014-06-25T13:01:47Z</time>
      </trkpt>
      <trkpt lat="43.38058" lon="6.12536">
        <ele>353.76602172852</ele>
        <time>2014-06-25T13:01:56Z</time>
      </trkpt>
      <trkpt lat="43.38057" lon="6.12544">
        <ele>353.89477539062</ele>
        <time>2014-06-25T13:02:00Z</time>
      </trkpt>
      <trkpt lat="43.38057" lon="6.12551">
        <ele>354.01147460938</ele>
        <time>2014-06-25T13:02:03Z</time>
      </trkpt>
      <trkpt lat="43.38055" lon="6.12556">
        <ele>354.08709716797</ele>
        <time>2014-06-25T13:02:06Z</time>
      </trkpt>
      <trkpt lat="43.38054" lon="6.12572">
        <ele>355.52563476562</ele>
        <time>2014-06-25T13:02:13Z</time>
      </trkpt>
      <trkpt lat="43.38054" lon="6.12576">
        <ele>355.66809082031</ele>
        <time>2014-06-25T13:02:15Z</time>
      </trkpt>
      <trkpt lat="43.38052" lon="6.12585">
        <ele>356.51425170898</ele>
        <time>2014-06-25T13:02:18Z</time>
      </trkpt>
      <trkpt lat="43.38053" lon="6.12593">
        <ele>356.65679931641</ele>
        <time>2014-06-25T13:02:22Z</time>
      </trkpt>
      <trkpt lat="43.38049" lon="6.12623">
        <ele>358.37719726562</ele>
        <time>2014-06-25T13:02:36Z</time>
      </trkpt>
      <trkpt lat="43.38046" lon="6.12632">
        <ele>359.0422668457</ele>
        <time>2014-06-25T13:02:42Z</time>
      </trkpt>
      <trkpt lat="43.38046" lon="6.12639">
        <ele>359.38134765625</ele>
        <time>2014-06-25T13:02:45Z</time>
      </trkpt>
      <trkpt lat="43.38045" lon="6.12644">
        <ele>359.83648681641</ele>
        <time>2014-06-25T13:02:47Z</time>
      </trkpt>
      <trkpt lat="43.38045" lon="6.12648">
        <ele>360.24215698242</ele>
        <time>2014-06-25T13:02:49Z</time>
      </trkpt>
      <trkpt lat="43.38041" lon="6.12659">
        <ele>361.29876708984</ele>
        <time>2014-06-25T13:02:54Z</time>
      </trkpt>
      <trkpt lat="43.38036" lon="6.12668">
        <ele>362.08242797852</ele>
        <time>2014-06-25T13:02:58Z</time>
      </trkpt>
      <trkpt lat="43.38032" lon="6.12676">
        <ele>362.94540405273</ele>
        <time>2014-06-25T13:03:02Z</time>
      </trkpt>
      <trkpt lat="43.38029" lon="6.1268">
        <ele>363.43643188477</ele>
        <time>2014-06-25T13:03:04Z</time>
      </trkpt>
      <trkpt lat="43.38029" lon="6.12682">
        <ele>363.6813659668</ele>
        <time>2014-06-25T13:03:05Z</time>
      </trkpt>
      <trkpt lat="43.38026" lon="6.12691">
        <ele>365.07077026367</ele>
        <time>2014-06-25T13:03:09Z</time>
      </trkpt>
      <trkpt lat="43.38023" lon="6.127">
        <ele>366.91979980469</ele>
        <time>2014-06-25T13:03:14Z</time>
      </trkpt>
      <trkpt lat="43.38019" lon="6.12715">
        <ele>369.54391479492</ele>
        <time>2014-06-25T13:03:21Z</time>
      </trkpt>
      <trkpt lat="43.38018" lon="6.12722">
        <ele>370.49908447266</ele>
        <time>2014-06-25T13:03:25Z</time>
      </trkpt>
      <trkpt lat="43.38016" lon="6.12727">
        <ele>371.3186340332</ele>
        <time>2014-06-25T13:03:27Z</time>
      </trkpt>
      <trkpt lat="43.38014" lon="6.12739">
        <ele>372.3108215332</ele>
        <time>2014-06-25T13:03:32Z</time>
      </trkpt>
      <trkpt lat="43.38013" lon="6.12743">
        <ele>372.70852661133</ele>
        <time>2014-06-25T13:03:35Z</time>
      </trkpt>
      <trkpt lat="43.3801" lon="6.12756">
        <ele>374.1549987793</ele>
        <time>2014-06-25T13:03:42Z</time>
      </trkpt>
      <trkpt lat="43.3801" lon="6.12758">
        <ele>374.21398925781</ele>
        <time>2014-06-25T13:03:43Z</time>
      </trkpt>
      <trkpt lat="43.38009" lon="6.12759">
        <ele>374.3766784668</ele>
        <time>2014-06-25T13:03:44Z</time>
      </trkpt>
      <trkpt lat="43.38008" lon="6.12761">
        <ele>374.58386230469</ele>
        <time>2014-06-25T13:03:46Z</time>
      </trkpt>
      <trkpt lat="43.38008" lon="6.12762">
        <ele>374.62902832031</ele>
        <time>2014-06-25T13:03:48Z</time>
      </trkpt>
      <trkpt lat="43.38009" lon="6.12763">
        <ele>374.54132080078</ele>
        <time>2014-06-25T13:03:53Z</time>
      </trkpt>
      <trkpt lat="43.38009" lon="6.12763">
        <ele>374.54132080078</ele>
        <time>2014-06-25T13:04:07Z</time>
      </trkpt>
      <trkpt lat="43.38008" lon="6.12764">
        <ele>374.62921142578</ele>
        <time>2014-06-25T13:05:51Z</time>
      </trkpt>
      <trkpt lat="43.38008" lon="6.12764">
        <ele>374.62921142578</ele>
        <time>2014-06-25T13:06:15Z</time>
      </trkpt>
      <trkpt lat="43.38008" lon="6.12764">
        <ele>374.62921142578</ele>
        <time>2014-06-25T13:06:26Z</time>
      </trkpt>
      <trkpt lat="43.38008" lon="6.12765">
        <ele>374.71630859375</ele>
        <time>2014-06-25T13:06:30Z</time>
      </trkpt>
      <trkpt lat="43.38008" lon="6.12765">
        <ele>374.71630859375</ele>
        <time>2014-06-25T13:06:50Z</time>
      </trkpt>
      <trkpt lat="43.38008" lon="6.12766">
        <ele>374.75994873047</ele>
        <time>2014-06-25T13:08:06Z</time>
      </trkpt>
      <trkpt lat="43.38008" lon="6.12766">
        <ele>374.81823730469</ele>
        <time>2014-06-25T13:08:15Z</time>
      </trkpt>
      <trkpt lat="43.38008" lon="6.12766">
        <ele>374.74942016602</ele>
        <time>2014-06-25T13:08:20Z</time>
      </trkpt>
      <trkpt lat="43.38008" lon="6.12762">
        <ele>374.55514526367</ele>
        <time>2014-06-25T13:08:23Z</time>
      </trkpt>
      <trkpt lat="43.3801" lon="6.12753">
        <ele>373.88363647461</ele>
        <time>2014-06-25T13:08:26Z</time>
      </trkpt>
      <trkpt lat="43.38011" lon="6.1275">
        <ele>373.56845092773</ele>
        <time>2014-06-25T13:08:27Z</time>
      </trkpt>
      <trkpt lat="43.38012" lon="6.12739">
        <ele>372.78799438477</ele>
        <time>2014-06-25T13:08:29Z</time>
      </trkpt>
      <trkpt lat="43.38017" lon="6.12721">
        <ele>370.58813476562</ele>
        <time>2014-06-25T13:08:33Z</time>
      </trkpt>
      <trkpt lat="43.3802" lon="6.12711">
        <ele>368.87033081055</ele>
        <time>2014-06-25T13:08:35Z</time>
      </trkpt>
      <trkpt lat="43.38023" lon="6.12705">
        <ele>367.68472290039</ele>
        <time>2014-06-25T13:08:36Z</time>
      </trkpt>
      <trkpt lat="43.38031" lon="6.12685">
        <ele>363.890625</ele>
        <time>2014-06-25T13:08:39Z</time>
      </trkpt>
      <trkpt lat="43.38034" lon="6.1268">
        <ele>363.33209228516</ele>
        <time>2014-06-25T13:08:40Z</time>
      </trkpt>
      <trkpt lat="43.38036" lon="6.12676">
        <ele>362.94152832031</ele>
        <time>2014-06-25T13:08:41Z</time>
      </trkpt>
      <trkpt lat="43.38036" lon="6.12671">
        <ele>362.40078735352</ele>
        <time>2014-06-25T13:08:42Z</time>
      </trkpt>
      <trkpt lat="43.38037" lon="6.12666">
        <ele>361.90621948242</ele>
        <time>2014-06-25T13:08:43Z</time>
      </trkpt>
      <trkpt lat="43.38039" lon="6.12661">
        <ele>361.51467895508</ele>
        <time>2014-06-25T13:08:44Z</time>
      </trkpt>
      <trkpt lat="43.38041" lon="6.12655">
        <ele>361.00674438477</ele>
        <time>2014-06-25T13:08:45Z</time>
      </trkpt>
      <trkpt lat="43.38042" lon="6.12651">
        <ele>360.53997802734</ele>
        <time>2014-06-25T13:08:46Z</time>
      </trkpt>
      <trkpt lat="43.38044" lon="6.1264">
        <ele>359.50686645508</ele>
        <time>2014-06-25T13:08:48Z</time>
      </trkpt>
      <trkpt lat="43.38045" lon="6.12627">
        <ele>358.85336303711</ele>
        <time>2014-06-25T13:08:50Z</time>
      </trkpt>
      <trkpt lat="43.38046" lon="6.1262">
        <ele>358.44030761719</ele>
        <time>2014-06-25T13:08:51Z</time>
      </trkpt>
      <trkpt lat="43.38049" lon="6.12596">
        <ele>357.25833129883</ele>
        <time>2014-06-25T13:08:55Z</time>
      </trkpt>
      <trkpt lat="43.38049" lon="6.1259">
        <ele>357.08526611328</ele>
        <time>2014-06-25T13:08:56Z</time>
      </trkpt>
      <trkpt lat="43.38051" lon="6.12584">
        <ele>356.70916748047</ele>
        <time>2014-06-25T13:08:57Z</time>
      </trkpt>
      <trkpt lat="43.38055" lon="6.12572">
        <ele>355.36322021484</ele>
        <time>2014-06-25T13:08:59Z</time>
      </trkpt>
      <trkpt lat="43.38055" lon="6.12565">
        <ele>354.8122253418</ele>
        <time>2014-06-25T13:09:00Z</time>
      </trkpt>
      <trkpt lat="43.38057" lon="6.12552">
        <ele>354.06298828125</ele>
        <time>2014-06-25T13:09:02Z</time>
      </trkpt>
      <trkpt lat="43.38057" lon="6.12545">
        <ele>353.88446044922</ele>
        <time>2014-06-25T13:09:03Z</time>
      </trkpt>
      <trkpt lat="43.38058" lon="6.12531">
        <ele>353.56344604492</ele>
        <time>2014-06-25T13:09:05Z</time>
      </trkpt>
      <trkpt lat="43.38058" lon="6.12524">
        <ele>353.31454467773</ele>
        <time>2014-06-25T13:09:06Z</time>
      </trkpt>
      <trkpt lat="43.38059" lon="6.12517">
        <ele>353.19439697266</ele>
        <time>2014-06-25T13:09:07Z</time>
      </trkpt>
      <trkpt lat="43.38059" lon="6.1251">
        <ele>353.00897216797</ele>
        <time>2014-06-25T13:09:08Z</time>
      </trkpt>
      <trkpt lat="43.38059" lon="6.12503">
        <ele>352.76007080078</ele>
        <time>2014-06-25T13:09:09Z</time>
      </trkpt>
      <trkpt lat="43.3806" lon="6.12483">
        <ele>351.51898193359</ele>
        <time>2014-06-25T13:09:12Z</time>
      </trkpt>
      <trkpt lat="43.3806" lon="6.12478">
        <ele>351.2099609375</ele>
        <time>2014-06-25T13:09:13Z</time>
      </trkpt>
      <trkpt lat="43.3806" lon="6.12474">
        <ele>351.01428222656</ele>
        <time>2014-06-25T13:09:14Z</time>
      </trkpt>
      <trkpt lat="43.38061" lon="6.12472">
        <ele>350.90783691406</ele>
        <time>2014-06-25T13:09:15Z</time>
      </trkpt>
      <trkpt lat="43.38061" lon="6.12469">
        <ele>350.74304199219</ele>
        <time>2014-06-25T13:09:16Z</time>
      </trkpt>
      <trkpt lat="43.38062" lon="6.12466">
        <ele>350.60571289062</ele>
        <time>2014-06-25T13:09:17Z</time>
      </trkpt>
      <trkpt lat="43.38062" lon="6.12459">
        <ele>350.17315673828</ele>
        <time>2014-06-25T13:09:22Z</time>
      </trkpt>
      <trkpt lat="43.38062" lon="6.12459">
        <ele>350.17315673828</ele>
        <time>2014-06-25T13:09:29Z</time>
      </trkpt>
      <trkpt lat="43.38062" lon="6.12458">
        <ele>350.0598449707</ele>
        <time>2014-06-25T13:09:33Z</time>
      </trkpt>
      <trkpt lat="43.38062" lon="6.12458">
        <ele>350.0598449707</ele>
        <time>2014-06-25T13:09:41Z</time>
      </trkpt>
      <trkpt lat="43.3806" lon="6.12456">
        <ele>349.67877197266</ele>
        <time>2014-06-25T13:09:47Z</time>
      </trkpt>
      <trkpt lat="43.3806" lon="6.12456">
        <ele>349.67877197266</ele>
        <time>2014-06-25T13:09:55Z</time>
      </trkpt>
      <trkpt lat="43.3806" lon="6.1246">
        <ele>349.95684814453</ele>
        <time>2014-06-25T13:09:57Z</time>
      </trkpt>
      <trkpt lat="43.3806" lon="6.12463">
        <ele>350.111328125</ele>
        <time>2014-06-25T13:10:00Z</time>
      </trkpt>
      <trkpt lat="43.3806" lon="6.12471">
        <ele>350.70529174805</ele>
        <time>2014-06-25T13:10:06Z</time>
      </trkpt>
      <trkpt lat="43.38059" lon="6.12475">
        <ele>350.85980224609</ele>
        <time>2014-06-25T13:10:09Z</time>
      </trkpt>
      <trkpt lat="43.38061" lon="6.1248">
        <ele>351.56701660156</ele>
        <time>2014-06-25T13:10:12Z</time>
      </trkpt>
      <trkpt lat="43.38063" lon="6.12486">
        <ele>352.38070678711</ele>
        <time>2014-06-25T13:10:15Z</time>
      </trkpt>
      <trkpt lat="43.38065" lon="6.1249">
        <ele>352.89910888672</ele>
        <time>2014-06-25T13:10:17Z</time>
      </trkpt>
      <trkpt lat="43.38065" lon="6.12492">
        <ele>353.06390380859</ele>
        <time>2014-06-25T13:10:18Z</time>
      </trkpt>
      <trkpt lat="43.38065" lon="6.12499">
        <ele>353.70935058594</ele>
        <time>2014-06-25T13:10:21Z</time>
      </trkpt>
      <trkpt lat="43.38066" lon="6.12506">
        <ele>354.1110534668</ele>
        <time>2014-06-25T13:10:24Z</time>
      </trkpt>
      <trkpt lat="43.38066" lon="6.12513">
        <ele>354.31188964844</ele>
        <time>2014-06-25T13:10:27Z</time>
      </trkpt>
      <trkpt lat="43.38068" lon="6.12517">
        <ele>354.84918212891</ele>
        <time>2014-06-25T13:10:29Z</time>
      </trkpt>
      <trkpt lat="43.3807" lon="6.12519">
        <ele>355.2663269043</ele>
        <time>2014-06-25T13:10:31Z</time>
      </trkpt>
      <trkpt lat="43.3807" lon="6.12521">
        <ele>355.34014892578</ele>
        <time>2014-06-25T13:10:32Z</time>
      </trkpt>
      <trkpt lat="43.3807" lon="6.12524">
        <ele>355.44143676758</ele>
        <time>2014-06-25T13:10:33Z</time>
      </trkpt>
      <trkpt lat="43.38069" lon="6.12531">
        <ele>355.50494384766</ele>
        <time>2014-06-25T13:10:35Z</time>
      </trkpt>
      <trkpt lat="43.38068" lon="6.12542">
        <ele>355.81564331055</ele>
        <time>2014-06-25T13:10:39Z</time>
      </trkpt>
      <trkpt lat="43.38068" lon="6.12549">
        <ele>355.94781494141</ele>
        <time>2014-06-25T13:10:41Z</time>
      </trkpt>
      <trkpt lat="43.38065" lon="6.12556">
        <ele>355.71478271484</ele>
        <time>2014-06-25T13:10:43Z</time>
      </trkpt>
      <trkpt lat="43.38063" lon="6.12562">
        <ele>355.84158325195</ele>
        <time>2014-06-25T13:10:45Z</time>
      </trkpt>
      <trkpt lat="43.38059" lon="6.12573">
        <ele>355.80111694336</ele>
        <time>2014-06-25T13:10:49Z</time>
      </trkpt>
      <trkpt lat="43.38058" lon="6.12579">
        <ele>356.03527832031</ele>
        <time>2014-06-25T13:10:51Z</time>
      </trkpt>
      <trkpt lat="43.38056" lon="6.12584">
        <ele>356.12509155273</ele>
        <time>2014-06-25T13:10:53Z</time>
      </trkpt>
      <trkpt lat="43.38054" lon="6.126">
        <ele>356.74169921875</ele>
        <time>2014-06-25T13:10:59Z</time>
      </trkpt>
      <trkpt lat="43.38052" lon="6.1261">
        <ele>357.36422729492</ele>
        <time>2014-06-25T13:11:03Z</time>
      </trkpt>
      <trkpt lat="43.38051" lon="6.12615">
        <ele>357.7194519043</ele>
        <time>2014-06-25T13:11:05Z</time>
      </trkpt>
      <trkpt lat="43.3805" lon="6.12618">
        <ele>357.97027587891</ele>
        <time>2014-06-25T13:11:06Z</time>
      </trkpt>
      <trkpt lat="43.3805" lon="6.1262">
        <ele>358.10641479492</ele>
        <time>2014-06-25T13:11:07Z</time>
      </trkpt>
      <trkpt lat="43.3805" lon="6.1262">
        <ele>358.04598999023</ele>
        <time>2014-06-25T13:11:09Z</time>
      </trkpt>
      <trkpt lat="43.38049" lon="6.12631">
        <ele>358.80502319336</ele>
        <time>2014-06-25T13:11:14Z</time>
      </trkpt>
      <trkpt lat="43.38048" lon="6.1264">
        <ele>359.41632080078</ele>
        <time>2014-06-25T13:11:18Z</time>
      </trkpt>
      <trkpt lat="43.38047" lon="6.12643">
        <ele>359.72680664062</ele>
        <time>2014-06-25T13:11:19Z</time>
      </trkpt>
      <trkpt lat="43.38045" lon="6.1265">
        <ele>360.41693115234</ele>
        <time>2014-06-25T13:11:21Z</time>
      </trkpt>
      <trkpt lat="43.38043" lon="6.12655">
        <ele>360.95037841797</ele>
        <time>2014-06-25T13:11:23Z</time>
      </trkpt>
      <trkpt lat="43.38038" lon="6.12667">
        <ele>362.0124206543</ele>
        <time>2014-06-25T13:11:27Z</time>
      </trkpt>
      <trkpt lat="43.3803" lon="6.12683">
        <ele>363.69290161133</ele>
        <time>2014-06-25T13:11:33Z</time>
      </trkpt>
      <trkpt lat="43.38029" lon="6.12687">
        <ele>364.14236450195</ele>
        <time>2014-06-25T13:11:35Z</time>
      </trkpt>
      <trkpt lat="43.38028" lon="6.12688">
        <ele>364.30062866211</ele>
        <time>2014-06-25T13:11:36Z</time>
      </trkpt>
      <trkpt lat="43.38023" lon="6.12701">
        <ele>367.04876708984</ele>
        <time>2014-06-25T13:11:43Z</time>
      </trkpt>
      <trkpt lat="43.38022" lon="6.12704">
        <ele>367.72631835938</ele>
        <time>2014-06-25T13:11:45Z</time>
      </trkpt>
      <trkpt lat="43.38023" lon="6.12709">
        <ele>368.08627319336</ele>
        <time>2014-06-25T13:11:48Z</time>
      </trkpt>
      <trkpt lat="43.38022" lon="6.12717">
        <ele>368.92279052734</ele>
        <time>2014-06-25T13:11:52Z</time>
      </trkpt>
      <trkpt lat="43.38022" lon="6.12722">
        <ele>369.36029052734</ele>
        <time>2014-06-25T13:11:55Z</time>
      </trkpt>
      <trkpt lat="43.38023" lon="6.12727">
        <ele>369.5837097168</ele>
        <time>2014-06-25T13:11:58Z</time>
      </trkpt>
      <trkpt lat="43.38021" lon="6.12734">
        <ele>370.3161315918</ele>
        <time>2014-06-25T13:12:04Z</time>
      </trkpt>
      <trkpt lat="43.38021" lon="6.12742">
        <ele>371.04843139648</ele>
        <time>2014-06-25T13:12:08Z</time>
      </trkpt>
      <trkpt lat="43.3802" lon="6.12744">
        <ele>371.42102050781</ele>
        <time>2014-06-25T13:12:09Z</time>
      </trkpt>
      <trkpt lat="43.38018" lon="6.12747">
        <ele>372.01010131836</ele>
        <time>2014-06-25T13:12:11Z</time>
      </trkpt>
      <trkpt lat="43.38018" lon="6.12747">
        <ele>372.02694702148</ele>
        <time>2014-06-25T13:12:12Z</time>
      </trkpt>
      <trkpt lat="43.38018" lon="6.12748">
        <ele>372.08590698242</ele>
        <time>2014-06-25T13:12:13Z</time>
      </trkpt>
      <trkpt lat="43.38018" lon="6.12751">
        <ele>372.19491577148</ele>
        <time>2014-06-25T13:12:14Z</time>
      </trkpt>
      <trkpt lat="43.38018" lon="6.12753">
        <ele>372.33535766602</ele>
        <time>2014-06-25T13:12:15Z</time>
      </trkpt>
      <trkpt lat="43.38015" lon="6.12764">
        <ele>373.66644287109</ele>
        <time>2014-06-25T13:12:21Z</time>
      </trkpt>
      <trkpt lat="43.38011" lon="6.12778">
        <ele>374.85800170898</ele>
        <time>2014-06-25T13:12:26Z</time>
      </trkpt>
      <trkpt lat="43.38008" lon="6.12788">
        <ele>375.69332885742</ele>
        <time>2014-06-25T13:12:30Z</time>
      </trkpt>
      <trkpt lat="43.38007" lon="6.12791">
        <ele>375.97808837891</ele>
        <time>2014-06-25T13:12:31Z</time>
      </trkpt>
      <trkpt lat="43.38006" lon="6.12796">
        <ele>376.31015014648</ele>
        <time>2014-06-25T13:12:33Z</time>
      </trkpt>
      <trkpt lat="43.38005" lon="6.12801">
        <ele>376.62252807617</ele>
        <time>2014-06-25T13:12:35Z</time>
      </trkpt>
      <trkpt lat="43.38002" lon="6.12812">
        <ele>376.96209716797</ele>
        <time>2014-06-25T13:12:40Z</time>
      </trkpt>
      <trkpt lat="43.38002" lon="6.12819">
        <ele>376.99719238281</ele>
        <time>2014-06-25T13:12:44Z</time>
      </trkpt>
      <trkpt lat="43.38003" lon="6.12829">
        <ele>377.07061767578</ele>
        <time>2014-06-25T13:12:49Z</time>
      </trkpt>
      <trkpt lat="43.38002" lon="6.12835">
        <ele>377.20809936523</ele>
        <time>2014-06-25T13:12:51Z</time>
      </trkpt>
      <trkpt lat="43.37998" lon="6.12846">
        <ele>378.00015258789</ele>
        <time>2014-06-25T13:12:55Z</time>
      </trkpt>
      <trkpt lat="43.37994" lon="6.12858">
        <ele>378.84912109375</ele>
        <time>2014-06-25T13:13:00Z</time>
      </trkpt>
      <trkpt lat="43.37993" lon="6.12862">
        <ele>379.02981567383</ele>
        <time>2014-06-25T13:13:02Z</time>
      </trkpt>
      <trkpt lat="43.37993" lon="6.12863">
        <ele>379.06097412109</ele>
        <time>2014-06-25T13:13:03Z</time>
      </trkpt>
      <trkpt lat="43.37992" lon="6.12865">
        <ele>379.10006713867</ele>
        <time>2014-06-25T13:13:04Z</time>
      </trkpt>
      <trkpt lat="43.37991" lon="6.12871">
        <ele>379.24877929688</ele>
        <time>2014-06-25T13:13:06Z</time>
      </trkpt>
      <trkpt lat="43.3799" lon="6.12875">
        <ele>379.32415771484</ele>
        <time>2014-06-25T13:13:10Z</time>
      </trkpt>
      <trkpt lat="43.37989" lon="6.12887">
        <ele>379.58041381836</ele>
        <time>2014-06-25T13:13:15Z</time>
      </trkpt>
      <trkpt lat="43.3799" lon="6.1289">
        <ele>379.64678955078</ele>
        <time>2014-06-25T13:13:17Z</time>
      </trkpt>
      <trkpt lat="43.3799" lon="6.12896">
        <ele>379.63305664062</ele>
        <time>2014-06-25T13:13:21Z</time>
      </trkpt>
      <trkpt lat="43.3799" lon="6.12897">
        <ele>379.63305664062</ele>
        <time>2014-06-25T13:13:23Z</time>
      </trkpt>
      <trkpt lat="43.37989" lon="6.129">
        <ele>379.60559082031</ele>
        <time>2014-06-25T13:13:24Z</time>
      </trkpt>
      <trkpt lat="43.37985" lon="6.12908">
        <ele>379.46826171875</ele>
        <time>2014-06-25T13:13:29Z</time>
      </trkpt>
      <trkpt lat="43.37982" lon="6.12914">
        <ele>379.34466552734</ele>
        <time>2014-06-25T13:13:33Z</time>
      </trkpt>
      <trkpt lat="43.37978" lon="6.12918">
        <ele>379.25073242188</ele>
        <time>2014-06-25T13:13:36Z</time>
      </trkpt>
      <trkpt lat="43.37978" lon="6.12919">
        <ele>379.30996704102</ele>
        <time>2014-06-25T13:13:37Z</time>
      </trkpt>
      <trkpt lat="43.37977" lon="6.12921">
        <ele>379.38262939453</ele>
        <time>2014-06-25T13:13:38Z</time>
      </trkpt>
      <trkpt lat="43.37975" lon="6.12927">
        <ele>379.58728027344</ele>
        <time>2014-06-25T13:13:43Z</time>
      </trkpt>
      <trkpt lat="43.37973" lon="6.12932">
        <ele>379.64205932617</ele>
        <time>2014-06-25T13:13:46Z</time>
      </trkpt>
      <trkpt lat="43.37971" lon="6.12948">
        <ele>380</ele>
        <time>2014-06-25T13:13:51Z</time>
      </trkpt>
      <trkpt lat="43.3797" lon="6.12958">
        <ele>380</ele>
        <time>2014-06-25T13:13:54Z</time>
      </trkpt>
      <trkpt lat="43.37969" lon="6.1296">
        <ele>380</ele>
        <time>2014-06-25T13:13:55Z</time>
      </trkpt>
      <trkpt lat="43.37965" lon="6.12968">
        <ele>380</ele>
        <time>2014-06-25T13:14:00Z</time>
      </trkpt>
      <trkpt lat="43.37959" lon="6.12983">
        <ele>380.61038208008</ele>
        <time>2014-06-25T13:14:05Z</time>
      </trkpt>
      <trkpt lat="43.37957" lon="6.1299">
        <ele>380.88409423828</ele>
        <time>2014-06-25T13:14:09Z</time>
      </trkpt>
      <trkpt lat="43.37951" lon="6.13002">
        <ele>380.72827148438</ele>
        <time>2014-06-25T13:14:15Z</time>
      </trkpt>
      <trkpt lat="43.37946" lon="6.1301">
        <ele>380.20352172852</ele>
        <time>2014-06-25T13:14:18Z</time>
      </trkpt>
      <trkpt lat="43.37944" lon="6.13013">
        <ele>380.00122070312</ele>
        <time>2014-06-25T13:14:20Z</time>
      </trkpt>
      <trkpt lat="43.37939" lon="6.13021">
        <ele>380.09716796875</ele>
        <time>2014-06-25T13:14:24Z</time>
      </trkpt>
      <trkpt lat="43.37936" lon="6.13023">
        <ele>380.09924316406</ele>
        <time>2014-06-25T13:14:26Z</time>
      </trkpt>
      <trkpt lat="43.37924" lon="6.1304">
        <ele>382.4753112793</ele>
        <time>2014-06-25T13:14:32Z</time>
      </trkpt>
      <trkpt lat="43.37922" lon="6.13045">
        <ele>383.60681152344</ele>
        <time>2014-06-25T13:14:34Z</time>
      </trkpt>
      <trkpt lat="43.37921" lon="6.13047">
        <ele>384.12646484375</ele>
        <time>2014-06-25T13:14:35Z</time>
      </trkpt>
      <trkpt lat="43.37919" lon="6.13051">
        <ele>384.96600341797</ele>
        <time>2014-06-25T13:14:37Z</time>
      </trkpt>
      <trkpt lat="43.37918" lon="6.13053">
        <ele>385.43737792969</ele>
        <time>2014-06-25T13:14:38Z</time>
      </trkpt>
      <trkpt lat="43.37917" lon="6.13061">
        <ele>386.35968017578</ele>
        <time>2014-06-25T13:14:43Z</time>
      </trkpt>
      <trkpt lat="43.37917" lon="6.13065">
        <ele>386.66287231445</ele>
        <time>2014-06-25T13:14:45Z</time>
      </trkpt>
      <trkpt lat="43.37915" lon="6.13071">
        <ele>387.35202026367</ele>
        <time>2014-06-25T13:14:48Z</time>
      </trkpt>
      <trkpt lat="43.37914" lon="6.13072">
        <ele>387.4716796875</ele>
        <time>2014-06-25T13:14:49Z</time>
      </trkpt>
      <trkpt lat="43.37914" lon="6.13072">
        <ele>387.4716796875</ele>
        <time>2014-06-25T13:15:01Z</time>
      </trkpt>
      <trkpt lat="43.37912" lon="6.13075">
        <ele>387.93194580078</ele>
        <time>2014-06-25T13:15:07Z</time>
      </trkpt>
      <trkpt lat="43.37912" lon="6.13075">
        <ele>387.93194580078</ele>
        <time>2014-06-25T13:15:22Z</time>
      </trkpt>
      <trkpt lat="43.37912" lon="6.13075">
        <ele>387.93194580078</ele>
        <time>2014-06-25T13:15:43Z</time>
      </trkpt>
      <trkpt lat="43.37911" lon="6.13076">
        <ele>388.11892700195</ele>
        <time>2014-06-25T13:15:51Z</time>
      </trkpt>
      <trkpt lat="43.37911" lon="6.13076">
        <ele>388.11892700195</ele>
        <time>2014-06-25T13:16:13Z</time>
      </trkpt>
      <trkpt lat="43.37912" lon="6.13076">
        <ele>388.09289550781</ele>
        <time>2014-06-25T13:17:52Z</time>
      </trkpt>
      <trkpt lat="43.37912" lon="6.13076">
        <ele>388.09289550781</ele>
        <time>2014-06-25T13:18:12Z</time>
      </trkpt>
      <trkpt lat="43.37912" lon="6.13077">
        <ele>388.13034057617</ele>
        <time>2014-06-25T13:18:32Z</time>
      </trkpt>
      <trkpt lat="43.37912" lon="6.13077">
        <ele>388.13034057617</ele>
        <time>2014-06-25T13:18:51Z</time>
      </trkpt>
      <trkpt lat="43.37912" lon="6.13077">
        <ele>388.13034057617</ele>
        <time>2014-06-25T13:18:59Z</time>
      </trkpt>
      <trkpt lat="43.37912" lon="6.13077">
        <ele>388.11428833008</ele>
        <time>2014-06-25T13:19:07Z</time>
      </trkpt>
      <trkpt lat="43.37912" lon="6.13077">
        <ele>388.11428833008</ele>
        <time>2014-06-25T13:19:35Z</time>
      </trkpt>
      <trkpt lat="43.37912" lon="6.13077">
        <ele>388.07342529297</ele>
        <time>2014-06-25T13:19:59Z</time>
      </trkpt>
      <trkpt lat="43.37912" lon="6.13077">
        <ele>388.07342529297</ele>
        <time>2014-06-25T13:20:16Z</time>
      </trkpt>
      <trkpt lat="43.37911" lon="6.13076">
        <ele>388.14370727539</ele>
        <time>2014-06-25T13:20:20Z</time>
      </trkpt>
      <trkpt lat="43.37907" lon="6.13081">
        <ele>388.8498840332</ele>
        <time>2014-06-25T13:20:23Z</time>
      </trkpt>
      <trkpt lat="43.37902" lon="6.13082">
        <ele>389.50973510742</ele>
        <time>2014-06-25T13:20:26Z</time>
      </trkpt>
      <trkpt lat="43.37889" lon="6.13074">
        <ele>390.7008972168</ele>
        <time>2014-06-25T13:20:31Z</time>
      </trkpt>
      <trkpt lat="43.37887" lon="6.13072">
        <ele>391.00985717773</ele>
        <time>2014-06-25T13:20:32Z</time>
      </trkpt>
      <trkpt lat="43.37884" lon="6.1307">
        <ele>391.52685546875</ele>
        <time>2014-06-25T13:20:34Z</time>
      </trkpt>
      <trkpt lat="43.37881" lon="6.13069">
        <ele>391.96759033203</ele>
        <time>2014-06-25T13:20:35Z</time>
      </trkpt>
      <trkpt lat="43.3788" lon="6.13067">
        <ele>392.28723144531</ele>
        <time>2014-06-25T13:20:36Z</time>
      </trkpt>
      <trkpt lat="43.37869" lon="6.13058">
        <ele>394.26956176758</ele>
        <time>2014-06-25T13:20:41Z</time>
      </trkpt>
      <trkpt lat="43.37858" lon="6.13045">
        <ele>393.62658691406</ele>
        <time>2014-06-25T13:20:48Z</time>
      </trkpt>
      <trkpt lat="43.3785" lon="6.13038">
        <ele>388.81707763672</ele>
        <time>2014-06-25T13:20:52Z</time>
      </trkpt>
      <trkpt lat="43.37847" lon="6.13035">
        <ele>387.32077026367</ele>
        <time>2014-06-25T13:20:54Z</time>
      </trkpt>
      <trkpt lat="43.37844" lon="6.1303">
        <ele>385.53277587891</ele>
        <time>2014-06-25T13:20:56Z</time>
      </trkpt>
      <trkpt lat="43.37842" lon="6.13028">
        <ele>384.55038452148</ele>
        <time>2014-06-25T13:20:57Z</time>
      </trkpt>
      <trkpt lat="43.37838" lon="6.13027">
        <ele>382.51449584961</ele>
        <time>2014-06-25T13:20:59Z</time>
      </trkpt>
      <trkpt lat="43.37835" lon="6.13016">
        <ele>380.88662719727</ele>
        <time>2014-06-25T13:21:03Z</time>
      </trkpt>
      <trkpt lat="43.37827" lon="6.13017">
        <ele>378.56646728516</ele>
        <time>2014-06-25T13:21:05Z</time>
      </trkpt>
      <trkpt lat="43.37825" lon="6.13015">
        <ele>378.12692260742</ele>
        <time>2014-06-25T13:21:06Z</time>
      </trkpt>
      <trkpt lat="43.37824" lon="6.13016">
        <ele>377.75524902344</ele>
        <time>2014-06-25T13:21:07Z</time>
      </trkpt>
      <trkpt lat="43.37821" lon="6.13017">
        <ele>377.11825561523</ele>
        <time>2014-06-25T13:21:09Z</time>
      </trkpt>
      <trkpt lat="43.3782" lon="6.13015">
        <ele>376.86782836914</ele>
        <time>2014-06-25T13:21:11Z</time>
      </trkpt>
      <trkpt lat="43.37816" lon="6.13014">
        <ele>376.00088500977</ele>
        <time>2014-06-25T13:21:12Z</time>
      </trkpt>
      <trkpt lat="43.37815" lon="6.13013">
        <ele>375.74554443359</ele>
        <time>2014-06-25T13:21:13Z</time>
      </trkpt>
      <trkpt lat="43.37812" lon="6.13012">
        <ele>375.06265258789</ele>
        <time>2014-06-25T13:21:15Z</time>
      </trkpt>
      <trkpt lat="43.3781" lon="6.13013">
        <ele>374.61032104492</ele>
        <time>2014-06-25T13:21:17Z</time>
      </trkpt>
      <trkpt lat="43.3781" lon="6.13013">
        <ele>374.61032104492</ele>
        <time>2014-06-25T13:21:18Z</time>
      </trkpt>
      <trkpt lat="43.37806" lon="6.13009">
        <ele>373.77932739258</ele>
        <time>2014-06-25T13:21:19Z</time>
      </trkpt>
      <trkpt lat="43.37799" lon="6.13008">
        <ele>371.79364013672</ele>
        <time>2014-06-25T13:21:21Z</time>
      </trkpt>
      <trkpt lat="43.37796" lon="6.13003">
        <ele>370.71173095703</ele>
        <time>2014-06-25T13:21:23Z</time>
      </trkpt>
      <trkpt lat="43.37794" lon="6.13001">
        <ele>370.14221191406</ele>
        <time>2014-06-25T13:21:24Z</time>
      </trkpt>
      <trkpt lat="43.37792" lon="6.12999">
        <ele>369.59530639648</ele>
        <time>2014-06-25T13:21:25Z</time>
      </trkpt>
      <trkpt lat="43.37791" lon="6.12998">
        <ele>369.37902832031</ele>
        <time>2014-06-25T13:21:26Z</time>
      </trkpt>
      <trkpt lat="43.3779" lon="6.12997">
        <ele>368.92926025391</ele>
        <time>2014-06-25T13:21:27Z</time>
      </trkpt>
      <trkpt lat="43.37788" lon="6.12997">
        <ele>368.53442382812</ele>
        <time>2014-06-25T13:21:28Z</time>
      </trkpt>
      <trkpt lat="43.37787" lon="6.12997">
        <ele>368.04177856445</ele>
        <time>2014-06-25T13:21:29Z</time>
      </trkpt>
      <trkpt lat="43.37785" lon="6.12996">
        <ele>367.58685302734</ele>
        <time>2014-06-25T13:21:30Z</time>
      </trkpt>
      <trkpt lat="43.37783" lon="6.12994">
        <ele>367.04956054688</ele>
        <time>2014-06-25T13:21:31Z</time>
      </trkpt>
      <trkpt lat="43.37782" lon="6.12992">
        <ele>366.49682617188</ele>
        <time>2014-06-25T13:21:32Z</time>
      </trkpt>
      <trkpt lat="43.37781" lon="6.12988">
        <ele>366.41098022461</ele>
        <time>2014-06-25T13:21:34Z</time>
      </trkpt>
      <trkpt lat="43.3778" lon="6.12988">
        <ele>366.15692138672</ele>
        <time>2014-06-25T13:21:36Z</time>
      </trkpt>
      <trkpt lat="43.3778" lon="6.12988">
        <ele>366.15863037109</ele>
        <time>2014-06-25T13:21:37Z</time>
      </trkpt>
      <trkpt lat="43.3778" lon="6.12987">
        <ele>366.0676574707</ele>
        <time>2014-06-25T13:21:38Z</time>
      </trkpt>
      <trkpt lat="43.37776" lon="6.12982">
        <ele>365.06292724609</ele>
        <time>2014-06-25T13:21:48Z</time>
      </trkpt>
      <trkpt lat="43.37775" lon="6.12981">
        <ele>364.97164916992</ele>
        <time>2014-06-25T13:21:52Z</time>
      </trkpt>
      <trkpt lat="43.37775" lon="6.12981">
        <ele>364.97164916992</ele>
        <time>2014-06-25T13:21:54Z</time>
      </trkpt>
      <trkpt lat="43.37775" lon="6.1298">
        <ele>364.88299560547</ele>
        <time>2014-06-25T13:21:59Z</time>
      </trkpt>
      <trkpt lat="43.37773" lon="6.12979">
        <ele>364.22256469727</ele>
        <time>2014-06-25T13:22:03Z</time>
      </trkpt>
      <trkpt lat="43.37771" lon="6.12978">
        <ele>363.64602661133</ele>
        <time>2014-06-25T13:22:09Z</time>
      </trkpt>
      <trkpt lat="43.37771" lon="6.12978">
        <ele>363.64602661133</ele>
        <time>2014-06-25T13:22:12Z</time>
      </trkpt>
      <trkpt lat="43.37771" lon="6.12978">
        <ele>363.76556396484</ele>
        <time>2014-06-25T13:22:13Z</time>
      </trkpt>
      <trkpt lat="43.37771" lon="6.12978">
        <ele>363.76556396484</ele>
        <time>2014-06-25T13:22:30Z</time>
      </trkpt>
      <trkpt lat="43.37771" lon="6.12978">
        <ele>363.76556396484</ele>
        <time>2014-06-25T13:22:38Z</time>
      </trkpt>
      <trkpt lat="43.3777" lon="6.12978">
        <ele>363.40756225586</ele>
        <time>2014-06-25T13:22:45Z</time>
      </trkpt>
      <trkpt lat="43.37769" lon="6.12979">
        <ele>363.16311645508</ele>
        <time>2014-06-25T13:22:49Z</time>
      </trkpt>
      <trkpt lat="43.37769" lon="6.12979">
        <ele>363.16311645508</ele>
        <time>2014-06-25T13:23:06Z</time>
      </trkpt>
      <trkpt lat="43.37768" lon="6.1298">
        <ele>362.80511474609</ele>
        <time>2014-06-25T13:23:08Z</time>
      </trkpt>
      <trkpt lat="43.37761" lon="6.12982">
        <ele>360.73098754883</ele>
        <time>2014-06-25T13:23:12Z</time>
      </trkpt>
      <trkpt lat="43.37761" lon="6.12983">
        <ele>360.50790405273</ele>
        <time>2014-06-25T13:23:13Z</time>
      </trkpt>
      <trkpt lat="43.37761" lon="6.12983">
        <ele>360.50665283203</ele>
        <time>2014-06-25T13:23:14Z</time>
      </trkpt>
      <trkpt lat="43.37757" lon="6.12984">
        <ele>359.39242553711</ele>
        <time>2014-06-25T13:23:16Z</time>
      </trkpt>
      <trkpt lat="43.37753" lon="6.12981">
        <ele>358.08984375</ele>
        <time>2014-06-25T13:23:19Z</time>
      </trkpt>
      <trkpt lat="43.37752" lon="6.1298">
        <ele>357.82330322266</ele>
        <time>2014-06-25T13:23:21Z</time>
      </trkpt>
      <trkpt lat="43.37752" lon="6.12979">
        <ele>357.78735351562</ele>
        <time>2014-06-25T13:23:23Z</time>
      </trkpt>
      <trkpt lat="43.37751" lon="6.12979">
        <ele>357.66275024414</ele>
        <time>2014-06-25T13:23:25Z</time>
      </trkpt>
      <trkpt lat="43.37747" lon="6.12976">
        <ele>356.93823242188</ele>
        <time>2014-06-25T13:23:28Z</time>
      </trkpt>
      <trkpt lat="43.3774" lon="6.1298">
        <ele>356.57775878906</ele>
        <time>2014-06-25T13:23:32Z</time>
      </trkpt>
      <trkpt lat="43.37738" lon="6.1298">
        <ele>356.40264892578</ele>
        <time>2014-06-25T13:23:33Z</time>
      </trkpt>
      <trkpt lat="43.37736" lon="6.12979">
        <ele>356.24301147461</ele>
        <time>2014-06-25T13:23:34Z</time>
      </trkpt>
      <trkpt lat="43.37735" lon="6.12978">
        <ele>356.12286376953</ele>
        <time>2014-06-25T13:23:35Z</time>
      </trkpt>
      <trkpt lat="43.37734" lon="6.12977">
        <ele>356.04046630859</ele>
        <time>2014-06-25T13:23:36Z</time>
      </trkpt>
      <trkpt lat="43.37733" lon="6.12977">
        <ele>355.93572998047</ele>
        <time>2014-06-25T13:23:37Z</time>
      </trkpt>
      <trkpt lat="43.37731" lon="6.12975">
        <ele>355.75891113281</ele>
        <time>2014-06-25T13:23:38Z</time>
      </trkpt>
      <trkpt lat="43.37729" lon="6.12974">
        <ele>355.50143432617</ele>
        <time>2014-06-25T13:23:39Z</time>
      </trkpt>
      <trkpt lat="43.37726" lon="6.12971">
        <ele>355.26110839844</ele>
        <time>2014-06-25T13:23:40Z</time>
      </trkpt>
      <trkpt lat="43.37725" lon="6.12969">
        <ele>355.06884765625</ele>
        <time>2014-06-25T13:23:41Z</time>
      </trkpt>
      <trkpt lat="43.37724" lon="6.12967">
        <ele>354.8971862793</ele>
        <time>2014-06-25T13:23:42Z</time>
      </trkpt>
      <trkpt lat="43.37722" lon="6.12964">
        <ele>354.49697875977</ele>
        <time>2014-06-25T13:23:43Z</time>
      </trkpt>
      <trkpt lat="43.3772" lon="6.1296">
        <ele>353.84722900391</ele>
        <time>2014-06-25T13:23:44Z</time>
      </trkpt>
      <trkpt lat="43.37715" lon="6.12955">
        <ele>351.79165649414</ele>
        <time>2014-06-25T13:23:46Z</time>
      </trkpt>
      <trkpt lat="43.37712" lon="6.12953">
        <ele>350.62063598633</ele>
        <time>2014-06-25T13:23:47Z</time>
      </trkpt>
      <trkpt lat="43.3771" lon="6.12951">
        <ele>349.86462402344</ele>
        <time>2014-06-25T13:23:48Z</time>
      </trkpt>
      <trkpt lat="43.37708" lon="6.1295">
        <ele>349.14178466797</ele>
        <time>2014-06-25T13:23:49Z</time>
      </trkpt>
      <trkpt lat="43.37706" lon="6.12949">
        <ele>348.43325805664</ele>
        <time>2014-06-25T13:23:50Z</time>
      </trkpt>
      <trkpt lat="43.37705" lon="6.12949">
        <ele>347.9866027832</ele>
        <time>2014-06-25T13:23:52Z</time>
      </trkpt>
      <trkpt lat="43.37704" lon="6.12949">
        <ele>347.75289916992</ele>
        <time>2014-06-25T13:23:54Z</time>
      </trkpt>
      <trkpt lat="43.37704" lon="6.1295">
        <ele>347.77560424805</ele>
        <time>2014-06-25T13:23:55Z</time>
      </trkpt>
      <trkpt lat="43.37704" lon="6.12949">
        <ele>347.76425170898</ele>
        <time>2014-06-25T13:23:56Z</time>
      </trkpt>
      <trkpt lat="43.37704" lon="6.12949">
        <ele>347.76141357422</ele>
        <time>2014-06-25T13:23:57Z</time>
      </trkpt>
      <trkpt lat="43.37704" lon="6.12949">
        <ele>347.73587036133</ele>
        <time>2014-06-25T13:23:59Z</time>
      </trkpt>
      <trkpt lat="43.37704" lon="6.12949">
        <ele>347.73587036133</ele>
        <time>2014-06-25T13:24:01Z</time>
      </trkpt>
      <trkpt lat="43.37704" lon="6.12948">
        <ele>347.56066894531</ele>
        <time>2014-06-25T13:24:06Z</time>
      </trkpt>
      <trkpt lat="43.37704" lon="6.12947">
        <ele>347.75280761719</ele>
        <time>2014-06-25T13:24:15Z</time>
      </trkpt>
      <trkpt lat="43.37706" lon="6.12946">
        <ele>348.1227722168</ele>
        <time>2014-06-25T13:24:26Z</time>
      </trkpt>
      <trkpt lat="43.37706" lon="6.12946">
        <ele>348.1227722168</ele>
        <time>2014-06-25T13:24:39Z</time>
      </trkpt>
      <trkpt lat="43.37706" lon="6.12946">
        <ele>348.1227722168</ele>
        <time>2014-06-25T13:24:51Z</time>
      </trkpt>
      <trkpt lat="43.37705" lon="6.12945">
        <ele>347.76895141602</ele>
        <time>2014-06-25T13:24:56Z</time>
      </trkpt>
      <trkpt lat="43.37705" lon="6.12944">
        <ele>347.71276855469</ele>
        <time>2014-06-25T13:25:01Z</time>
      </trkpt>
      <trkpt lat="43.37705" lon="6.12944">
        <ele>347.71276855469</ele>
        <time>2014-06-25T13:25:03Z</time>
      </trkpt>
      <trkpt lat="43.37701" lon="6.12942">
        <ele>346.06945800781</ele>
        <time>2014-06-25T13:25:10Z</time>
      </trkpt>
      <trkpt lat="43.377" lon="6.12942">
        <ele>345.84506225586</ele>
        <time>2014-06-25T13:25:15Z</time>
      </trkpt>
      <trkpt lat="43.377" lon="6.12942">
        <ele>345.84506225586</ele>
        <time>2014-06-25T13:25:46Z</time>
      </trkpt>
      <trkpt lat="43.377" lon="6.12942">
        <ele>345.75827026367</ele>
        <time>2014-06-25T13:26:31Z</time>
      </trkpt>
      <trkpt lat="43.377" lon="6.12942">
        <ele>345.75827026367</ele>
        <time>2014-06-25T13:26:58Z</time>
      </trkpt>
      <trkpt lat="43.377" lon="6.12942">
        <ele>345.75827026367</ele>
        <time>2014-06-25T13:27:04Z</time>
      </trkpt>
      <trkpt lat="43.377" lon="6.12942">
        <ele>345.8161315918</ele>
        <time>2014-06-25T13:27:11Z</time>
      </trkpt>
      <trkpt lat="43.377" lon="6.12942">
        <ele>345.8161315918</ele>
        <time>2014-06-25T13:27:36Z</time>
      </trkpt>
      <trkpt lat="43.377" lon="6.12942">
        <ele>345.81036376953</ele>
        <time>2014-06-25T13:28:13Z</time>
      </trkpt>
      <trkpt lat="43.377" lon="6.12942">
        <ele>345.81036376953</ele>
        <time>2014-06-25T13:28:26Z</time>
      </trkpt>
      <trkpt lat="43.377" lon="6.12942">
        <ele>345.55828857422</ele>
        <time>2014-06-25T13:28:36Z</time>
      </trkpt>
      <trkpt lat="43.377" lon="6.12942">
        <ele>345.55828857422</ele>
        <time>2014-06-25T13:28:46Z</time>
      </trkpt>
      <trkpt lat="43.37704" lon="6.12946">
        <ele>347.42050170898</ele>
        <time>2014-06-25T13:28:52Z</time>
      </trkpt>
      <trkpt lat="43.37706" lon="6.12949">
        <ele>348.57897949219</ele>
        <time>2014-06-25T13:28:58Z</time>
      </trkpt>
      <trkpt lat="43.37709" lon="6.12951">
        <ele>349.73547363281</ele>
        <time>2014-06-25T13:29:05Z</time>
      </trkpt>
      <trkpt lat="43.37711" lon="6.12951">
        <ele>350.27676391602</ele>
        <time>2014-06-25T13:29:15Z</time>
      </trkpt>
      <trkpt lat="43.37711" lon="6.12951">
        <ele>350.27676391602</ele>
        <time>2014-06-25T13:29:18Z</time>
      </trkpt>
      <trkpt lat="43.37712" lon="6.12951">
        <ele>350.80609130859</ele>
        <time>2014-06-25T13:29:20Z</time>
      </trkpt>
      <trkpt lat="43.37712" lon="6.12951">
        <ele>350.80609130859</ele>
        <time>2014-06-25T13:29:49Z</time>
      </trkpt>
      <trkpt lat="43.37712" lon="6.12951">
        <ele>350.68133544922</ele>
        <time>2014-06-25T13:30:03Z</time>
      </trkpt>
      <trkpt lat="43.37712" lon="6.12951">
        <ele>350.68133544922</ele>
        <time>2014-06-25T13:30:28Z</time>
      </trkpt>
      <trkpt lat="43.37712" lon="6.12951">
        <ele>350.6672668457</ele>
        <time>2014-06-25T13:30:46Z</time>
      </trkpt>
      <trkpt lat="43.37712" lon="6.12951">
        <ele>350.6672668457</ele>
        <time>2014-06-25T13:31:02Z</time>
      </trkpt>
      <trkpt lat="43.37714" lon="6.12953">
        <ele>351.42495727539</ele>
        <time>2014-06-25T13:31:13Z</time>
      </trkpt>
      <trkpt lat="43.37716" lon="6.12956">
        <ele>352.23031616211</ele>
        <time>2014-06-25T13:31:19Z</time>
      </trkpt>
      <trkpt lat="43.37719" lon="6.12957">
        <ele>353.18142700195</ele>
        <time>2014-06-25T13:31:24Z</time>
      </trkpt>
      <trkpt lat="43.37719" lon="6.12957">
        <ele>353.19500732422</ele>
        <time>2014-06-25T13:31:28Z</time>
      </trkpt>
      <trkpt lat="43.37719" lon="6.12957">
        <ele>353.19500732422</ele>
        <time>2014-06-25T13:31:32Z</time>
      </trkpt>
      <trkpt lat="43.37719" lon="6.12957">
        <ele>353.3434753418</ele>
        <time>2014-06-25T13:31:38Z</time>
      </trkpt>
      <trkpt lat="43.37719" lon="6.12959">
        <ele>353.53884887695</ele>
        <time>2014-06-25T13:31:44Z</time>
      </trkpt>
      <trkpt lat="43.3772" lon="6.12959">
        <ele>353.78997802734</ele>
        <time>2014-06-25T13:31:51Z</time>
      </trkpt>
      <trkpt lat="43.3772" lon="6.12959">
        <ele>353.91845703125</ele>
        <time>2014-06-25T13:31:57Z</time>
      </trkpt>
      <trkpt lat="43.3772" lon="6.12959">
        <ele>353.91845703125</ele>
        <time>2014-06-25T13:32:03Z</time>
      </trkpt>
      <trkpt lat="43.37719" lon="6.12958">
        <ele>353.37799072266</ele>
        <time>2014-06-25T13:32:05Z</time>
      </trkpt>
      <trkpt lat="43.3771" lon="6.12953">
        <ele>350.08981323242</ele>
        <time>2014-06-25T13:32:08Z</time>
      </trkpt>
      <trkpt lat="43.37701" lon="6.12943">
        <ele>346.18798828125</ele>
        <time>2014-06-25T13:32:12Z</time>
      </trkpt>
      <trkpt lat="43.37701" lon="6.12942">
        <ele>345.9912109375</ele>
        <time>2014-06-25T13:32:13Z</time>
      </trkpt>
      <trkpt lat="43.37701" lon="6.12942">
        <ele>345.9912109375</ele>
        <time>2014-06-25T13:32:15Z</time>
      </trkpt>
      <trkpt lat="43.37701" lon="6.12942">
        <ele>346.10333251953</ele>
        <time>2014-06-25T13:32:16Z</time>
      </trkpt>
      <trkpt lat="43.37702" lon="6.12942">
        <ele>346.30767822266</ele>
        <time>2014-06-25T13:32:17Z</time>
      </trkpt>
      <trkpt lat="43.37703" lon="6.12944">
        <ele>346.98672485352</ele>
        <time>2014-06-25T13:32:22Z</time>
      </trkpt>
      <trkpt lat="43.37703" lon="6.12944">
        <ele>346.98672485352</ele>
        <time>2014-06-25T13:32:31Z</time>
      </trkpt>
      <trkpt lat="43.37703" lon="6.12944">
        <ele>346.98672485352</ele>
        <time>2014-06-25T13:32:39Z</time>
      </trkpt>
      <trkpt lat="43.37703" lon="6.12944">
        <ele>347.01318359375</ele>
        <time>2014-06-25T13:32:43Z</time>
      </trkpt>
      <trkpt lat="43.37704" lon="6.12945">
        <ele>347.36614990234</ele>
        <time>2014-06-25T13:32:44Z</time>
      </trkpt>
      <trkpt lat="43.37708" lon="6.12951">
        <ele>349.07540893555</ele>
        <time>2014-06-25T13:32:51Z</time>
      </trkpt>
      <trkpt lat="43.37708" lon="6.12951">
        <ele>349.21203613281</ele>
        <time>2014-06-25T13:33:01Z</time>
      </trkpt>
      <trkpt lat="43.37708" lon="6.12951">
        <ele>349.21203613281</ele>
        <time>2014-06-25T13:33:13Z</time>
      </trkpt>
      <trkpt lat="43.37708" lon="6.12951">
        <ele>349.18341064453</ele>
        <time>2014-06-25T13:33:23Z</time>
      </trkpt>
      <trkpt lat="43.37708" lon="6.12951">
        <ele>349.18341064453</ele>
        <time>2014-06-25T13:33:38Z</time>
      </trkpt>
      <trkpt lat="43.37708" lon="6.12951">
        <ele>349.18600463867</ele>
        <time>2014-06-25T13:34:19Z</time>
      </trkpt>
      <trkpt lat="43.37708" lon="6.12951">
        <ele>349.18600463867</ele>
        <time>2014-06-25T13:34:38Z</time>
      </trkpt>
      <trkpt lat="43.37707" lon="6.12949">
        <ele>348.83013916016</ele>
        <time>2014-06-25T13:34:42Z</time>
      </trkpt>
      <trkpt lat="43.37705" lon="6.12947">
        <ele>347.86660766602</ele>
        <time>2014-06-25T13:34:45Z</time>
      </trkpt>
      <trkpt lat="43.37704" lon="6.12945">
        <ele>347.61776733398</ele>
        <time>2014-06-25T13:34:50Z</time>
      </trkpt>
      <trkpt lat="43.37704" lon="6.12945">
        <ele>347.61776733398</ele>
        <time>2014-06-25T13:34:52Z</time>
      </trkpt>
      <trkpt lat="43.37705" lon="6.12945">
        <ele>347.9365234375</ele>
        <time>2014-06-25T13:34:59Z</time>
      </trkpt>
      <trkpt lat="43.37705" lon="6.12945">
        <ele>347.9365234375</ele>
        <time>2014-06-25T13:35:10Z</time>
      </trkpt>
      <trkpt lat="43.37705" lon="6.12945">
        <ele>347.80242919922</ele>
        <time>2014-06-25T13:35:20Z</time>
      </trkpt>
      <trkpt lat="43.37705" lon="6.12945">
        <ele>347.76617431641</ele>
        <time>2014-06-25T13:35:40Z</time>
      </trkpt>
      <trkpt lat="43.37704" lon="6.12943">
        <ele>347.45977783203</ele>
        <time>2014-06-25T13:35:50Z</time>
      </trkpt>
      <trkpt lat="43.37705" lon="6.12937">
        <ele>346.99682617188</ele>
        <time>2014-06-25T13:35:53Z</time>
      </trkpt>
      <trkpt lat="43.37704" lon="6.12933">
        <ele>346.21823120117</ele>
        <time>2014-06-25T13:35:55Z</time>
      </trkpt>
      <trkpt lat="43.37699" lon="6.12923">
        <ele>342.97052001953</ele>
        <time>2014-06-25T13:36:00Z</time>
      </trkpt>
      <trkpt lat="43.37698" lon="6.12915">
        <ele>341.46881103516</ele>
        <time>2014-06-25T13:36:05Z</time>
      </trkpt>
      <trkpt lat="43.37698" lon="6.12912">
        <ele>341.63381958008</ele>
        <time>2014-06-25T13:36:06Z</time>
      </trkpt>
      <trkpt lat="43.37702" lon="6.12889">
        <ele>343.18124389648</ele>
        <time>2014-06-25T13:36:16Z</time>
      </trkpt>
      <trkpt lat="43.37704" lon="6.12871">
        <ele>344.09805297852</ele>
        <time>2014-06-25T13:36:22Z</time>
      </trkpt>
      <trkpt lat="43.37706" lon="6.12849">
        <ele>344.00347900391</ele>
        <time>2014-06-25T13:36:28Z</time>
      </trkpt>
      <trkpt lat="43.37708" lon="6.12833">
        <ele>344.46658325195</ele>
        <time>2014-06-25T13:36:32Z</time>
      </trkpt>
      <trkpt lat="43.37709" lon="6.12819">
        <ele>344.51083374023</ele>
        <time>2014-06-25T13:36:35Z</time>
      </trkpt>
      <trkpt lat="43.37708" lon="6.12803">
        <ele>343.75344848633</ele>
        <time>2014-06-25T13:36:38Z</time>
      </trkpt>
      <trkpt lat="43.37704" lon="6.12786">
        <ele>341.90808105469</ele>
        <time>2014-06-25T13:36:41Z</time>
      </trkpt>
      <trkpt lat="43.37703" lon="6.12775">
        <ele>341.05908203125</ele>
        <time>2014-06-25T13:36:43Z</time>
      </trkpt>
      <trkpt lat="43.37702" lon="6.12769">
        <ele>340.64709472656</ele>
        <time>2014-06-25T13:36:44Z</time>
      </trkpt>
      <trkpt lat="43.37701" lon="6.12762">
        <ele>340.23510742188</ele>
        <time>2014-06-25T13:36:45Z</time>
      </trkpt>
      <trkpt lat="43.377" lon="6.1275">
        <ele>339.95379638672</ele>
        <time>2014-06-25T13:36:47Z</time>
      </trkpt>
      <trkpt lat="43.377" lon="6.12736">
        <ele>339.8918762207</ele>
        <time>2014-06-25T13:36:49Z</time>
      </trkpt>
      <trkpt lat="43.37699" lon="6.12724">
        <ele>339.36926269531</ele>
        <time>2014-06-25T13:36:51Z</time>
      </trkpt>
      <trkpt lat="43.37699" lon="6.12718">
        <ele>339.49795532227</ele>
        <time>2014-06-25T13:36:52Z</time>
      </trkpt>
      <trkpt lat="43.37698" lon="6.12711">
        <ele>339.66708374023</ele>
        <time>2014-06-25T13:36:53Z</time>
      </trkpt>
      <trkpt lat="43.37698" lon="6.12704">
        <ele>340.13665771484</ele>
        <time>2014-06-25T13:36:54Z</time>
      </trkpt>
      <trkpt lat="43.37703" lon="6.12649">
        <ele>341.39395141602</ele>
        <time>2014-06-25T13:37:03Z</time>
      </trkpt>
      <trkpt lat="43.37703" lon="6.12632">
        <ele>340.67593383789</ele>
        <time>2014-06-25T13:37:06Z</time>
      </trkpt>
      <trkpt lat="43.37703" lon="6.12614">
        <ele>339.02188110352</ele>
        <time>2014-06-25T13:37:09Z</time>
      </trkpt>
      <trkpt lat="43.37704" lon="6.12576">
        <ele>337.89447021484</ele>
        <time>2014-06-25T13:37:15Z</time>
      </trkpt>
      <trkpt lat="43.37708" lon="6.12544">
        <ele>337.28720092773</ele>
        <time>2014-06-25T13:37:20Z</time>
      </trkpt>
      <trkpt lat="43.3771" lon="6.12532">
        <ele>337.08645629883</ele>
        <time>2014-06-25T13:37:22Z</time>
      </trkpt>
      <trkpt lat="43.37713" lon="6.12515">
        <ele>337.04318237305</ele>
        <time>2014-06-25T13:37:25Z</time>
      </trkpt>
      <trkpt lat="43.37716" lon="6.12502">
        <ele>336.98086547852</ele>
        <time>2014-06-25T13:37:27Z</time>
      </trkpt>
      <trkpt lat="43.37723" lon="6.1248">
        <ele>335.98272705078</ele>
        <time>2014-06-25T13:37:30Z</time>
      </trkpt>
      <trkpt lat="43.37728" lon="6.12459">
        <ele>333.61129760742</ele>
        <time>2014-06-25T13:37:33Z</time>
      </trkpt>
      <trkpt lat="43.37729" lon="6.12445">
        <ele>331.3196105957</ele>
        <time>2014-06-25T13:37:35Z</time>
      </trkpt>
      <trkpt lat="43.37731" lon="6.12423">
        <ele>329.5075378418</ele>
        <time>2014-06-25T13:37:38Z</time>
      </trkpt>
      <trkpt lat="43.37732" lon="6.12406">
        <ele>326.96081542969</ele>
        <time>2014-06-25T13:37:40Z</time>
      </trkpt>
      <trkpt lat="43.37733" lon="6.12397">
        <ele>325.26025390625</ele>
        <time>2014-06-25T13:37:41Z</time>
      </trkpt>
      <trkpt lat="43.37734" lon="6.12389">
        <ele>323.88424682617</ele>
        <time>2014-06-25T13:37:42Z</time>
      </trkpt>
      <trkpt lat="43.37737" lon="6.12376">
        <ele>322.34503173828</ele>
        <time>2014-06-25T13:37:44Z</time>
      </trkpt>
      <trkpt lat="43.37738" lon="6.12369">
        <ele>321.54779052734</ele>
        <time>2014-06-25T13:37:45Z</time>
      </trkpt>
      <trkpt lat="43.37739" lon="6.12354">
        <ele>320.28363037109</ele>
        <time>2014-06-25T13:37:48Z</time>
      </trkpt>
      <trkpt lat="43.37738" lon="6.12349">
        <ele>320.24340820312</ele>
        <time>2014-06-25T13:37:49Z</time>
      </trkpt>
      <trkpt lat="43.37737" lon="6.12346">
        <ele>320.2177734375</ele>
        <time>2014-06-25T13:37:50Z</time>
      </trkpt>
      <trkpt lat="43.37735" lon="6.12343">
        <ele>320.19323730469</ele>
        <time>2014-06-25T13:37:51Z</time>
      </trkpt>
      <trkpt lat="43.37733" lon="6.12341">
        <ele>320.16131591797</ele>
        <time>2014-06-25T13:37:52Z</time>
      </trkpt>
      <trkpt lat="43.37732" lon="6.12339">
        <ele>320.13366699219</ele>
        <time>2014-06-25T13:37:53Z</time>
      </trkpt>
      <trkpt lat="43.37729" lon="6.12337">
        <ele>320.09002685547</ele>
        <time>2014-06-25T13:37:55Z</time>
      </trkpt>
      <trkpt lat="43.37729" lon="6.12336">
        <ele>320.08139038086</ele>
        <time>2014-06-25T13:37:57Z</time>
      </trkpt>
      <trkpt lat="43.37727" lon="6.12338">
        <ele>320.14358520508</ele>
        <time>2014-06-25T13:38:00Z</time>
      </trkpt>
      <trkpt lat="43.37724" lon="6.12339">
        <ele>320.19378662109</ele>
        <time>2014-06-25T13:38:02Z</time>
      </trkpt>
      <trkpt lat="43.37721" lon="6.12339">
        <ele>320.49182128906</ele>
        <time>2014-06-25T13:38:04Z</time>
      </trkpt>
      <trkpt lat="43.3772" lon="6.12339">
        <ele>320.93533325195</ele>
        <time>2014-06-25T13:38:05Z</time>
      </trkpt>
      <trkpt lat="43.37716" lon="6.12337">
        <ele>321.93884277344</ele>
        <time>2014-06-25T13:38:07Z</time>
      </trkpt>
      <trkpt lat="43.37714" lon="6.12333">
        <ele>322.78479003906</ele>
        <time>2014-06-25T13:38:11Z</time>
      </trkpt>
      <trkpt lat="43.37712" lon="6.12332">
        <ele>323.33428955078</ele>
        <time>2014-06-25T13:38:12Z</time>
      </trkpt>
      <trkpt lat="43.37711" lon="6.1233">
        <ele>324.3571472168</ele>
        <time>2014-06-25T13:38:15Z</time>
      </trkpt>
      <trkpt lat="43.37709" lon="6.12328">
        <ele>325.05078125</ele>
        <time>2014-06-25T13:38:17Z</time>
      </trkpt>
      <trkpt lat="43.37708" lon="6.12323">
        <ele>326.38668823242</ele>
        <time>2014-06-25T13:38:22Z</time>
      </trkpt>
      <trkpt lat="43.37708" lon="6.12317">
        <ele>327.30462646484</ele>
        <time>2014-06-25T13:38:25Z</time>
      </trkpt>
      <trkpt lat="43.37707" lon="6.12305">
        <ele>329.44338989258</ele>
        <time>2014-06-25T13:38:32Z</time>
      </trkpt>
      <trkpt lat="43.37701" lon="6.12293">
        <ele>332.93676757812</ele>
        <time>2014-06-25T13:38:38Z</time>
      </trkpt>
      <trkpt lat="43.37693" lon="6.12284">
        <ele>336.57708740234</ele>
        <time>2014-06-25T13:38:43Z</time>
      </trkpt>
      <trkpt lat="43.37683" lon="6.12277">
        <ele>340.03894042969</ele>
        <time>2014-06-25T13:38:48Z</time>
      </trkpt>
      <trkpt lat="43.37677" lon="6.12273">
        <ele>342.34268188477</ele>
        <time>2014-06-25T13:38:52Z</time>
      </trkpt>
      <trkpt lat="43.37673" lon="6.12272">
        <ele>343.39010620117</ele>
        <time>2014-06-25T13:38:55Z</time>
      </trkpt>
      <trkpt lat="43.37671" lon="6.12273">
        <ele>343.89880371094</ele>
        <time>2014-06-25T13:38:57Z</time>
      </trkpt>
      <trkpt lat="43.37667" lon="6.12275">
        <ele>344.57635498047</ele>
        <time>2014-06-25T13:38:59Z</time>
      </trkpt>
      <trkpt lat="43.37665" lon="6.12276">
        <ele>344.49835205078</ele>
        <time>2014-06-25T13:39:00Z</time>
      </trkpt>
      <trkpt lat="43.37661" lon="6.12282">
        <ele>344.02996826172</ele>
        <time>2014-06-25T13:39:04Z</time>
      </trkpt>
      <trkpt lat="43.37658" lon="6.12286">
        <ele>343.80914306641</ele>
        <time>2014-06-25T13:39:07Z</time>
      </trkpt>
      <trkpt lat="43.37656" lon="6.12289">
        <ele>343.75390625</ele>
        <time>2014-06-25T13:39:09Z</time>
      </trkpt>
      <trkpt lat="43.37654" lon="6.1229">
        <ele>343.78833007812</ele>
        <time>2014-06-25T13:39:10Z</time>
      </trkpt>
      <trkpt lat="43.37652" lon="6.12292">
        <ele>343.76187133789</ele>
        <time>2014-06-25T13:39:14Z</time>
      </trkpt>
      <trkpt lat="43.37651" lon="6.12293">
        <ele>343.78872680664</ele>
        <time>2014-06-25T13:39:19Z</time>
      </trkpt>
      <trkpt lat="43.37649" lon="6.12295">
        <ele>343.74337768555</ele>
        <time>2014-06-25T13:39:22Z</time>
      </trkpt>
      <trkpt lat="43.37649" lon="6.12296">
        <ele>343.67236328125</ele>
        <time>2014-06-25T13:39:23Z</time>
      </trkpt>
      <trkpt lat="43.37648" lon="6.12298">
        <ele>343.66439819336</ele>
        <time>2014-06-25T13:39:24Z</time>
      </trkpt>
      <trkpt lat="43.37645" lon="6.12302">
        <ele>343.44946289062</ele>
        <time>2014-06-25T13:39:26Z</time>
      </trkpt>
      <trkpt lat="43.37641" lon="6.12311">
        <ele>342.94198608398</ele>
        <time>2014-06-25T13:39:31Z</time>
      </trkpt>
      <trkpt lat="43.37642" lon="6.12312">
        <ele>342.62612915039</ele>
        <time>2014-06-25T13:39:32Z</time>
      </trkpt>
      <trkpt lat="43.37642" lon="6.12314">
        <ele>342.36520385742</ele>
        <time>2014-06-25T13:39:33Z</time>
      </trkpt>
      <trkpt lat="43.3764" lon="6.12319">
        <ele>341.98754882812</ele>
        <time>2014-06-25T13:39:35Z</time>
      </trkpt>
      <trkpt lat="43.37635" lon="6.12328">
        <ele>341.05285644531</ele>
        <time>2014-06-25T13:39:38Z</time>
      </trkpt>
      <trkpt lat="43.37633" lon="6.12333">
        <ele>340.43881225586</ele>
        <time>2014-06-25T13:39:40Z</time>
      </trkpt>
      <trkpt lat="43.37627" lon="6.12344">
        <ele>339.88543701172</ele>
        <time>2014-06-25T13:39:45Z</time>
      </trkpt>
      <trkpt lat="43.37625" lon="6.12356">
        <ele>338.99105834961</ele>
        <time>2014-06-25T13:39:51Z</time>
      </trkpt>
      <trkpt lat="43.37625" lon="6.12364">
        <ele>338.42379760742</ele>
        <time>2014-06-25T13:39:55Z</time>
      </trkpt>
      <trkpt lat="43.37625" lon="6.12368">
        <ele>338.22467041016</ele>
        <time>2014-06-25T13:39:57Z</time>
      </trkpt>
      <trkpt lat="43.37623" lon="6.12375">
        <ele>338.22982788086</ele>
        <time>2014-06-25T13:40:01Z</time>
      </trkpt>
      <trkpt lat="43.37625" lon="6.12377">
        <ele>337.94143676758</ele>
        <time>2014-06-25T13:40:02Z</time>
      </trkpt>
      <trkpt lat="43.37629" lon="6.12384">
        <ele>337.28741455078</ele>
        <time>2014-06-25T13:40:05Z</time>
      </trkpt>
      <trkpt lat="43.37637" lon="6.12395">
        <ele>336.15591430664</ele>
        <time>2014-06-25T13:40:12Z</time>
      </trkpt>
      <trkpt lat="43.37639" lon="6.12406">
        <ele>335.96246337891</ele>
        <time>2014-06-25T13:40:18Z</time>
      </trkpt>
      <trkpt lat="43.37639" lon="6.12408">
        <ele>335.96246337891</ele>
        <time>2014-06-25T13:40:19Z</time>
      </trkpt>
      <trkpt lat="43.37637" lon="6.12425">
        <ele>336.13977050781</ele>
        <time>2014-06-25T13:40:28Z</time>
      </trkpt>
      <trkpt lat="43.37637" lon="6.12438">
        <ele>336.1123046875</ele>
        <time>2014-06-25T13:40:35Z</time>
      </trkpt>
      <trkpt lat="43.37637" lon="6.12439">
        <ele>336.1123046875</ele>
        <time>2014-06-25T13:40:36Z</time>
      </trkpt>
      <trkpt lat="43.37638" lon="6.1244">
        <ele>336.08483886719</ele>
        <time>2014-06-25T13:40:37Z</time>
      </trkpt>
      <trkpt lat="43.37638" lon="6.12441">
        <ele>336.08483886719</ele>
        <time>2014-06-25T13:40:38Z</time>
      </trkpt>
      <trkpt lat="43.37638" lon="6.12441">
        <ele>336.08483886719</ele>
        <time>2014-06-25T13:40:51Z</time>
      </trkpt>
      <trkpt lat="43.37638" lon="6.12441">
        <ele>336.08483886719</ele>
        <time>2014-06-25T13:41:17Z</time>
      </trkpt>
      <trkpt lat="43.37638" lon="6.12441">
        <ele>336.08483886719</ele>
        <time>2014-06-25T13:41:19Z</time>
      </trkpt>
      <trkpt lat="43.37638" lon="6.12441">
        <ele>336.08483886719</ele>
        <time>2014-06-25T13:41:39Z</time>
      </trkpt>
      <trkpt lat="43.37638" lon="6.12441">
        <ele>336.08483886719</ele>
        <time>2014-06-25T13:41:53Z</time>
      </trkpt>
      <trkpt lat="43.37638" lon="6.12441">
        <ele>336.05737304688</ele>
        <time>2014-06-25T13:42:00Z</time>
      </trkpt>
      <trkpt lat="43.37638" lon="6.12441">
        <ele>336.05737304688</ele>
        <time>2014-06-25T13:42:19Z</time>
      </trkpt>
      <trkpt lat="43.37638" lon="6.12441">
        <ele>336.05737304688</ele>
        <time>2014-06-25T13:42:37Z</time>
      </trkpt>
      <trkpt lat="43.37638" lon="6.12442">
        <ele>336.05737304688</ele>
        <time>2014-06-25T13:42:44Z</time>
      </trkpt>
      <trkpt lat="43.37638" lon="6.12442">
        <ele>336.05737304688</ele>
        <time>2014-06-25T13:42:57Z</time>
      </trkpt>
      <trkpt lat="43.37638" lon="6.12442">
        <ele>336.08483886719</ele>
        <time>2014-06-25T13:43:19Z</time>
      </trkpt>
      <trkpt lat="43.37638" lon="6.12442">
        <ele>336.08483886719</ele>
        <time>2014-06-25T13:43:41Z</time>
      </trkpt>
      <trkpt lat="43.37638" lon="6.12442">
        <ele>336.08483886719</ele>
        <time>2014-06-25T13:43:55Z</time>
      </trkpt>
      <trkpt lat="43.37637" lon="6.12443">
        <ele>336.1123046875</ele>
        <time>2014-06-25T13:44:00Z</time>
      </trkpt>
      <trkpt lat="43.37637" lon="6.12443">
        <ele>336.1123046875</ele>
        <time>2014-06-25T13:44:25Z</time>
      </trkpt>
      <trkpt lat="43.37638" lon="6.12443">
        <ele>336.08483886719</ele>
        <time>2014-06-25T13:45:05Z</time>
      </trkpt>
      <trkpt lat="43.37638" lon="6.12443">
        <ele>336.08483886719</ele>
        <time>2014-06-25T13:45:15Z</time>
      </trkpt>
      <trkpt lat="43.37637" lon="6.12445">
        <ele>336.16723632812</ele>
        <time>2014-06-25T13:45:20Z</time>
      </trkpt>
      <trkpt lat="43.37637" lon="6.12445">
        <ele>336.16723632812</ele>
        <time>2014-06-25T13:45:50Z</time>
      </trkpt>
      <trkpt lat="43.37637" lon="6.12445">
        <ele>336.16723632812</ele>
        <time>2014-06-25T13:46:19Z</time>
      </trkpt>
      <trkpt lat="43.37637" lon="6.12445">
        <ele>336.13977050781</ele>
        <time>2014-06-25T13:46:48Z</time>
      </trkpt>
      <trkpt lat="43.37636" lon="6.12446">
        <ele>336.19470214844</ele>
        <time>2014-06-25T13:46:53Z</time>
      </trkpt>
      <trkpt lat="43.37636" lon="6.12446">
        <ele>336.19470214844</ele>
        <time>2014-06-25T13:47:10Z</time>
      </trkpt>
      <trkpt lat="43.37636" lon="6.12446">
        <ele>336.22216796875</ele>
        <time>2014-06-25T13:47:40Z</time>
      </trkpt>
      <trkpt lat="43.37636" lon="6.12446">
        <ele>336.22216796875</ele>
        <time>2014-06-25T13:47:57Z</time>
      </trkpt>
      <trkpt lat="43.37636" lon="6.12446">
        <ele>336.22216796875</ele>
        <time>2014-06-25T13:48:11Z</time>
      </trkpt>
      <trkpt lat="43.37636" lon="6.12447">
        <ele>336.22216796875</ele>
        <time>2014-06-25T13:48:12Z</time>
      </trkpt>
      <trkpt lat="43.37636" lon="6.12447">
        <ele>336.22216796875</ele>
        <time>2014-06-25T13:48:26Z</time>
      </trkpt>
      <trkpt lat="43.37637" lon="6.12449">
        <ele>336.16723632812</ele>
        <time>2014-06-25T13:48:29Z</time>
      </trkpt>
      <trkpt lat="43.37636" lon="6.12451">
        <ele>336.22216796875</ele>
        <time>2014-06-25T13:48:31Z</time>
      </trkpt>
      <trkpt lat="43.37633" lon="6.12458">
        <ele>336.44189453125</ele>
        <time>2014-06-25T13:48:34Z</time>
      </trkpt>
      <trkpt lat="43.37631" lon="6.12466">
        <ele>336.57922363281</ele>
        <time>2014-06-25T13:48:37Z</time>
      </trkpt>
      <trkpt lat="43.37629" lon="6.12476">
        <ele>336.9501953125</ele>
        <time>2014-06-25T13:48:42Z</time>
      </trkpt>
      <trkpt lat="43.37629" lon="6.12479">
        <ele>337.09622192383</ele>
        <time>2014-06-25T13:48:43Z</time>
      </trkpt>
      <trkpt lat="43.37626" lon="6.12486">
        <ele>337.62670898438</ele>
        <time>2014-06-25T13:48:46Z</time>
      </trkpt>
      <trkpt lat="43.37615" lon="6.1249">
        <ele>338.95199584961</ele>
        <time>2014-06-25T13:48:52Z</time>
      </trkpt>
      <trkpt lat="43.3761" lon="6.12489">
        <ele>339.39031982422</ele>
        <time>2014-06-25T13:48:55Z</time>
      </trkpt>
      <trkpt lat="43.37609" lon="6.12489">
        <ele>339.55856323242</ele>
        <time>2014-06-25T13:48:56Z</time>
      </trkpt>
      <trkpt lat="43.37608" lon="6.12489">
        <ele>339.6787109375</ele>
        <time>2014-06-25T13:48:57Z</time>
      </trkpt>
      <trkpt lat="43.376" lon="6.12487">
        <ele>340.98333740234</ele>
        <time>2014-06-25T13:49:03Z</time>
      </trkpt>
      <trkpt lat="43.37597" lon="6.12489">
        <ele>341.78674316406</ele>
        <time>2014-06-25T13:49:06Z</time>
      </trkpt>
      <trkpt lat="43.37596" lon="6.12491">
        <ele>342.12661743164</ele>
        <time>2014-06-25T13:49:08Z</time>
      </trkpt>
      <trkpt lat="43.37593" lon="6.12492">
        <ele>342.63473510742</ele>
        <time>2014-06-25T13:49:10Z</time>
      </trkpt>
      <trkpt lat="43.37593" lon="6.12492">
        <ele>342.63473510742</ele>
        <time>2014-06-25T13:49:11Z</time>
      </trkpt>
      <trkpt lat="43.37588" lon="6.12498">
        <ele>343.98400878906</ele>
        <time>2014-06-25T13:49:14Z</time>
      </trkpt>
      <trkpt lat="43.37586" lon="6.12499">
        <ele>344.48867797852</ele>
        <time>2014-06-25T13:49:15Z</time>
      </trkpt>
      <trkpt lat="43.37584" lon="6.125">
        <ele>344.96246337891</ele>
        <time>2014-06-25T13:49:16Z</time>
      </trkpt>
      <trkpt lat="43.37581" lon="6.12503">
        <ele>345.44311523438</ele>
        <time>2014-06-25T13:49:19Z</time>
      </trkpt>
      <trkpt lat="43.37579" lon="6.12503">
        <ele>345.7177734375</ele>
        <time>2014-06-25T13:49:20Z</time>
      </trkpt>
      <trkpt lat="43.37575" lon="6.12506">
        <ele>346.54174804688</ele>
        <time>2014-06-25T13:49:22Z</time>
      </trkpt>
      <trkpt lat="43.37574" lon="6.12507">
        <ele>346.67907714844</ele>
        <time>2014-06-25T13:49:23Z</time>
      </trkpt>
      <trkpt lat="43.37569" lon="6.1251">
        <ele>347.50305175781</ele>
        <time>2014-06-25T13:49:26Z</time>
      </trkpt>
      <trkpt lat="43.37566" lon="6.12513">
        <ele>348.12103271484</ele>
        <time>2014-06-25T13:49:29Z</time>
      </trkpt>
      <trkpt lat="43.37564" lon="6.12513">
        <ele>348.46435546875</ele>
        <time>2014-06-25T13:49:30Z</time>
      </trkpt>
      <trkpt lat="43.37561" lon="6.12512">
        <ele>348.94500732422</ele>
        <time>2014-06-25T13:49:33Z</time>
      </trkpt>
      <trkpt lat="43.37556" lon="6.12511">
        <ele>349.97497558594</ele>
        <time>2014-06-25T13:49:37Z</time>
      </trkpt>
      <trkpt lat="43.37551" lon="6.12511">
        <ele>351.00164794922</ele>
        <time>2014-06-25T13:49:41Z</time>
      </trkpt>
      <trkpt lat="43.3755" lon="6.1251">
        <ele>351.22619628906</ele>
        <time>2014-06-25T13:49:42Z</time>
      </trkpt>
      <trkpt lat="43.37545" lon="6.12507">
        <ele>352.02105712891</ele>
        <time>2014-06-25T13:49:46Z</time>
      </trkpt>
      <trkpt lat="43.37543" lon="6.12503">
        <ele>352.35015869141</ele>
        <time>2014-06-25T13:49:49Z</time>
      </trkpt>
      <trkpt lat="43.37542" lon="6.125">
        <ele>352.44604492188</ele>
        <time>2014-06-25T13:49:52Z</time>
      </trkpt>
      <trkpt lat="43.37542" lon="6.12495">
        <ele>352.35952758789</ele>
        <time>2014-06-25T13:49:55Z</time>
      </trkpt>
      <trkpt lat="43.37542" lon="6.12484">
        <ele>352.22451782227</ele>
        <time>2014-06-25T13:50:01Z</time>
      </trkpt>
      <trkpt lat="43.3754" lon="6.12475">
        <ele>352.22540283203</ele>
        <time>2014-06-25T13:50:06Z</time>
      </trkpt>
      <trkpt lat="43.37542" lon="6.12469">
        <ele>351.87866210938</ele>
        <time>2014-06-25T13:50:10Z</time>
      </trkpt>
      <trkpt lat="43.37543" lon="6.12465">
        <ele>351.61856079102</ele>
        <time>2014-06-25T13:50:13Z</time>
      </trkpt>
      <trkpt lat="43.37542" lon="6.12456">
        <ele>351.3720703125</ele>
        <time>2014-06-25T13:50:16Z</time>
      </trkpt>
      <trkpt lat="43.37543" lon="6.12453">
        <ele>351.21099853516</ele>
        <time>2014-06-25T13:50:19Z</time>
      </trkpt>
      <trkpt lat="43.37542" lon="6.12447">
        <ele>351.08755493164</ele>
        <time>2014-06-25T13:50:25Z</time>
      </trkpt>
      <trkpt lat="43.37542" lon="6.12447">
        <ele>351.08755493164</ele>
        <time>2014-06-25T13:50:30Z</time>
      </trkpt>
      <trkpt lat="43.37541" lon="6.12446">
        <ele>351.09063720703</ele>
        <time>2014-06-25T13:50:32Z</time>
      </trkpt>
      <trkpt lat="43.3754" lon="6.12445">
        <ele>351.12008666992</ele>
        <time>2014-06-25T13:50:33Z</time>
      </trkpt>
      <trkpt lat="43.37536" lon="6.12441">
        <ele>351.22384643555</ele>
        <time>2014-06-25T13:50:35Z</time>
      </trkpt>
      <trkpt lat="43.37535" lon="6.12438">
        <ele>351.17367553711</ele>
        <time>2014-06-25T13:50:36Z</time>
      </trkpt>
      <trkpt lat="43.37533" lon="6.12435">
        <ele>351.07162475586</ele>
        <time>2014-06-25T13:50:37Z</time>
      </trkpt>
      <trkpt lat="43.37532" lon="6.12428">
        <ele>350.69879150391</ele>
        <time>2014-06-25T13:50:39Z</time>
      </trkpt>
      <trkpt lat="43.37527" lon="6.12417">
        <ele>350.15258789062</ele>
        <time>2014-06-25T13:50:42Z</time>
      </trkpt>
      <trkpt lat="43.37522" lon="6.1241">
        <ele>350.2666015625</ele>
        <time>2014-06-25T13:50:44Z</time>
      </trkpt>
      <trkpt lat="43.37521" lon="6.12405">
        <ele>350.13375854492</ele>
        <time>2014-06-25T13:50:45Z</time>
      </trkpt>
      <trkpt lat="43.37512" lon="6.124">
        <ele>350.37313842773</ele>
        <time>2014-06-25T13:50:47Z</time>
      </trkpt>
      <trkpt lat="43.37509" lon="6.12396">
        <ele>350.2946472168</ele>
        <time>2014-06-25T13:50:48Z</time>
      </trkpt>
      <trkpt lat="43.37506" lon="6.12393">
        <ele>350.13684082031</ele>
        <time>2014-06-25T13:50:49Z</time>
      </trkpt>
      <trkpt lat="43.37504" lon="6.12388">
        <ele>349.80615234375</ele>
        <time>2014-06-25T13:50:50Z</time>
      </trkpt>
      <trkpt lat="43.37503" lon="6.12382">
        <ele>349.56204223633</ele>
        <time>2014-06-25T13:50:51Z</time>
      </trkpt>
      <trkpt lat="43.37508" lon="6.1237">
        <ele>348.64562988281</ele>
        <time>2014-06-25T13:50:53Z</time>
      </trkpt>
      <trkpt lat="43.37516" lon="6.12342">
        <ele>345.27517700195</ele>
        <time>2014-06-25T13:50:57Z</time>
      </trkpt>
      <trkpt lat="43.37517" lon="6.12328">
        <ele>343.59118652344</ele>
        <time>2014-06-25T13:50:59Z</time>
      </trkpt>
      <trkpt lat="43.37519" lon="6.12322">
        <ele>342.73114013672</ele>
        <time>2014-06-25T13:51:00Z</time>
      </trkpt>
      <trkpt lat="43.37521" lon="6.12316">
        <ele>341.93807983398</ele>
        <time>2014-06-25T13:51:01Z</time>
      </trkpt>
      <trkpt lat="43.37523" lon="6.1231">
        <ele>341.08834838867</ele>
        <time>2014-06-25T13:51:02Z</time>
      </trkpt>
      <trkpt lat="43.37523" lon="6.12305">
        <ele>340.48626708984</ele>
        <time>2014-06-25T13:51:03Z</time>
      </trkpt>
      <trkpt lat="43.37524" lon="6.12301">
        <ele>340.3805847168</ele>
        <time>2014-06-25T13:51:04Z</time>
      </trkpt>
      <trkpt lat="43.37521" lon="6.12268">
        <ele>340.51684570312</ele>
        <time>2014-06-25T13:51:09Z</time>
      </trkpt>
      <trkpt lat="43.37521" lon="6.12254">
        <ele>340.48937988281</ele>
        <time>2014-06-25T13:51:12Z</time>
      </trkpt>
      <trkpt lat="43.3752" lon="6.1225">
        <ele>340.54431152344</ele>
        <time>2014-06-25T13:51:13Z</time>
      </trkpt>
      <trkpt lat="43.37517" lon="6.12237">
        <ele>340.94772338867</ele>
        <time>2014-06-25T13:51:17Z</time>
      </trkpt>
      <trkpt lat="43.37516" lon="6.12234">
        <ele>341.12301635742</ele>
        <time>2014-06-25T13:51:24Z</time>
      </trkpt>
      <trkpt lat="43.37516" lon="6.12234">
        <ele>341.12301635742</ele>
        <time>2014-06-25T13:51:42Z</time>
      </trkpt>
      <trkpt lat="43.37516" lon="6.12234">
        <ele>341.12301635742</ele>
        <time>2014-06-25T13:51:56Z</time>
      </trkpt>
      <trkpt lat="43.37515" lon="6.12232">
        <ele>341.22787475586</ele>
        <time>2014-06-25T13:52:02Z</time>
      </trkpt>
      <trkpt lat="43.37515" lon="6.12232">
        <ele>341.22787475586</ele>
        <time>2014-06-25T13:52:15Z</time>
      </trkpt>
      <trkpt lat="43.37517" lon="6.12228">
        <ele>341.06707763672</ele>
        <time>2014-06-25T13:52:19Z</time>
      </trkpt>
      <trkpt lat="43.37522" lon="6.12222">
        <ele>340.6510925293</ele>
        <time>2014-06-25T13:52:21Z</time>
      </trkpt>
      <trkpt lat="43.37533" lon="6.12203">
        <ele>339.69418334961</ele>
        <time>2014-06-25T13:52:26Z</time>
      </trkpt>
      <trkpt lat="43.3754" lon="6.12194">
        <ele>339.15536499023</ele>
        <time>2014-06-25T13:52:29Z</time>
      </trkpt>
      <trkpt lat="43.37542" lon="6.1219">
        <ele>339.06195068359</ele>
        <time>2014-06-25T13:52:30Z</time>
      </trkpt>
      <trkpt lat="43.37544" lon="6.12186">
        <ele>338.94323730469</ele>
        <time>2014-06-25T13:52:31Z</time>
      </trkpt>
      <trkpt lat="43.37547" lon="6.12182">
        <ele>338.76419067383</ele>
        <time>2014-06-25T13:52:32Z</time>
      </trkpt>
      <trkpt lat="43.37556" lon="6.12169">
        <ele>338.00186157227</ele>
        <time>2014-06-25T13:52:35Z</time>
      </trkpt>
      <trkpt lat="43.37559" lon="6.12165">
        <ele>337.98559570312</ele>
        <time>2014-06-25T13:52:36Z</time>
      </trkpt>
      <trkpt lat="43.37564" lon="6.12146">
        <ele>337.53448486328</ele>
        <time>2014-06-25T13:52:40Z</time>
      </trkpt>
      <trkpt lat="43.3757" lon="6.12134">
        <ele>336.87866210938</ele>
        <time>2014-06-25T13:52:43Z</time>
      </trkpt>
      <trkpt lat="43.37583" lon="6.12121">
        <ele>335.41754150391</ele>
        <time>2014-06-25T13:52:46Z</time>
      </trkpt>
      <trkpt lat="43.37589" lon="6.1211">
        <ele>335.15347290039</ele>
        <time>2014-06-25T13:52:48Z</time>
      </trkpt>
      <trkpt lat="43.37594" lon="6.12095">
        <ele>333.79382324219</ele>
        <time>2014-06-25T13:52:51Z</time>
      </trkpt>
      <trkpt lat="43.37601" lon="6.12073">
        <ele>331.63339233398</ele>
        <time>2014-06-25T13:52:55Z</time>
      </trkpt>
      <trkpt lat="43.37613" lon="6.12038">
        <ele>328.60348510742</ele>
        <time>2014-06-25T13:53:02Z</time>
      </trkpt>
      <trkpt lat="43.37615" lon="6.12032">
        <ele>328.00839233398</ele>
        <time>2014-06-25T13:53:03Z</time>
      </trkpt>
      <trkpt lat="43.37623" lon="6.12017">
        <ele>325.6907043457</ele>
        <time>2014-06-25T13:53:06Z</time>
      </trkpt>
      <trkpt lat="43.37629" lon="6.12008">
        <ele>323.44586181641</ele>
        <time>2014-06-25T13:53:08Z</time>
      </trkpt>
      <trkpt lat="43.37632" lon="6.11998">
        <ele>321.48352050781</ele>
        <time>2014-06-25T13:53:10Z</time>
      </trkpt>
      <trkpt lat="43.37632" lon="6.11991">
        <ele>321.07849121094</ele>
        <time>2014-06-25T13:53:11Z</time>
      </trkpt>
      <trkpt lat="43.37631" lon="6.11985">
        <ele>320.96484375</ele>
        <time>2014-06-25T13:53:12Z</time>
      </trkpt>
      <trkpt lat="43.3763" lon="6.11981">
        <ele>320.90893554688</ele>
        <time>2014-06-25T13:53:13Z</time>
      </trkpt>
      <trkpt lat="43.37627" lon="6.11972">
        <ele>321.04010009766</ele>
        <time>2014-06-25T13:53:15Z</time>
      </trkpt>
      <trkpt lat="43.37625" lon="6.11967">
        <ele>321.28060913086</ele>
        <time>2014-06-25T13:53:16Z</time>
      </trkpt>
      <trkpt lat="43.37621" lon="6.1196">
        <ele>321.48794555664</ele>
        <time>2014-06-25T13:53:17Z</time>
      </trkpt>
      <trkpt lat="43.37614" lon="6.11948">
        <ele>321.78948974609</ele>
        <time>2014-06-25T13:53:19Z</time>
      </trkpt>
      <trkpt lat="43.37612" lon="6.11942">
        <ele>321.76571655273</ele>
        <time>2014-06-25T13:53:21Z</time>
      </trkpt>
      <trkpt lat="43.37612" lon="6.11942">
        <ele>321.76571655273</ele>
        <time>2014-06-25T13:53:39Z</time>
      </trkpt>
      <trkpt lat="43.37611" lon="6.11938">
        <ele>321.80834960938</ele>
        <time>2014-06-25T13:53:46Z</time>
      </trkpt>
      <trkpt lat="43.37611" lon="6.11938">
        <ele>321.80834960938</ele>
        <time>2014-06-25T13:54:06Z</time>
      </trkpt>
      <trkpt lat="43.37611" lon="6.11938">
        <ele>321.80834960938</ele>
        <time>2014-06-25T13:54:13Z</time>
      </trkpt>
      <trkpt lat="43.37611" lon="6.11937">
        <ele>321.73968505859</ele>
        <time>2014-06-25T13:54:29Z</time>
      </trkpt>
      <trkpt lat="43.37612" lon="6.11935">
        <ele>321.49276733398</ele>
        <time>2014-06-25T13:54:34Z</time>
      </trkpt>
      <trkpt lat="43.37613" lon="6.11926">
        <ele>321.01385498047</ele>
        <time>2014-06-25T13:54:36Z</time>
      </trkpt>
      <trkpt lat="43.37621" lon="6.11913">
        <ele>319.38821411133</ele>
        <time>2014-06-25T13:54:39Z</time>
      </trkpt>
      <trkpt lat="43.37625" lon="6.11907">
        <ele>318.69470214844</ele>
        <time>2014-06-25T13:54:40Z</time>
      </trkpt>
      <trkpt lat="43.37632" lon="6.11895">
        <ele>317.17376708984</ele>
        <time>2014-06-25T13:54:42Z</time>
      </trkpt>
      <trkpt lat="43.37637" lon="6.11889">
        <ele>316.32690429688</ele>
        <time>2014-06-25T13:54:43Z</time>
      </trkpt>
      <trkpt lat="43.37641" lon="6.11881">
        <ele>315.70663452148</ele>
        <time>2014-06-25T13:54:44Z</time>
      </trkpt>
      <trkpt lat="43.37646" lon="6.11875">
        <ele>315.37530517578</ele>
        <time>2014-06-25T13:54:45Z</time>
      </trkpt>
      <trkpt lat="43.37656" lon="6.11861">
        <ele>314.39288330078</ele>
        <time>2014-06-25T13:54:47Z</time>
      </trkpt>
      <trkpt lat="43.37661" lon="6.11855">
        <ele>313.79183959961</ele>
        <time>2014-06-25T13:54:48Z</time>
      </trkpt>
      <trkpt lat="43.37667" lon="6.11849">
        <ele>313.16390991211</ele>
        <time>2014-06-25T13:54:49Z</time>
      </trkpt>
      <trkpt lat="43.37671" lon="6.11843">
        <ele>312.70385742188</ele>
        <time>2014-06-25T13:54:50Z</time>
      </trkpt>
      <trkpt lat="43.37674" lon="6.11836">
        <ele>312.212890625</ele>
        <time>2014-06-25T13:54:51Z</time>
      </trkpt>
      <trkpt lat="43.37677" lon="6.1183">
        <ele>311.81686401367</ele>
        <time>2014-06-25T13:54:52Z</time>
      </trkpt>
      <trkpt lat="43.37694" lon="6.11793">
        <ele>309.09939575195</ele>
        <time>2014-06-25T13:54:56Z</time>
      </trkpt>
      <trkpt lat="43.37705" lon="6.11766">
        <ele>306.60269165039</ele>
        <time>2014-06-25T13:54:59Z</time>
      </trkpt>
      <trkpt lat="43.3771" lon="6.11757">
        <ele>305.57153320312</ele>
        <time>2014-06-25T13:55:00Z</time>
      </trkpt>
      <trkpt lat="43.37719" lon="6.11739">
        <ele>303.47357177734</ele>
        <time>2014-06-25T13:55:02Z</time>
      </trkpt>
      <trkpt lat="43.37733" lon="6.11711">
        <ele>301.16979980469</ele>
        <time>2014-06-25T13:55:05Z</time>
      </trkpt>
      <trkpt lat="43.37746" lon="6.11683">
        <ele>299.57208251953</ele>
        <time>2014-06-25T13:55:08Z</time>
      </trkpt>
      <trkpt lat="43.37753" lon="6.11665">
        <ele>298.83181762695</ele>
        <time>2014-06-25T13:55:10Z</time>
      </trkpt>
      <trkpt lat="43.37762" lon="6.11648">
        <ele>298.1741027832</ele>
        <time>2014-06-25T13:55:12Z</time>
      </trkpt>
      <trkpt lat="43.37767" lon="6.11639">
        <ele>297.99279785156</ele>
        <time>2014-06-25T13:55:13Z</time>
      </trkpt>
      <trkpt lat="43.37785" lon="6.11613">
        <ele>296.8073425293</ele>
        <time>2014-06-25T13:55:16Z</time>
      </trkpt>
      <trkpt lat="43.37798" lon="6.11598">
        <ele>295.80657958984</ele>
        <time>2014-06-25T13:55:18Z</time>
      </trkpt>
      <trkpt lat="43.37809" lon="6.11584">
        <ele>295.02212524414</ele>
        <time>2014-06-25T13:55:20Z</time>
      </trkpt>
      <trkpt lat="43.37819" lon="6.11571">
        <ele>294.79550170898</ele>
        <time>2014-06-25T13:55:22Z</time>
      </trkpt>
      <trkpt lat="43.37822" lon="6.11564">
        <ele>294.57662963867</ele>
        <time>2014-06-25T13:55:23Z</time>
      </trkpt>
      <trkpt lat="43.3783" lon="6.11548">
        <ele>293.87631225586</ele>
        <time>2014-06-25T13:55:25Z</time>
      </trkpt>
      <trkpt lat="43.37841" lon="6.11523">
        <ele>293.2262878418</ele>
        <time>2014-06-25T13:55:28Z</time>
      </trkpt>
      <trkpt lat="43.37855" lon="6.11493">
        <ele>292.94345092773</ele>
        <time>2014-06-25T13:55:32Z</time>
      </trkpt>
      <trkpt lat="43.37865" lon="6.11483">
        <ele>293.05014038086</ele>
        <time>2014-06-25T13:55:34Z</time>
      </trkpt>
      <trkpt lat="43.37875" lon="6.11478">
        <ele>293.11282348633</ele>
        <time>2014-06-25T13:55:36Z</time>
      </trkpt>
      <trkpt lat="43.3788" lon="6.11477">
        <ele>293.11526489258</ele>
        <time>2014-06-25T13:55:37Z</time>
      </trkpt>
      <trkpt lat="43.37903" lon="6.11461">
        <ele>293.501953125</ele>
        <time>2014-06-25T13:55:42Z</time>
      </trkpt>
      <trkpt lat="43.37913" lon="6.1145">
        <ele>293.87274169922</ele>
        <time>2014-06-25T13:55:45Z</time>
      </trkpt>
      <trkpt lat="43.3792" lon="6.11441">
        <ele>294.01358032227</ele>
        <time>2014-06-25T13:55:47Z</time>
      </trkpt>
      <trkpt lat="43.37926" lon="6.11435">
        <ele>294.13427734375</ele>
        <time>2014-06-25T13:55:49Z</time>
      </trkpt>
      <trkpt lat="43.37934" lon="6.11422">
        <ele>294.30618286133</ele>
        <time>2014-06-25T13:55:52Z</time>
      </trkpt>
      <trkpt lat="43.37951" lon="6.11395">
        <ele>294.45837402344</ele>
        <time>2014-06-25T13:55:58Z</time>
      </trkpt>
      <trkpt lat="43.37968" lon="6.11377">
        <ele>294.40686035156</ele>
        <time>2014-06-25T13:56:03Z</time>
      </trkpt>
      <trkpt lat="43.37974" lon="6.1137">
        <ele>294.36395263672</ele>
        <time>2014-06-25T13:56:05Z</time>
      </trkpt>
      <trkpt lat="43.37979" lon="6.11362">
        <ele>294.29013061523</ele>
        <time>2014-06-25T13:56:07Z</time>
      </trkpt>
      <trkpt lat="43.37987" lon="6.1135">
        <ele>294.30694580078</ele>
        <time>2014-06-25T13:56:10Z</time>
      </trkpt>
      <trkpt lat="43.37999" lon="6.11329">
        <ele>293.99435424805</ele>
        <time>2014-06-25T13:56:15Z</time>
      </trkpt>
      <trkpt lat="43.38014" lon="6.11299">
        <ele>293.7705078125</ele>
        <time>2014-06-25T13:56:22Z</time>
      </trkpt>
      <trkpt lat="43.38027" lon="6.11281">
        <ele>293.11819458008</ele>
        <time>2014-06-25T13:56:27Z</time>
      </trkpt>
      <trkpt lat="43.3803" lon="6.11278">
        <ele>293.00833129883</ele>
        <time>2014-06-25T13:56:28Z</time>
      </trkpt>
      <trkpt lat="43.38038" lon="6.11261">
        <ele>292.39208984375</ele>
        <time>2014-06-25T13:56:32Z</time>
      </trkpt>
      <trkpt lat="43.38046" lon="6.11239">
        <ele>291.74224853516</ele>
        <time>2014-06-25T13:56:37Z</time>
      </trkpt>
      <trkpt lat="43.38052" lon="6.11223">
        <ele>291.16421508789</ele>
        <time>2014-06-25T13:56:41Z</time>
      </trkpt>
      <trkpt lat="43.38067" lon="6.11199">
        <ele>290.65246582031</ele>
        <time>2014-06-25T13:56:47Z</time>
      </trkpt>
      <trkpt lat="43.38085" lon="6.11177">
        <ele>289.958984375</ele>
        <time>2014-06-25T13:56:53Z</time>
      </trkpt>
      <trkpt lat="43.38099" lon="6.11164">
        <ele>289.32952880859</ele>
        <time>2014-06-25T13:56:58Z</time>
      </trkpt>
      <trkpt lat="43.38115" lon="6.11148">
        <ele>288.20513916016</ele>
        <time>2014-06-25T13:57:02Z</time>
      </trkpt>
      <trkpt lat="43.38131" lon="6.1113">
        <ele>287.27203369141</ele>
        <time>2014-06-25T13:57:06Z</time>
      </trkpt>
      <trkpt lat="43.38143" lon="6.11116">
        <ele>286.56719970703</ele>
        <time>2014-06-25T13:57:09Z</time>
      </trkpt>
      <trkpt lat="43.3815" lon="6.11105">
        <ele>285.52633666992</ele>
        <time>2014-06-25T13:57:11Z</time>
      </trkpt>
      <trkpt lat="43.38156" lon="6.11092">
        <ele>284.47918701172</ele>
        <time>2014-06-25T13:57:13Z</time>
      </trkpt>
      <trkpt lat="43.38158" lon="6.11085">
        <ele>283.94705200195</ele>
        <time>2014-06-25T13:57:14Z</time>
      </trkpt>
      <trkpt lat="43.3817" lon="6.1104">
        <ele>281.56430053711</ele>
        <time>2014-06-25T13:57:20Z</time>
      </trkpt>
      <trkpt lat="43.38173" lon="6.11026">
        <ele>281.14544677734</ele>
        <time>2014-06-25T13:57:22Z</time>
      </trkpt>
      <trkpt lat="43.38173" lon="6.11019">
        <ele>280.90682983398</ele>
        <time>2014-06-25T13:57:23Z</time>
      </trkpt>
      <trkpt lat="43.38175" lon="6.11011">
        <ele>280.68710327148</ele>
        <time>2014-06-25T13:57:24Z</time>
      </trkpt>
      <trkpt lat="43.38178" lon="6.10996">
        <ele>280.24420166016</ele>
        <time>2014-06-25T13:57:26Z</time>
      </trkpt>
      <trkpt lat="43.38186" lon="6.10956">
        <ele>279.29229736328</ele>
        <time>2014-06-25T13:57:32Z</time>
      </trkpt>
      <trkpt lat="43.38189" lon="6.10944">
        <ele>279</ele>
        <time>2014-06-25T13:57:34Z</time>
      </trkpt>
      <trkpt lat="43.38195" lon="6.109">
        <ele>279</ele>
        <time>2014-06-25T13:57:42Z</time>
      </trkpt>
      <trkpt lat="43.382" lon="6.10886">
        <ele>279</ele>
        <time>2014-06-25T13:57:46Z</time>
      </trkpt>
      <trkpt lat="43.38203" lon="6.10886">
        <ele>279</ele>
        <time>2014-06-25T13:57:47Z</time>
      </trkpt>
      <trkpt lat="43.38216" lon="6.1089">
        <ele>279</ele>
        <time>2014-06-25T13:57:51Z</time>
      </trkpt>
      <trkpt lat="43.38232" lon="6.10895">
        <ele>279.08074951172</ele>
        <time>2014-06-25T13:57:55Z</time>
      </trkpt>
      <trkpt lat="43.3824" lon="6.10898">
        <ele>279.2255859375</ele>
        <time>2014-06-25T13:57:57Z</time>
      </trkpt>
      <trkpt lat="43.3825" lon="6.10901">
        <ele>279.427734375</ele>
        <time>2014-06-25T13:57:59Z</time>
      </trkpt>
      <trkpt lat="43.38268" lon="6.10906">
        <ele>280.23220825195</ele>
        <time>2014-06-25T13:58:03Z</time>
      </trkpt>
      <trkpt lat="43.38294" lon="6.10914">
        <ele>281.44955444336</ele>
        <time>2014-06-25T13:58:09Z</time>
      </trkpt>
      <trkpt lat="43.38308" lon="6.10919">
        <ele>282.15008544922</ele>
        <time>2014-06-25T13:58:12Z</time>
      </trkpt>
      <trkpt lat="43.38353" lon="6.10935">
        <ele>283.30804443359</ele>
        <time>2014-06-25T13:58:23Z</time>
      </trkpt>
      <trkpt lat="43.38366" lon="6.1094">
        <ele>283.30459594727</ele>
        <time>2014-06-25T13:58:26Z</time>
      </trkpt>
      <trkpt lat="43.38371" lon="6.10941">
        <ele>283.22219848633</ele>
        <time>2014-06-25T13:58:27Z</time>
      </trkpt>
      <trkpt lat="43.38394" lon="6.10945">
        <ele>282.82919311523</ele>
        <time>2014-06-25T13:58:33Z</time>
      </trkpt>
      <trkpt lat="43.38416" lon="6.10949">
        <ele>282.36260986328</ele>
        <time>2014-06-25T13:58:39Z</time>
      </trkpt>
      <trkpt lat="43.38448" lon="6.10956">
        <ele>284.08261108398</ele>
        <time>2014-06-25T13:58:49Z</time>
      </trkpt>
      <trkpt lat="43.38459" lon="6.10957">
        <ele>284.74145507812</ele>
        <time>2014-06-25T13:58:53Z</time>
      </trkpt>
      <trkpt lat="43.38474" lon="6.10957">
        <ele>285.49847412109</ele>
        <time>2014-06-25T13:58:59Z</time>
      </trkpt>
      <trkpt lat="43.38488" lon="6.10962">
        <ele>286.18511962891</ele>
        <time>2014-06-25T13:59:04Z</time>
      </trkpt>
      <trkpt lat="43.38493" lon="6.10964">
        <ele>286.43060302734</ele>
        <time>2014-06-25T13:59:06Z</time>
      </trkpt>
      <trkpt lat="43.38502" lon="6.10966">
        <ele>286.91207885742</ele>
        <time>2014-06-25T13:59:09Z</time>
      </trkpt>
      <trkpt lat="43.38505" lon="6.10966">
        <ele>287.15240478516</ele>
        <time>2014-06-25T13:59:10Z</time>
      </trkpt>
      <trkpt lat="43.38512" lon="6.10968">
        <ele>287.70513916016</ele>
        <time>2014-06-25T13:59:12Z</time>
      </trkpt>
      <trkpt lat="43.38523" lon="6.10971">
        <ele>288.61666870117</ele>
        <time>2014-06-25T13:59:15Z</time>
      </trkpt>
      <trkpt lat="43.38526" lon="6.10972">
        <ele>288.87243652344</ele>
        <time>2014-06-25T13:59:16Z</time>
      </trkpt>
      <trkpt lat="43.38529" lon="6.10973">
        <ele>289.13510131836</ele>
        <time>2014-06-25T13:59:17Z</time>
      </trkpt>
      <trkpt lat="43.38535" lon="6.10975">
        <ele>289.62948608398</ele>
        <time>2014-06-25T13:59:19Z</time>
      </trkpt>
      <trkpt lat="43.38545" lon="6.10981">
        <ele>290.53927612305</ele>
        <time>2014-06-25T13:59:23Z</time>
      </trkpt>
      <trkpt lat="43.38554" lon="6.10984">
        <ele>291.35296630859</ele>
        <time>2014-06-25T13:59:27Z</time>
      </trkpt>
      <trkpt lat="43.38562" lon="6.10987">
        <ele>292.26342773438</ele>
        <time>2014-06-25T13:59:30Z</time>
      </trkpt>
      <trkpt lat="43.38576" lon="6.10988">
        <ele>293.75003051758</ele>
        <time>2014-06-25T13:59:36Z</time>
      </trkpt>
      <trkpt lat="43.38586" lon="6.10988">
        <ele>294.66033935547</ele>
        <time>2014-06-25T13:59:41Z</time>
      </trkpt>
      <trkpt lat="43.38592" lon="6.10988">
        <ele>294.87835693359</ele>
        <time>2014-06-25T13:59:44Z</time>
      </trkpt>
      <trkpt lat="43.38605" lon="6.10987">
        <ele>295.28518676758</ele>
        <time>2014-06-25T13:59:50Z</time>
      </trkpt>
      <trkpt lat="43.38615" lon="6.10994">
        <ele>296.0856628418</ele>
        <time>2014-06-25T13:59:55Z</time>
      </trkpt>
      <trkpt lat="43.38623" lon="6.10998">
        <ele>296.77917480469</ele>
        <time>2014-06-25T14:00:00Z</time>
      </trkpt>
      <trkpt lat="43.38626" lon="6.11">
        <ele>297.11215209961</ele>
        <time>2014-06-25T14:00:03Z</time>
      </trkpt>
      <trkpt lat="43.38629" lon="6.11002">
        <ele>297.29904174805</ele>
        <time>2014-06-25T14:00:05Z</time>
      </trkpt>
      <trkpt lat="43.3863" lon="6.11005">
        <ele>297.435546875</ele>
        <time>2014-06-25T14:00:08Z</time>
      </trkpt>
      <trkpt lat="43.38631" lon="6.11006">
        <ele>297.47024536133</ele>
        <time>2014-06-25T14:00:11Z</time>
      </trkpt>
      <trkpt lat="43.38631" lon="6.11006">
        <ele>297.47024536133</ele>
        <time>2014-06-25T14:00:16Z</time>
      </trkpt>
      <trkpt lat="43.38631" lon="6.11006">
        <ele>297.47024536133</ele>
        <time>2014-06-25T14:00:20Z</time>
      </trkpt>
      <trkpt lat="43.38635" lon="6.11009">
        <ele>297.77990722656</ele>
        <time>2014-06-25T14:00:25Z</time>
      </trkpt>
      <trkpt lat="43.38636" lon="6.11009">
        <ele>297.84841918945</ele>
        <time>2014-06-25T14:00:26Z</time>
      </trkpt>
      <trkpt lat="43.38641" lon="6.11004">
        <ele>298.0888671875</ele>
        <time>2014-06-25T14:00:30Z</time>
      </trkpt>
      <trkpt lat="43.38646" lon="6.11002">
        <ele>298.25366210938</ele>
        <time>2014-06-25T14:00:32Z</time>
      </trkpt>
      <trkpt lat="43.38652" lon="6.11002">
        <ele>298.48712158203</ele>
        <time>2014-06-25T14:00:34Z</time>
      </trkpt>
      <trkpt lat="43.38658" lon="6.11003">
        <ele>298.69311523438</ele>
        <time>2014-06-25T14:00:36Z</time>
      </trkpt>
      <trkpt lat="43.38662" lon="6.10996">
        <ele>298.80490112305</ele>
        <time>2014-06-25T14:00:38Z</time>
      </trkpt>
      <trkpt lat="43.38662" lon="6.10986">
        <ele>298.76721191406</ele>
        <time>2014-06-25T14:00:40Z</time>
      </trkpt>
      <trkpt lat="43.38663" lon="6.10981">
        <ele>298.76187133789</ele>
        <time>2014-06-25T14:00:41Z</time>
      </trkpt>
      <trkpt lat="43.38663" lon="6.10971">
        <ele>298.7385559082</ele>
        <time>2014-06-25T14:00:43Z</time>
      </trkpt>
      <trkpt lat="43.38664" lon="6.10966">
        <ele>298.60037231445</ele>
        <time>2014-06-25T14:00:44Z</time>
      </trkpt>
      <trkpt lat="43.38668" lon="6.10939">
        <ele>298.03643798828</ele>
        <time>2014-06-25T14:00:49Z</time>
      </trkpt>
      <trkpt lat="43.38672" lon="6.10917">
        <ele>298.1875</ele>
        <time>2014-06-25T14:00:53Z</time>
      </trkpt>
      <trkpt lat="43.38673" lon="6.10911">
        <ele>298.21496582031</ele>
        <time>2014-06-25T14:00:54Z</time>
      </trkpt>
      <trkpt lat="43.38675" lon="6.109">
        <ele>298.29736328125</ele>
        <time>2014-06-25T14:00:56Z</time>
      </trkpt>
      <trkpt lat="43.38683" lon="6.10873">
        <ele>298.59948730469</ele>
        <time>2014-06-25T14:01:01Z</time>
      </trkpt>
      <trkpt lat="43.38685" lon="6.10856">
        <ele>298.58917236328</ele>
        <time>2014-06-25T14:01:05Z</time>
      </trkpt>
      <trkpt lat="43.38688" lon="6.10836">
        <ele>298.5791015625</ele>
        <time>2014-06-25T14:01:09Z</time>
      </trkpt>
      <trkpt lat="43.38699" lon="6.10811">
        <ele>299</ele>
        <time>2014-06-25T14:01:15Z</time>
      </trkpt>
      <trkpt lat="43.3871" lon="6.10802">
        <ele>299</ele>
        <time>2014-06-25T14:01:18Z</time>
      </trkpt>
      <trkpt lat="43.38715" lon="6.108">
        <ele>299</ele>
        <time>2014-06-25T14:01:19Z</time>
      </trkpt>
      <trkpt lat="43.38724" lon="6.10792">
        <ele>299</ele>
        <time>2014-06-25T14:01:22Z</time>
      </trkpt>
      <trkpt lat="43.38726" lon="6.1079">
        <ele>299</ele>
        <time>2014-06-25T14:01:23Z</time>
      </trkpt>
      <trkpt lat="43.38732" lon="6.1078">
        <ele>299</ele>
        <time>2014-06-25T14:01:27Z</time>
      </trkpt>
      <trkpt lat="43.38737" lon="6.10771">
        <ele>299.12255859375</ele>
        <time>2014-06-25T14:01:31Z</time>
      </trkpt>
      <trkpt lat="43.38738" lon="6.1077">
        <ele>299.11499023438</ele>
        <time>2014-06-25T14:01:32Z</time>
      </trkpt>
      <trkpt lat="43.38747" lon="6.10765">
        <ele>299.04156494141</ele>
        <time>2014-06-25T14:01:35Z</time>
      </trkpt>
      <trkpt lat="43.38755" lon="6.1076">
        <ele>298.80499267578</ele>
        <time>2014-06-25T14:01:41Z</time>
      </trkpt>
      <trkpt lat="43.38757" lon="6.10758">
        <ele>298.76379394531</ele>
        <time>2014-06-25T14:01:42Z</time>
      </trkpt>
      <trkpt lat="43.38758" lon="6.10756">
        <ele>298.70886230469</ele>
        <time>2014-06-25T14:01:43Z</time>
      </trkpt>
      <trkpt lat="43.3876" lon="6.10756">
        <ele>298.65393066406</ele>
        <time>2014-06-25T14:01:44Z</time>
      </trkpt>
      <trkpt lat="43.38764" lon="6.10753">
        <ele>298.50286865234</ele>
        <time>2014-06-25T14:01:48Z</time>
      </trkpt>
      <trkpt lat="43.38766" lon="6.10748">
        <ele>298.51803588867</ele>
        <time>2014-06-25T14:01:52Z</time>
      </trkpt>
      <trkpt lat="43.38766" lon="6.10747">
        <ele>298.54034423828</ele>
        <time>2014-06-25T14:01:54Z</time>
      </trkpt>
      <trkpt lat="43.38764" lon="6.10746">
        <ele>298.62103271484</ele>
        <time>2014-06-25T14:01:59Z</time>
      </trkpt>
      <trkpt lat="43.38764" lon="6.10746">
        <ele>298.62103271484</ele>
        <time>2014-06-25T14:02:00Z</time>
      </trkpt>
      <trkpt lat="43.38764" lon="6.10743">
        <ele>298.7360534668</ele>
        <time>2014-06-25T14:02:08Z</time>
      </trkpt>
      <trkpt lat="43.38765" lon="6.10735">
        <ele>299.02960205078</ele>
        <time>2014-06-25T14:02:11Z</time>
      </trkpt>
      <trkpt lat="43.38767" lon="6.10726">
        <ele>299.25445556641</ele>
        <time>2014-06-25T14:02:14Z</time>
      </trkpt>
      <trkpt lat="43.38771" lon="6.10705">
        <ele>299.22821044922</ele>
        <time>2014-06-25T14:02:21Z</time>
      </trkpt>
      <trkpt lat="43.38773" lon="6.10693">
        <ele>299.23638916016</ele>
        <time>2014-06-25T14:02:24Z</time>
      </trkpt>
      <trkpt lat="43.38776" lon="6.10684">
        <ele>299.4372253418</ele>
        <time>2014-06-25T14:02:26Z</time>
      </trkpt>
      <trkpt lat="43.38779" lon="6.10671">
        <ele>299.80627441406</ele>
        <time>2014-06-25T14:02:29Z</time>
      </trkpt>
      <trkpt lat="43.38781" lon="6.10659">
        <ele>300.17022705078</ele>
        <time>2014-06-25T14:02:32Z</time>
      </trkpt>
      <trkpt lat="43.38786" lon="6.10635">
        <ele>300.84826660156</ele>
        <time>2014-06-25T14:02:39Z</time>
      </trkpt>
      <trkpt lat="43.38786" lon="6.10628">
        <ele>301.07485961914</ele>
        <time>2014-06-25T14:02:41Z</time>
      </trkpt>
      <trkpt lat="43.38787" lon="6.10617">
        <ele>301.45251464844</ele>
        <time>2014-06-25T14:02:44Z</time>
      </trkpt>
      <trkpt lat="43.38788" lon="6.10609">
        <ele>301.62396240234</ele>
        <time>2014-06-25T14:02:46Z</time>
      </trkpt>
      <trkpt lat="43.38794" lon="6.10589">
        <ele>301.40423583984</ele>
        <time>2014-06-25T14:02:51Z</time>
      </trkpt>
      <trkpt lat="43.38795" lon="6.10578">
        <ele>301.50411987305</ele>
        <time>2014-06-25T14:02:54Z</time>
      </trkpt>
      <trkpt lat="43.38796" lon="6.10568">
        <ele>301.71520996094</ele>
        <time>2014-06-25T14:02:57Z</time>
      </trkpt>
      <trkpt lat="43.38797" lon="6.1056">
        <ele>301.8801574707</ele>
        <time>2014-06-25T14:02:59Z</time>
      </trkpt>
      <trkpt lat="43.38803" lon="6.10549">
        <ele>302.20816040039</ele>
        <time>2014-06-25T14:03:03Z</time>
      </trkpt>
      <trkpt lat="43.38804" lon="6.1053">
        <ele>302.8786315918</ele>
        <time>2014-06-25T14:03:08Z</time>
      </trkpt>
      <trkpt lat="43.38807" lon="6.10511">
        <ele>303.41720581055</ele>
        <time>2014-06-25T14:03:14Z</time>
      </trkpt>
      <trkpt lat="43.38817" lon="6.10476">
        <ele>302.32104492188</ele>
        <time>2014-06-25T14:03:24Z</time>
      </trkpt>
      <trkpt lat="43.38817" lon="6.10438">
        <ele>303.34298706055</ele>
        <time>2014-06-25T14:03:35Z</time>
      </trkpt>
      <trkpt lat="43.38818" lon="6.10435">
        <ele>303.47320556641</ele>
        <time>2014-06-25T14:03:36Z</time>
      </trkpt>
      <trkpt lat="43.3882" lon="6.10426">
        <ele>303.7734375</ele>
        <time>2014-06-25T14:03:39Z</time>
      </trkpt>
      <trkpt lat="43.38821" lon="6.10414">
        <ele>304.3342590332</ele>
        <time>2014-06-25T14:03:43Z</time>
      </trkpt>
      <trkpt lat="43.38824" lon="6.10395">
        <ele>304.20651245117</ele>
        <time>2014-06-25T14:03:49Z</time>
      </trkpt>
      <trkpt lat="43.38824" lon="6.10387">
        <ele>304.33706665039</ele>
        <time>2014-06-25T14:03:52Z</time>
      </trkpt>
      <trkpt lat="43.38826" lon="6.10379">
        <ele>304.35766601562</ele>
        <time>2014-06-25T14:03:55Z</time>
      </trkpt>
      <trkpt lat="43.38829" lon="6.10364">
        <ele>304.5791015625</ele>
        <time>2014-06-25T14:04:00Z</time>
      </trkpt>
      <trkpt lat="43.38829" lon="6.10337">
        <ele>304.74954223633</ele>
        <time>2014-06-25T14:04:07Z</time>
      </trkpt>
      <trkpt lat="43.38828" lon="6.10315">
        <ele>305.57214355469</ele>
        <time>2014-06-25T14:04:13Z</time>
      </trkpt>
      <trkpt lat="43.3883" lon="6.10295">
        <ele>305.68536376953</ele>
        <time>2014-06-25T14:04:19Z</time>
      </trkpt>
      <trkpt lat="43.3883" lon="6.10292">
        <ele>305.69934082031</ele>
        <time>2014-06-25T14:04:20Z</time>
      </trkpt>
      <trkpt lat="43.38828" lon="6.10276">
        <ele>306.21704101562</ele>
        <time>2014-06-25T14:04:25Z</time>
      </trkpt>
      <trkpt lat="43.38824" lon="6.10249">
        <ele>309.33975219727</ele>
        <time>2014-06-25T14:04:35Z</time>
      </trkpt>
      <trkpt lat="43.38824" lon="6.10247">
        <ele>309.42953491211</ele>
        <time>2014-06-25T14:04:36Z</time>
      </trkpt>
      <trkpt lat="43.38823" lon="6.10245">
        <ele>309.62664794922</ele>
        <time>2014-06-25T14:04:37Z</time>
      </trkpt>
      <trkpt lat="43.38822" lon="6.1024">
        <ele>309.81384277344</ele>
        <time>2014-06-25T14:04:39Z</time>
      </trkpt>
      <trkpt lat="43.38819" lon="6.10231">
        <ele>310.46841430664</ele>
        <time>2014-06-25T14:04:43Z</time>
      </trkpt>
      <trkpt lat="43.38818" lon="6.10227">
        <ele>310.72909545898</ele>
        <time>2014-06-25T14:04:45Z</time>
      </trkpt>
      <trkpt lat="43.38818" lon="6.10225">
        <ele>310.76605224609</ele>
        <time>2014-06-25T14:04:46Z</time>
      </trkpt>
      <trkpt lat="43.38818" lon="6.10223">
        <ele>310.81759643555</ele>
        <time>2014-06-25T14:04:47Z</time>
      </trkpt>
      <trkpt lat="43.38818" lon="6.10219">
        <ele>310.86273193359</ele>
        <time>2014-06-25T14:04:48Z</time>
      </trkpt>
      <trkpt lat="43.38819" lon="6.10211">
        <ele>311.01724243164</ele>
        <time>2014-06-25T14:04:50Z</time>
      </trkpt>
      <trkpt lat="43.38821" lon="6.102">
        <ele>311.09106445312</ele>
        <time>2014-06-25T14:04:53Z</time>
      </trkpt>
      <trkpt lat="43.38824" lon="6.1019">
        <ele>310.79763793945</ele>
        <time>2014-06-25T14:04:56Z</time>
      </trkpt>
      <trkpt lat="43.38827" lon="6.10185">
        <ele>310.7138671875</ele>
        <time>2014-06-25T14:04:58Z</time>
      </trkpt>
      <trkpt lat="43.38828" lon="6.10182">
        <ele>310.70489501953</ele>
        <time>2014-06-25T14:04:59Z</time>
      </trkpt>
      <trkpt lat="43.38829" lon="6.10179">
        <ele>310.76083374023</ele>
        <time>2014-06-25T14:05:00Z</time>
      </trkpt>
      <trkpt lat="43.38829" lon="6.10177">
        <ele>310.79840087891</ele>
        <time>2014-06-25T14:05:01Z</time>
      </trkpt>
      <trkpt lat="43.3883" lon="6.10175">
        <ele>310.8701171875</ele>
        <time>2014-06-25T14:05:02Z</time>
      </trkpt>
      <trkpt lat="43.3883" lon="6.10173">
        <ele>310.99597167969</ele>
        <time>2014-06-25T14:05:03Z</time>
      </trkpt>
      <trkpt lat="43.3883" lon="6.10172">
        <ele>311.05889892578</ele>
        <time>2014-06-25T14:05:04Z</time>
      </trkpt>
      <trkpt lat="43.38829" lon="6.10172">
        <ele>311.1081237793</ele>
        <time>2014-06-25T14:05:08Z</time>
      </trkpt>
      <trkpt lat="43.38829" lon="6.10172">
        <ele>311.1081237793</ele>
        <time>2014-06-25T14:05:26Z</time>
      </trkpt>
      <trkpt lat="43.38829" lon="6.10172">
        <ele>311.11404418945</ele>
        <time>2014-06-25T14:05:52Z</time>
      </trkpt>
      <trkpt lat="43.38829" lon="6.10172">
        <ele>311.11404418945</ele>
        <time>2014-06-25T14:06:01Z</time>
      </trkpt>
      <trkpt lat="43.38829" lon="6.10171">
        <ele>311.18048095703</ele>
        <time>2014-06-25T14:06:06Z</time>
      </trkpt>
      <trkpt lat="43.38829" lon="6.10171">
        <ele>311.18048095703</ele>
        <time>2014-06-25T14:06:29Z</time>
      </trkpt>
      <trkpt lat="43.38829" lon="6.10171">
        <ele>311.18048095703</ele>
        <time>2014-06-25T14:06:42Z</time>
      </trkpt>
      <trkpt lat="43.38829" lon="6.1017">
        <ele>311.24432373047</ele>
        <time>2014-06-25T14:06:51Z</time>
      </trkpt>
      <trkpt lat="43.38829" lon="6.1017">
        <ele>311.24432373047</ele>
        <time>2014-06-25T14:07:01Z</time>
      </trkpt>
      <trkpt lat="43.38828" lon="6.10164">
        <ele>311.74038696289</ele>
        <time>2014-06-25T14:07:08Z</time>
      </trkpt>
      <trkpt lat="43.38826" lon="6.10161">
        <ele>312.15505981445</ele>
        <time>2014-06-25T14:07:15Z</time>
      </trkpt>
      <trkpt lat="43.38826" lon="6.1016">
        <ele>312.1848449707</ele>
        <time>2014-06-25T14:07:21Z</time>
      </trkpt>
      <trkpt lat="43.38826" lon="6.1016">
        <ele>312.22061157227</ele>
        <time>2014-06-25T14:07:26Z</time>
      </trkpt>
      <trkpt lat="43.38826" lon="6.10154">
        <ele>312.57516479492</ele>
        <time>2014-06-25T14:07:28Z</time>
      </trkpt>
      <trkpt lat="43.38828" lon="6.10137">
        <ele>313.49261474609</ele>
        <time>2014-06-25T14:07:33Z</time>
      </trkpt>
      <trkpt lat="43.38828" lon="6.10134">
        <ele>313.53210449219</ele>
        <time>2014-06-25T14:07:34Z</time>
      </trkpt>
      <trkpt lat="43.38836" lon="6.1012">
        <ele>312.92474365234</ele>
        <time>2014-06-25T14:07:39Z</time>
      </trkpt>
      <trkpt lat="43.38842" lon="6.10096">
        <ele>312.42059326172</ele>
        <time>2014-06-25T14:07:46Z</time>
      </trkpt>
      <trkpt lat="43.38844" lon="6.10082">
        <ele>313.18276977539</ele>
        <time>2014-06-25T14:07:51Z</time>
      </trkpt>
      <trkpt lat="43.38844" lon="6.10077">
        <ele>313.49700927734</ele>
        <time>2014-06-25T14:07:53Z</time>
      </trkpt>
      <trkpt lat="43.38849" lon="6.10064">
        <ele>313.58404541016</ele>
        <time>2014-06-25T14:07:59Z</time>
      </trkpt>
      <trkpt lat="43.38854" lon="6.10046">
        <ele>314.90313720703</ele>
        <time>2014-06-25T14:08:08Z</time>
      </trkpt>
      <trkpt lat="43.38855" lon="6.10039">
        <ele>315.67892456055</ele>
        <time>2014-06-25T14:08:11Z</time>
      </trkpt>
      <trkpt lat="43.38856" lon="6.10035">
        <ele>316.2912902832</ele>
        <time>2014-06-25T14:08:13Z</time>
      </trkpt>
      <trkpt lat="43.38857" lon="6.10031">
        <ele>316.81665039062</ele>
        <time>2014-06-25T14:08:15Z</time>
      </trkpt>
      <trkpt lat="43.38858" lon="6.10028">
        <ele>317.11798095703</ele>
        <time>2014-06-25T14:08:17Z</time>
      </trkpt>
      <trkpt lat="43.38858" lon="6.10029">
        <ele>317.10232543945</ele>
        <time>2014-06-25T14:08:23Z</time>
      </trkpt>
      <trkpt lat="43.38858" lon="6.10029">
        <ele>317.10232543945</ele>
        <time>2014-06-25T14:08:41Z</time>
      </trkpt>
      <trkpt lat="43.38858" lon="6.10029">
        <ele>317.10232543945</ele>
        <time>2014-06-25T14:08:54Z</time>
      </trkpt>
      <trkpt lat="43.38858" lon="6.10028">
        <ele>317.16213989258</ele>
        <time>2014-06-25T14:09:02Z</time>
      </trkpt>
      <trkpt lat="43.38858" lon="6.10028">
        <ele>317.16213989258</ele>
        <time>2014-06-25T14:09:08Z</time>
      </trkpt>
      <trkpt lat="43.38858" lon="6.10027">
        <ele>317.29412841797</ele>
        <time>2014-06-25T14:09:14Z</time>
      </trkpt>
      <trkpt lat="43.38857" lon="6.10024">
        <ele>317.67279052734</ele>
        <time>2014-06-25T14:09:20Z</time>
      </trkpt>
      <trkpt lat="43.38858" lon="6.10023">
        <ele>317.72485351562</ele>
        <time>2014-06-25T14:09:26Z</time>
      </trkpt>
      <trkpt lat="43.3886" lon="6.10009">
        <ele>319.06005859375</ele>
        <time>2014-06-25T14:09:33Z</time>
      </trkpt>
      <trkpt lat="43.3886" lon="6.10006">
        <ele>319.3203125</ele>
        <time>2014-06-25T14:09:34Z</time>
      </trkpt>
      <trkpt lat="43.3886" lon="6.09999">
        <ele>320.03036499023</ele>
        <time>2014-06-25T14:09:37Z</time>
      </trkpt>
      <trkpt lat="43.38861" lon="6.09996">
        <ele>320.13092041016</ele>
        <time>2014-06-25T14:09:38Z</time>
      </trkpt>
      <trkpt lat="43.38863" lon="6.09988">
        <ele>320.07385253906</ele>
        <time>2014-06-25T14:09:41Z</time>
      </trkpt>
      <trkpt lat="43.38864" lon="6.09981">
        <ele>320.12744140625</ele>
        <time>2014-06-25T14:09:44Z</time>
      </trkpt>
      <trkpt lat="43.38866" lon="6.09971">
        <ele>320.365234375</ele>
        <time>2014-06-25T14:09:48Z</time>
      </trkpt>
      <trkpt lat="43.38866" lon="6.09968">
        <ele>320.71096801758</ele>
        <time>2014-06-25T14:09:50Z</time>
      </trkpt>
      <trkpt lat="43.38865" lon="6.09966">
        <ele>320.87606811523</ele>
        <time>2014-06-25T14:09:51Z</time>
      </trkpt>
      <trkpt lat="43.38865" lon="6.09966">
        <ele>320.93530273438</ele>
        <time>2014-06-25T14:09:52Z</time>
      </trkpt>
      <trkpt lat="43.38865" lon="6.09964">
        <ele>321.10510253906</ele>
        <time>2014-06-25T14:09:54Z</time>
      </trkpt>
      <trkpt lat="43.38865" lon="6.09963">
        <ele>321.22183227539</ele>
        <time>2014-06-25T14:09:56Z</time>
      </trkpt>
      <trkpt lat="43.38865" lon="6.09963">
        <ele>321.22183227539</ele>
        <time>2014-06-25T14:10:03Z</time>
      </trkpt>
      <trkpt lat="43.38865" lon="6.09963">
        <ele>321.22183227539</ele>
        <time>2014-06-25T14:10:08Z</time>
      </trkpt>
      <trkpt lat="43.38866" lon="6.09962">
        <ele>321.1455078125</ele>
        <time>2014-06-25T14:10:11Z</time>
      </trkpt>
      <trkpt lat="43.38867" lon="6.0996">
        <ele>321.20452880859</ele>
        <time>2014-06-25T14:10:13Z</time>
      </trkpt>
      <trkpt lat="43.38869" lon="6.09955">
        <ele>321.40908813477</ele>
        <time>2014-06-25T14:10:18Z</time>
      </trkpt>
      <trkpt lat="43.38871" lon="6.09947">
        <ele>322.00225830078</ele>
        <time>2014-06-25T14:10:24Z</time>
      </trkpt>
      <trkpt lat="43.38872" lon="6.09945">
        <ele>322.1907043457</ele>
        <time>2014-06-25T14:10:25Z</time>
      </trkpt>
      <trkpt lat="43.38875" lon="6.09939">
        <ele>322.19189453125</ele>
        <time>2014-06-25T14:10:30Z</time>
      </trkpt>
      <trkpt lat="43.38876" lon="6.09936">
        <ele>322.25198364258</ele>
        <time>2014-06-25T14:10:35Z</time>
      </trkpt>
      <trkpt lat="43.38876" lon="6.09936">
        <ele>322.25198364258</ele>
        <time>2014-06-25T14:10:41Z</time>
      </trkpt>
      <trkpt lat="43.38876" lon="6.09934">
        <ele>322.31723022461</ele>
        <time>2014-06-25T14:10:44Z</time>
      </trkpt>
      <trkpt lat="43.38876" lon="6.09934">
        <ele>322.31723022461</ele>
        <time>2014-06-25T14:10:55Z</time>
      </trkpt>
      <trkpt lat="43.38876" lon="6.09934">
        <ele>322.31723022461</ele>
        <time>2014-06-25T14:11:01Z</time>
      </trkpt>
      <trkpt lat="43.38878" lon="6.09931">
        <ele>322.27087402344</ele>
        <time>2014-06-25T14:11:08Z</time>
      </trkpt>
      <trkpt lat="43.38881" lon="6.09926">
        <ele>322.22280883789</ele>
        <time>2014-06-25T14:11:13Z</time>
      </trkpt>
      <trkpt lat="43.38882" lon="6.09922">
        <ele>322.27944946289</ele>
        <time>2014-06-25T14:11:16Z</time>
      </trkpt>
      <trkpt lat="43.38885" lon="6.09916">
        <ele>322.31677246094</ele>
        <time>2014-06-25T14:11:21Z</time>
      </trkpt>
      <trkpt lat="43.38885" lon="6.09913">
        <ele>322.46197509766</ele>
        <time>2014-06-25T14:11:24Z</time>
      </trkpt>
      <trkpt lat="43.38884" lon="6.09902">
        <ele>323.28369140625</ele>
        <time>2014-06-25T14:11:33Z</time>
      </trkpt>
      <trkpt lat="43.38884" lon="6.09895">
        <ele>323.76293945312</ele>
        <time>2014-06-25T14:11:39Z</time>
      </trkpt>
      <trkpt lat="43.3889" lon="6.09883">
        <ele>324.12936401367</ele>
        <time>2014-06-25T14:11:52Z</time>
      </trkpt>
      <trkpt lat="43.3889" lon="6.0988">
        <ele>324.22723388672</ele>
        <time>2014-06-25T14:11:54Z</time>
      </trkpt>
      <trkpt lat="43.38889" lon="6.09874">
        <ele>324.49844360352</ele>
        <time>2014-06-25T14:12:00Z</time>
      </trkpt>
      <trkpt lat="43.38889" lon="6.09873">
        <ele>324.52935791016</ele>
        <time>2014-06-25T14:12:01Z</time>
      </trkpt>
      <trkpt lat="43.38889" lon="6.09873">
        <ele>324.53964233398</ele>
        <time>2014-06-25T14:12:02Z</time>
      </trkpt>
      <trkpt lat="43.38889" lon="6.09872">
        <ele>324.57397460938</ele>
        <time>2014-06-25T14:12:03Z</time>
      </trkpt>
      <trkpt lat="43.38889" lon="6.09872">
        <ele>324.57568359375</ele>
        <time>2014-06-25T14:12:06Z</time>
      </trkpt>
      <trkpt lat="43.38889" lon="6.09872">
        <ele>324.57568359375</ele>
        <time>2014-06-25T14:12:14Z</time>
      </trkpt>
      <trkpt lat="43.38889" lon="6.0987">
        <ele>324.67868041992</ele>
        <time>2014-06-25T14:12:18Z</time>
      </trkpt>
      <trkpt lat="43.38889" lon="6.09868">
        <ele>324.76452636719</ele>
        <time>2014-06-25T14:12:26Z</time>
      </trkpt>
      <trkpt lat="43.3889" lon="6.09859">
        <ele>325.05001831055</ele>
        <time>2014-06-25T14:12:33Z</time>
      </trkpt>
      <trkpt lat="43.3889" lon="6.09855">
        <ele>325.24261474609</ele>
        <time>2014-06-25T14:12:36Z</time>
      </trkpt>
      <trkpt lat="43.38891" lon="6.09853">
        <ele>325.34188842773</ele>
        <time>2014-06-25T14:12:38Z</time>
      </trkpt>
      <trkpt lat="43.38893" lon="6.09849">
        <ele>325.3645324707</ele>
        <time>2014-06-25T14:12:41Z</time>
      </trkpt>
      <trkpt lat="43.38893" lon="6.09842">
        <ele>325.87573242188</ele>
        <time>2014-06-25T14:12:48Z</time>
      </trkpt>
      <trkpt lat="43.38893" lon="6.0984">
        <ele>325.96771240234</ele>
        <time>2014-06-25T14:12:50Z</time>
      </trkpt>
      <trkpt lat="43.38894" lon="6.09833">
        <ele>326.31085205078</ele>
        <time>2014-06-25T14:12:56Z</time>
      </trkpt>
      <trkpt lat="43.38893" lon="6.09824">
        <ele>327.01739501953</ele>
        <time>2014-06-25T14:13:02Z</time>
      </trkpt>
      <trkpt lat="43.38893" lon="6.09823">
        <ele>327.15048217773</ele>
        <time>2014-06-25T14:13:03Z</time>
      </trkpt>
      <trkpt lat="43.38893" lon="6.09821">
        <ele>327.18231201172</ele>
        <time>2014-06-25T14:13:04Z</time>
      </trkpt>
      <trkpt lat="43.38899" lon="6.09799">
        <ele>327.46014404297</ele>
        <time>2014-06-25T14:13:24Z</time>
      </trkpt>
      <trkpt lat="43.38901" lon="6.0979">
        <ele>327.35198974609</ele>
        <time>2014-06-25T14:13:32Z</time>
      </trkpt>
      <trkpt lat="43.38903" lon="6.09782">
        <ele>327.369140625</ele>
        <time>2014-06-25T14:13:39Z</time>
      </trkpt>
      <trkpt lat="43.38904" lon="6.09776">
        <ele>327.43283081055</ele>
        <time>2014-06-25T14:13:43Z</time>
      </trkpt>
      <trkpt lat="43.38904" lon="6.09771">
        <ele>327.64474487305</ele>
        <time>2014-06-25T14:13:47Z</time>
      </trkpt>
      <trkpt lat="43.38905" lon="6.09761">
        <ele>328.01232910156</ele>
        <time>2014-06-25T14:13:54Z</time>
      </trkpt>
      <trkpt lat="43.38906" lon="6.09751">
        <ele>328.4006652832</ele>
        <time>2014-06-25T14:14:02Z</time>
      </trkpt>
      <trkpt lat="43.38906" lon="6.09751">
        <ele>328.43148803711</ele>
        <time>2014-06-25T14:14:05Z</time>
      </trkpt>
      <trkpt lat="43.38906" lon="6.0975">
        <ele>328.43991088867</ele>
        <time>2014-06-25T14:14:10Z</time>
      </trkpt>
      <trkpt lat="43.38906" lon="6.09751">
        <ele>328.43710327148</ele>
        <time>2014-06-25T14:14:17Z</time>
      </trkpt>
      <trkpt lat="43.38906" lon="6.09746">
        <ele>328.79086303711</ele>
        <time>2014-06-25T14:14:22Z</time>
      </trkpt>
      <trkpt lat="43.38906" lon="6.09744">
        <ele>328.89727783203</ele>
        <time>2014-06-25T14:14:23Z</time>
      </trkpt>
      <trkpt lat="43.38908" lon="6.09739">
        <ele>329.12731933594</ele>
        <time>2014-06-25T14:14:25Z</time>
      </trkpt>
      <trkpt lat="43.38908" lon="6.09737">
        <ele>329.21313476562</ele>
        <time>2014-06-25T14:14:26Z</time>
      </trkpt>
      <trkpt lat="43.38907" lon="6.0973">
        <ele>329.79336547852</ele>
        <time>2014-06-25T14:14:29Z</time>
      </trkpt>
      <trkpt lat="43.38906" lon="6.09722">
        <ele>330.58215332031</ele>
        <time>2014-06-25T14:14:32Z</time>
      </trkpt>
      <trkpt lat="43.38905" lon="6.09707">
        <ele>330.91390991211</ele>
        <time>2014-06-25T14:14:37Z</time>
      </trkpt>
      <trkpt lat="43.38904" lon="6.09695">
        <ele>331.23056030273</ele>
        <time>2014-06-25T14:14:42Z</time>
      </trkpt>
      <trkpt lat="43.38903" lon="6.09679">
        <ele>332.63018798828</ele>
        <time>2014-06-25T14:14:49Z</time>
      </trkpt>
      <trkpt lat="43.38901" lon="6.09659">
        <ele>334.42233276367</ele>
        <time>2014-06-25T14:14:58Z</time>
      </trkpt>
      <trkpt lat="43.38901" lon="6.09646">
        <ele>335.36990356445</ele>
        <time>2014-06-25T14:15:04Z</time>
      </trkpt>
      <trkpt lat="43.389" lon="6.09634">
        <ele>336.12152099609</ele>
        <time>2014-06-25T14:15:10Z</time>
      </trkpt>
      <trkpt lat="43.38899" lon="6.09632">
        <ele>336.38073730469</ele>
        <time>2014-06-25T14:15:11Z</time>
      </trkpt>
      <trkpt lat="43.38897" lon="6.09627">
        <ele>336.91973876953</ele>
        <time>2014-06-25T14:15:14Z</time>
      </trkpt>
      <trkpt lat="43.38889" lon="6.09616">
        <ele>338.73419189453</ele>
        <time>2014-06-25T14:15:21Z</time>
      </trkpt>
      <trkpt lat="43.38882" lon="6.09604">
        <ele>339.25509643555</ele>
        <time>2014-06-25T14:15:26Z</time>
      </trkpt>
      <trkpt lat="43.38879" lon="6.09585">
        <ele>339.9280090332</ele>
        <time>2014-06-25T14:15:32Z</time>
      </trkpt>
      <trkpt lat="43.38878" lon="6.09552">
        <ele>341.61700439453</ele>
        <time>2014-06-25T14:15:43Z</time>
      </trkpt>
      <trkpt lat="43.38878" lon="6.09546">
        <ele>341.61700439453</ele>
        <time>2014-06-25T14:15:45Z</time>
      </trkpt>
      <trkpt lat="43.38877" lon="6.09527">
        <ele>341.63174438477</ele>
        <time>2014-06-25T14:15:51Z</time>
      </trkpt>
      <trkpt lat="43.38877" lon="6.09503">
        <ele>342.94030761719</ele>
        <time>2014-06-25T14:15:58Z</time>
      </trkpt>
      <trkpt lat="43.38878" lon="6.09482">
        <ele>344.63619995117</ele>
        <time>2014-06-25T14:16:05Z</time>
      </trkpt>
      <trkpt lat="43.38881" lon="6.09469">
        <ele>345.97970581055</ele>
        <time>2014-06-25T14:16:10Z</time>
      </trkpt>
      <trkpt lat="43.38882" lon="6.09461">
        <ele>346.33316040039</ele>
        <time>2014-06-25T14:16:13Z</time>
      </trkpt>
      <trkpt lat="43.3888" lon="6.09448">
        <ele>346.32870483398</ele>
        <time>2014-06-25T14:16:17Z</time>
      </trkpt>
      <trkpt lat="43.38876" lon="6.0944">
        <ele>345.82015991211</ele>
        <time>2014-06-25T14:16:22Z</time>
      </trkpt>
      <trkpt lat="43.38876" lon="6.09438">
        <ele>345.72003173828</ele>
        <time>2014-06-25T14:16:24Z</time>
      </trkpt>
      <trkpt lat="43.38876" lon="6.09437">
        <ele>345.75311279297</ele>
        <time>2014-06-25T14:16:25Z</time>
      </trkpt>
      <trkpt lat="43.38881" lon="6.09429">
        <ele>346.95907592773</ele>
        <time>2014-06-25T14:16:30Z</time>
      </trkpt>
      <trkpt lat="43.38882" lon="6.09428">
        <ele>347.15097045898</ele>
        <time>2014-06-25T14:16:32Z</time>
      </trkpt>
      <trkpt lat="43.38884" lon="6.09421">
        <ele>347.87649536133</ele>
        <time>2014-06-25T14:16:38Z</time>
      </trkpt>
      <trkpt lat="43.38887" lon="6.09415">
        <ele>348.64331054688</ele>
        <time>2014-06-25T14:16:44Z</time>
      </trkpt>
      <trkpt lat="43.38887" lon="6.09415">
        <ele>348.66732788086</ele>
        <time>2014-06-25T14:16:47Z</time>
      </trkpt>
      <trkpt lat="43.38885" lon="6.09412">
        <ele>348.25143432617</ele>
        <time>2014-06-25T14:16:54Z</time>
      </trkpt>
      <trkpt lat="43.38885" lon="6.09412">
        <ele>348.25143432617</ele>
        <time>2014-06-25T14:16:58Z</time>
      </trkpt>
      <trkpt lat="43.38885" lon="6.09412">
        <ele>348.2412109375</ele>
        <time>2014-06-25T14:17:02Z</time>
      </trkpt>
      <trkpt lat="43.38885" lon="6.09412">
        <ele>348.2412109375</ele>
        <time>2014-06-25T14:17:11Z</time>
      </trkpt>
      <trkpt lat="43.38885" lon="6.09412">
        <ele>348.2412109375</ele>
        <time>2014-06-25T14:17:18Z</time>
      </trkpt>
      <trkpt lat="43.38885" lon="6.09411">
        <ele>348.26162719727</ele>
        <time>2014-06-25T14:17:25Z</time>
      </trkpt>
      <trkpt lat="43.38887" lon="6.09411">
        <ele>348.86938476562</ele>
        <time>2014-06-25T14:17:32Z</time>
      </trkpt>
      <trkpt lat="43.38892" lon="6.09407">
        <ele>349.35501098633</ele>
        <time>2014-06-25T14:17:35Z</time>
      </trkpt>
      <trkpt lat="43.38894" lon="6.09405">
        <ele>349.42712402344</ele>
        <time>2014-06-25T14:17:36Z</time>
      </trkpt>
      <trkpt lat="43.38896" lon="6.09402">
        <ele>349.52325439453</ele>
        <time>2014-06-25T14:17:37Z</time>
      </trkpt>
      <trkpt lat="43.38898" lon="6.09399">
        <ele>349.62796020508</ele>
        <time>2014-06-25T14:17:38Z</time>
      </trkpt>
      <trkpt lat="43.38899" lon="6.09397">
        <ele>349.70349121094</ele>
        <time>2014-06-25T14:17:39Z</time>
      </trkpt>
      <trkpt lat="43.38903" lon="6.09393">
        <ele>349.86486816406</ele>
        <time>2014-06-25T14:17:41Z</time>
      </trkpt>
      <trkpt lat="43.38909" lon="6.09386">
        <ele>350.36679077148</ele>
        <time>2014-06-25T14:17:43Z</time>
      </trkpt>
      <trkpt lat="43.38912" lon="6.09383">
        <ele>350.82897949219</ele>
        <time>2014-06-25T14:17:44Z</time>
      </trkpt>
      <trkpt lat="43.38923" lon="6.09371">
        <ele>351.61663818359</ele>
        <time>2014-06-25T14:17:47Z</time>
      </trkpt>
      <trkpt lat="43.38926" lon="6.09366">
        <ele>351.99914550781</ele>
        <time>2014-06-25T14:17:48Z</time>
      </trkpt>
      <trkpt lat="43.38936" lon="6.0935">
        <ele>353.01776123047</ele>
        <time>2014-06-25T14:17:52Z</time>
      </trkpt>
      <trkpt lat="43.38941" lon="6.09344">
        <ele>353.37603759766</ele>
        <time>2014-06-25T14:17:54Z</time>
      </trkpt>
      <trkpt lat="43.38946" lon="6.09336">
        <ele>354.20840454102</ele>
        <time>2014-06-25T14:17:56Z</time>
      </trkpt>
      <trkpt lat="43.3895" lon="6.09331">
        <ele>353.74301147461</ele>
        <time>2014-06-25T14:17:57Z</time>
      </trkpt>
      <trkpt lat="43.38963" lon="6.09318">
        <ele>351.25140380859</ele>
        <time>2014-06-25T14:18:00Z</time>
      </trkpt>
      <trkpt lat="43.38974" lon="6.09301">
        <ele>349.22189331055</ele>
        <time>2014-06-25T14:18:03Z</time>
      </trkpt>
      <trkpt lat="43.38978" lon="6.09294">
        <ele>349.23440551758</ele>
        <time>2014-06-25T14:18:04Z</time>
      </trkpt>
      <trkpt lat="43.38982" lon="6.09289">
        <ele>348.97833251953</ele>
        <time>2014-06-25T14:18:05Z</time>
      </trkpt>
      <trkpt lat="43.38988" lon="6.09282">
        <ele>348.56634521484</ele>
        <time>2014-06-25T14:18:06Z</time>
      </trkpt>
      <trkpt lat="43.38991" lon="6.09276">
        <ele>348.45901489258</ele>
        <time>2014-06-25T14:18:07Z</time>
      </trkpt>
      <trkpt lat="43.38999" lon="6.09264">
        <ele>347.22537231445</ele>
        <time>2014-06-25T14:18:09Z</time>
      </trkpt>
      <trkpt lat="43.39009" lon="6.09246">
        <ele>346.06942749023</ele>
        <time>2014-06-25T14:18:12Z</time>
      </trkpt>
      <trkpt lat="43.39014" lon="6.09233">
        <ele>345.47756958008</ele>
        <time>2014-06-25T14:18:14Z</time>
      </trkpt>
      <trkpt lat="43.39019" lon="6.09213">
        <ele>344.94223022461</ele>
        <time>2014-06-25T14:18:17Z</time>
      </trkpt>
      <trkpt lat="43.39023" lon="6.09194">
        <ele>344.65026855469</ele>
        <time>2014-06-25T14:18:20Z</time>
      </trkpt>
      <trkpt lat="43.39039" lon="6.09129">
        <ele>342.98559570312</ele>
        <time>2014-06-25T14:18:29Z</time>
      </trkpt>
      <trkpt lat="43.39052" lon="6.0909">
        <ele>340.67282104492</ele>
        <time>2014-06-25T14:18:35Z</time>
      </trkpt>
      <trkpt lat="43.39061" lon="6.09065">
        <ele>337.99591064453</ele>
        <time>2014-06-25T14:18:39Z</time>
      </trkpt>
      <trkpt lat="43.39065" lon="6.09053">
        <ele>336.96069335938</ele>
        <time>2014-06-25T14:18:41Z</time>
      </trkpt>
      <trkpt lat="43.39079" lon="6.0902">
        <ele>335.57995605469</ele>
        <time>2014-06-25T14:18:47Z</time>
      </trkpt>
      <trkpt lat="43.39094" lon="6.08986">
        <ele>328.99716186523</ele>
        <time>2014-06-25T14:18:53Z</time>
      </trkpt>
      <trkpt lat="43.39103" lon="6.08969">
        <ele>324.66799926758</ele>
        <time>2014-06-25T14:18:57Z</time>
      </trkpt>
      <trkpt lat="43.39106" lon="6.08958">
        <ele>324.49087524414</ele>
        <time>2014-06-25T14:18:59Z</time>
      </trkpt>
      <trkpt lat="43.39109" lon="6.08946">
        <ele>324.27563476562</ele>
        <time>2014-06-25T14:19:01Z</time>
      </trkpt>
      <trkpt lat="43.39117" lon="6.08919">
        <ele>321.93893432617</ele>
        <time>2014-06-25T14:19:06Z</time>
      </trkpt>
      <trkpt lat="43.39121" lon="6.08902">
        <ele>321.53594970703</ele>
        <time>2014-06-25T14:19:09Z</time>
      </trkpt>
      <trkpt lat="43.39125" lon="6.0889">
        <ele>321.03472900391</ele>
        <time>2014-06-25T14:19:11Z</time>
      </trkpt>
      <trkpt lat="43.39132" lon="6.08869">
        <ele>319.78271484375</ele>
        <time>2014-06-25T14:19:15Z</time>
      </trkpt>
      <trkpt lat="43.39132" lon="6.08864">
        <ele>319.92956542969</ele>
        <time>2014-06-25T14:19:16Z</time>
      </trkpt>
      <trkpt lat="43.39132" lon="6.08859">
        <ele>320.18811035156</ele>
        <time>2014-06-25T14:19:17Z</time>
      </trkpt>
      <trkpt lat="43.39131" lon="6.08856">
        <ele>320.87936401367</ele>
        <time>2014-06-25T14:19:18Z</time>
      </trkpt>
      <trkpt lat="43.39131" lon="6.08854">
        <ele>321.02093505859</ele>
        <time>2014-06-25T14:19:19Z</time>
      </trkpt>
      <trkpt lat="43.3913" lon="6.08853">
        <ele>321.63427734375</ele>
        <time>2014-06-25T14:19:20Z</time>
      </trkpt>
      <trkpt lat="43.3913" lon="6.08853">
        <ele>321.63427734375</ele>
        <time>2014-06-25T14:19:27Z</time>
      </trkpt>
      <trkpt lat="43.3913" lon="6.0885">
        <ele>321.80584716797</ele>
        <time>2014-06-25T14:19:31Z</time>
      </trkpt>
      <trkpt lat="43.3913" lon="6.08848">
        <ele>322.10690307617</ele>
        <time>2014-06-25T14:19:36Z</time>
      </trkpt>
      <trkpt lat="43.39127" lon="6.08845">
        <ele>323.66647338867</ele>
        <time>2014-06-25T14:19:41Z</time>
      </trkpt>
      <trkpt lat="43.39126" lon="6.0884">
        <ele>324.42022705078</ele>
        <time>2014-06-25T14:19:46Z</time>
      </trkpt>
      <trkpt lat="43.39126" lon="6.0884">
        <ele>324.42022705078</ele>
        <time>2014-06-25T14:20:01Z</time>
      </trkpt>
      <trkpt lat="43.39125" lon="6.08839">
        <ele>324.83679199219</ele>
        <time>2014-06-25T14:20:07Z</time>
      </trkpt>
      <trkpt lat="43.39125" lon="6.08839">
        <ele>324.83679199219</ele>
        <time>2014-06-25T14:20:23Z</time>
      </trkpt>
      <trkpt lat="43.39125" lon="6.08839">
        <ele>324.83679199219</ele>
        <time>2014-06-25T14:20:38Z</time>
      </trkpt>
      <trkpt lat="43.39126" lon="6.08839">
        <ele>324.65338134766</ele>
        <time>2014-06-25T14:20:45Z</time>
      </trkpt>
      <trkpt lat="43.39125" lon="6.08839">
        <ele>324.84692382812</ele>
        <time>2014-06-25T14:20:51Z</time>
      </trkpt>
      <trkpt lat="43.39128" lon="6.08827">
        <ele>324.35815429688</ele>
        <time>2014-06-25T14:20:57Z</time>
      </trkpt>
      <trkpt lat="43.3913" lon="6.08805">
        <ele>323.93402099609</ele>
        <time>2014-06-25T14:21:02Z</time>
      </trkpt>
      <trkpt lat="43.39138" lon="6.08789">
        <ele>319.92175292969</ele>
        <time>2014-06-25T14:21:06Z</time>
      </trkpt>
      <trkpt lat="43.39147" lon="6.08765">
        <ele>319.70129394531</ele>
        <time>2014-06-25T14:21:11Z</time>
      </trkpt>
      <trkpt lat="43.39151" lon="6.08742">
        <ele>320.47451782227</ele>
        <time>2014-06-25T14:21:16Z</time>
      </trkpt>
      <trkpt lat="43.39156" lon="6.08723">
        <ele>321.74862670898</ele>
        <time>2014-06-25T14:21:20Z</time>
      </trkpt>
      <trkpt lat="43.39158" lon="6.08695">
        <ele>323.02185058594</ele>
        <time>2014-06-25T14:21:26Z</time>
      </trkpt>
      <trkpt lat="43.39168" lon="6.08673">
        <ele>321.55056762695</ele>
        <time>2014-06-25T14:21:32Z</time>
      </trkpt>
      <trkpt lat="43.39164" lon="6.08655">
        <ele>324.80499267578</ele>
        <time>2014-06-25T14:21:37Z</time>
      </trkpt>
      <trkpt lat="43.39164" lon="6.08632">
        <ele>327.52490234375</ele>
        <time>2014-06-25T14:21:42Z</time>
      </trkpt>
      <trkpt lat="43.39169" lon="6.08608">
        <ele>328.20913696289</ele>
        <time>2014-06-25T14:21:48Z</time>
      </trkpt>
      <trkpt lat="43.39174" lon="6.08591">
        <ele>329.35006713867</ele>
        <time>2014-06-25T14:21:52Z</time>
      </trkpt>
      <trkpt lat="43.39181" lon="6.08567">
        <ele>330.42852783203</ele>
        <time>2014-06-25T14:21:58Z</time>
      </trkpt>
      <trkpt lat="43.39188" lon="6.08554">
        <ele>329.78961181641</ele>
        <time>2014-06-25T14:22:02Z</time>
      </trkpt>
      <trkpt lat="43.39191" lon="6.0855">
        <ele>329.13732910156</ele>
        <time>2014-06-25T14:22:04Z</time>
      </trkpt>
      <trkpt lat="43.39195" lon="6.08539">
        <ele>328.70806884766</ele>
        <time>2014-06-25T14:22:09Z</time>
      </trkpt>
      <trkpt lat="43.39196" lon="6.08518">
        <ele>330.11053466797</ele>
        <time>2014-06-25T14:22:16Z</time>
      </trkpt>
      <trkpt lat="43.39195" lon="6.08511">
        <ele>330.36727905273</ele>
        <time>2014-06-25T14:22:19Z</time>
      </trkpt>
      <trkpt lat="43.39195" lon="6.08508">
        <ele>330.55444335938</ele>
        <time>2014-06-25T14:22:21Z</time>
      </trkpt>
      <trkpt lat="43.39195" lon="6.08507">
        <ele>330.5846862793</ele>
        <time>2014-06-25T14:22:28Z</time>
      </trkpt>
      <trkpt lat="43.39196" lon="6.08504">
        <ele>331.00433349609</ele>
        <time>2014-06-25T14:22:38Z</time>
      </trkpt>
      <trkpt lat="43.39199" lon="6.08498">
        <ele>331.15841674805</ele>
        <time>2014-06-25T14:22:41Z</time>
      </trkpt>
      <trkpt lat="43.39199" lon="6.08492">
        <ele>329.99099731445</ele>
        <time>2014-06-25T14:22:43Z</time>
      </trkpt>
      <trkpt lat="43.39201" lon="6.08469">
        <ele>325.14501953125</ele>
        <time>2014-06-25T14:22:48Z</time>
      </trkpt>
      <trkpt lat="43.39204" lon="6.08457">
        <ele>324.08367919922</ele>
        <time>2014-06-25T14:22:50Z</time>
      </trkpt>
      <trkpt lat="43.39207" lon="6.08443">
        <ele>322.76327514648</ele>
        <time>2014-06-25T14:22:52Z</time>
      </trkpt>
      <trkpt lat="43.39208" lon="6.08432">
        <ele>322.98187255859</ele>
        <time>2014-06-25T14:22:55Z</time>
      </trkpt>
      <trkpt lat="43.39209" lon="6.08427">
        <ele>322.97973632812</ele>
        <time>2014-06-25T14:22:56Z</time>
      </trkpt>
      <trkpt lat="43.39211" lon="6.08421">
        <ele>322.80563354492</ele>
        <time>2014-06-25T14:22:57Z</time>
      </trkpt>
      <trkpt lat="43.39217" lon="6.08406">
        <ele>321.49176025391</ele>
        <time>2014-06-25T14:23:00Z</time>
      </trkpt>
      <trkpt lat="43.39222" lon="6.08389">
        <ele>320.07711791992</ele>
        <time>2014-06-25T14:23:03Z</time>
      </trkpt>
      <trkpt lat="43.39223" lon="6.08384">
        <ele>319.82876586914</ele>
        <time>2014-06-25T14:23:04Z</time>
      </trkpt>
      <trkpt lat="43.39224" lon="6.0838">
        <ele>319.67770385742</ele>
        <time>2014-06-25T14:23:05Z</time>
      </trkpt>
      <trkpt lat="43.39227" lon="6.08376">
        <ele>319.52319335938</ele>
        <time>2014-06-25T14:23:06Z</time>
      </trkpt>
      <trkpt lat="43.3923" lon="6.0837">
        <ele>319.31378173828</ele>
        <time>2014-06-25T14:23:07Z</time>
      </trkpt>
      <trkpt lat="43.39238" lon="6.0835">
        <ele>318.76809692383</ele>
        <time>2014-06-25T14:23:10Z</time>
      </trkpt>
      <trkpt lat="43.3924" lon="6.08344">
        <ele>318.60357666016</ele>
        <time>2014-06-25T14:23:11Z</time>
      </trkpt>
      <trkpt lat="43.39243" lon="6.08334">
        <ele>318.26580810547</ele>
        <time>2014-06-25T14:23:13Z</time>
      </trkpt>
      <trkpt lat="43.39244" lon="6.08332">
        <ele>318.19940185547</ele>
        <time>2014-06-25T14:23:14Z</time>
      </trkpt>
      <trkpt lat="43.39248" lon="6.08326">
        <ele>318.08953857422</ele>
        <time>2014-06-25T14:23:17Z</time>
      </trkpt>
      <trkpt lat="43.39248" lon="6.08323">
        <ele>318.06207275391</ele>
        <time>2014-06-25T14:23:18Z</time>
      </trkpt>
      <trkpt lat="43.39248" lon="6.0832">
        <ele>318.06207275391</ele>
        <time>2014-06-25T14:23:19Z</time>
      </trkpt>
      <trkpt lat="43.39249" lon="6.08317">
        <ele>318.02087402344</ele>
        <time>2014-06-25T14:23:20Z</time>
      </trkpt>
      <trkpt lat="43.39251" lon="6.08313">
        <ele>317.99035644531</ele>
        <time>2014-06-25T14:23:22Z</time>
      </trkpt>
      <trkpt lat="43.39252" lon="6.08308">
        <ele>317.9479675293</ele>
        <time>2014-06-25T14:23:23Z</time>
      </trkpt>
      <trkpt lat="43.39253" lon="6.08301">
        <ele>317.8815612793</ele>
        <time>2014-06-25T14:23:24Z</time>
      </trkpt>
      <trkpt lat="43.39254" lon="6.08297">
        <ele>317.82867431641</ele>
        <time>2014-06-25T14:23:25Z</time>
      </trkpt>
      <trkpt lat="43.39255" lon="6.08292">
        <ele>317.74768066406</ele>
        <time>2014-06-25T14:23:26Z</time>
      </trkpt>
      <trkpt lat="43.39256" lon="6.08286">
        <ele>317.61395263672</ele>
        <time>2014-06-25T14:23:28Z</time>
      </trkpt>
      <trkpt lat="43.39258" lon="6.08281">
        <ele>317.47439575195</ele>
        <time>2014-06-25T14:23:29Z</time>
      </trkpt>
      <trkpt lat="43.3926" lon="6.08278">
        <ele>317.30282592773</ele>
        <time>2014-06-25T14:23:30Z</time>
      </trkpt>
      <trkpt lat="43.39261" lon="6.08275">
        <ele>317.10192871094</ele>
        <time>2014-06-25T14:23:31Z</time>
      </trkpt>
      <trkpt lat="43.39268" lon="6.08261">
        <ele>315.9638671875</ele>
        <time>2014-06-25T14:23:34Z</time>
      </trkpt>
      <trkpt lat="43.3927" lon="6.08256">
        <ele>315.40905761719</ele>
        <time>2014-06-25T14:23:35Z</time>
      </trkpt>
      <trkpt lat="43.39272" lon="6.0825">
        <ele>314.81231689453</ele>
        <time>2014-06-25T14:23:36Z</time>
      </trkpt>
      <trkpt lat="43.39275" lon="6.08246">
        <ele>314.32113647461</ele>
        <time>2014-06-25T14:23:37Z</time>
      </trkpt>
      <trkpt lat="43.39276" lon="6.08241">
        <ele>314.0036315918</ele>
        <time>2014-06-25T14:23:38Z</time>
      </trkpt>
      <trkpt lat="43.39281" lon="6.0823">
        <ele>312.98843383789</ele>
        <time>2014-06-25T14:23:41Z</time>
      </trkpt>
      <trkpt lat="43.39285" lon="6.08226">
        <ele>312.49285888672</ele>
        <time>2014-06-25T14:23:42Z</time>
      </trkpt>
      <trkpt lat="43.39287" lon="6.08222">
        <ele>311.98828125</ele>
        <time>2014-06-25T14:23:43Z</time>
      </trkpt>
      <trkpt lat="43.39289" lon="6.08218">
        <ele>311.42895507812</ele>
        <time>2014-06-25T14:23:44Z</time>
      </trkpt>
      <trkpt lat="43.39291" lon="6.08216">
        <ele>310.98608398438</ele>
        <time>2014-06-25T14:23:46Z</time>
      </trkpt>
      <trkpt lat="43.39293" lon="6.08217">
        <ele>310.88418579102</ele>
        <time>2014-06-25T14:23:47Z</time>
      </trkpt>
      <trkpt lat="43.39296" lon="6.08217">
        <ele>310.4284362793</ele>
        <time>2014-06-25T14:23:53Z</time>
      </trkpt>
      <trkpt lat="43.39296" lon="6.08217">
        <ele>310.4284362793</ele>
        <time>2014-06-25T14:24:07Z</time>
      </trkpt>
      <trkpt lat="43.39296" lon="6.08217">
        <ele>310.4284362793</ele>
        <time>2014-06-25T14:24:11Z</time>
      </trkpt>
      <trkpt lat="43.39296" lon="6.08217">
        <ele>310.52325439453</ele>
        <time>2014-06-25T14:24:14Z</time>
      </trkpt>
      <trkpt lat="43.39296" lon="6.08218">
        <ele>310.56579589844</ele>
        <time>2014-06-25T14:24:18Z</time>
      </trkpt>
      <trkpt lat="43.39296" lon="6.08219">
        <ele>310.65737915039</ele>
        <time>2014-06-25T14:24:19Z</time>
      </trkpt>
      <trkpt lat="43.39293" lon="6.08227">
        <ele>311.69360351562</ele>
        <time>2014-06-25T14:24:23Z</time>
      </trkpt>
      <trkpt lat="43.39294" lon="6.08241">
        <ele>312.71728515625</ele>
        <time>2014-06-25T14:24:29Z</time>
      </trkpt>
      <trkpt lat="43.39293" lon="6.08243">
        <ele>312.92544555664</ele>
        <time>2014-06-25T14:24:30Z</time>
      </trkpt>
      <trkpt lat="43.39294" lon="6.08246">
        <ele>313.07846069336</ele>
        <time>2014-06-25T14:24:31Z</time>
      </trkpt>
      <trkpt lat="43.39298" lon="6.08254">
        <ele>313.74984741211</ele>
        <time>2014-06-25T14:24:34Z</time>
      </trkpt>
      <trkpt lat="43.39297" lon="6.08258">
        <ele>314.25903320312</ele>
        <time>2014-06-25T14:24:36Z</time>
      </trkpt>
      <trkpt lat="43.39295" lon="6.08264">
        <ele>315.06475830078</ele>
        <time>2014-06-25T14:24:39Z</time>
      </trkpt>
      <trkpt lat="43.39294" lon="6.08272">
        <ele>315.86730957031</ele>
        <time>2014-06-25T14:24:43Z</time>
      </trkpt>
      <trkpt lat="43.39293" lon="6.08273">
        <ele>316.00421142578</ele>
        <time>2014-06-25T14:24:44Z</time>
      </trkpt>
      <trkpt lat="43.39288" lon="6.08276">
        <ele>316.15005493164</ele>
        <time>2014-06-25T14:24:47Z</time>
      </trkpt>
      <trkpt lat="43.39286" lon="6.08278">
        <ele>316.30508422852</ele>
        <time>2014-06-25T14:24:48Z</time>
      </trkpt>
      <trkpt lat="43.39285" lon="6.08277">
        <ele>316.19772338867</ele>
        <time>2014-06-25T14:24:49Z</time>
      </trkpt>
      <trkpt lat="43.39289" lon="6.08281">
        <ele>316.58712768555</ele>
        <time>2014-06-25T14:24:51Z</time>
      </trkpt>
      <trkpt lat="43.39291" lon="6.08283">
        <ele>316.73043823242</ele>
        <time>2014-06-25T14:24:52Z</time>
      </trkpt>
      <trkpt lat="43.39288" lon="6.08283">
        <ele>316.61804199219</ele>
        <time>2014-06-25T14:24:53Z</time>
      </trkpt>
      <trkpt lat="43.39285" lon="6.08284">
        <ele>316.51647949219</ele>
        <time>2014-06-25T14:24:54Z</time>
      </trkpt>
      <trkpt lat="43.39285" lon="6.08286">
        <ele>316.63284301758</ele>
        <time>2014-06-25T14:24:55Z</time>
      </trkpt>
      <trkpt lat="43.39281" lon="6.08286">
        <ele>316.48544311523</ele>
        <time>2014-06-25T14:24:56Z</time>
      </trkpt>
      <trkpt lat="43.39276" lon="6.08286">
        <ele>316.39749145508</ele>
        <time>2014-06-25T14:24:58Z</time>
      </trkpt>
      <trkpt lat="43.39276" lon="6.08286">
        <ele>316.42724609375</ele>
        <time>2014-06-25T14:25:02Z</time>
      </trkpt>
      <trkpt lat="43.39277" lon="6.08287">
        <ele>316.40029907227</ele>
        <time>2014-06-25T14:25:05Z</time>
      </trkpt>
      <trkpt lat="43.39275" lon="6.08287">
        <ele>316.49548339844</ele>
        <time>2014-06-25T14:25:08Z</time>
      </trkpt>
      <trkpt lat="43.3927" lon="6.08285">
        <ele>316.70941162109</ele>
        <time>2014-06-25T14:25:15Z</time>
      </trkpt>
      <trkpt lat="43.39271" lon="6.08284">
        <ele>316.6533203125</ele>
        <time>2014-06-25T14:25:18Z</time>
      </trkpt>
      <trkpt lat="43.39268" lon="6.08283">
        <ele>316.84655761719</ele>
        <time>2014-06-25T14:25:19Z</time>
      </trkpt>
      <trkpt lat="43.39267" lon="6.08283">
        <ele>316.89935302734</ele>
        <time>2014-06-25T14:25:21Z</time>
      </trkpt>
      <trkpt lat="43.39268" lon="6.08284">
        <ele>316.84637451172</ele>
        <time>2014-06-25T14:25:23Z</time>
      </trkpt>
      <trkpt lat="43.39273" lon="6.08286">
        <ele>316.59753417969</ele>
        <time>2014-06-25T14:25:28Z</time>
      </trkpt>
      <trkpt lat="43.39273" lon="6.08285">
        <ele>316.57022094727</ele>
        <time>2014-06-25T14:25:33Z</time>
      </trkpt>
      <trkpt lat="43.3927" lon="6.08279">
        <ele>316.56695556641</ele>
        <time>2014-06-25T14:25:38Z</time>
      </trkpt>
      <trkpt lat="43.39268" lon="6.08276">
        <ele>316.64761352539</ele>
        <time>2014-06-25T14:25:39Z</time>
      </trkpt>
      <trkpt lat="43.39268" lon="6.08266">
        <ele>316.14392089844</ele>
        <time>2014-06-25T14:25:43Z</time>
      </trkpt>
      <trkpt lat="43.39268" lon="6.08263">
        <ele>316.00289916992</ele>
        <time>2014-06-25T14:25:44Z</time>
      </trkpt>
      <trkpt lat="43.39269" lon="6.08254">
        <ele>315.48251342773</ele>
        <time>2014-06-25T14:25:47Z</time>
      </trkpt>
      <trkpt lat="43.39271" lon="6.08248">
        <ele>314.95462036133</ele>
        <time>2014-06-25T14:25:49Z</time>
      </trkpt>
      <trkpt lat="43.39273" lon="6.08239">
        <ele>314.419921875</ele>
        <time>2014-06-25T14:25:52Z</time>
      </trkpt>
      <trkpt lat="43.39273" lon="6.08236">
        <ele>314.24423217773</ele>
        <time>2014-06-25T14:25:54Z</time>
      </trkpt>
      <trkpt lat="43.39273" lon="6.0823">
        <ele>314.0009765625</ele>
        <time>2014-06-25T14:25:56Z</time>
      </trkpt>
      <trkpt lat="43.39274" lon="6.08225">
        <ele>313.79452514648</ele>
        <time>2014-06-25T14:25:57Z</time>
      </trkpt>
      <trkpt lat="43.39275" lon="6.08218">
        <ele>313.44104003906</ele>
        <time>2014-06-25T14:25:59Z</time>
      </trkpt>
      <trkpt lat="43.39275" lon="6.08214">
        <ele>313.30877685547</ele>
        <time>2014-06-25T14:26:00Z</time>
      </trkpt>
      <trkpt lat="43.39277" lon="6.08202">
        <ele>312.38330078125</ele>
        <time>2014-06-25T14:26:05Z</time>
      </trkpt>
      <trkpt lat="43.39274" lon="6.082">
        <ele>313.02420043945</ele>
        <time>2014-06-25T14:26:07Z</time>
      </trkpt>
      <trkpt lat="43.39271" lon="6.08197">
        <ele>313.58554077148</ele>
        <time>2014-06-25T14:26:09Z</time>
      </trkpt>
      <trkpt lat="43.39263" lon="6.08188">
        <ele>315.1845703125</ele>
        <time>2014-06-25T14:26:13Z</time>
      </trkpt>
      <trkpt lat="43.3926" lon="6.08184">
        <ele>316.02499389648</ele>
        <time>2014-06-25T14:26:15Z</time>
      </trkpt>
      <trkpt lat="43.39259" lon="6.0818">
        <ele>316.31695556641</ele>
        <time>2014-06-25T14:26:16Z</time>
      </trkpt>
      <trkpt lat="43.39257" lon="6.08177">
        <ele>317.11120605469</ele>
        <time>2014-06-25T14:26:18Z</time>
      </trkpt>
      <trkpt lat="43.39246" lon="6.08165">
        <ele>321.45642089844</ele>
        <time>2014-06-25T14:26:25Z</time>
      </trkpt>
      <trkpt lat="43.39238" lon="6.08149">
        <ele>325.75482177734</ele>
        <time>2014-06-25T14:26:30Z</time>
      </trkpt>
      <trkpt lat="43.39235" lon="6.08145">
        <ele>326.83630371094</ele>
        <time>2014-06-25T14:26:31Z</time>
      </trkpt>
      <trkpt lat="43.39238" lon="6.08136">
        <ele>326.68380737305</ele>
        <time>2014-06-25T14:26:35Z</time>
      </trkpt>
      <trkpt lat="43.39233" lon="6.08131">
        <ele>328.98065185547</ele>
        <time>2014-06-25T14:26:37Z</time>
      </trkpt>
      <trkpt lat="43.3923" lon="6.08131">
        <ele>329.96401977539</ele>
        <time>2014-06-25T14:26:38Z</time>
      </trkpt>
      <trkpt lat="43.39228" lon="6.0813">
        <ele>330.91662597656</ele>
        <time>2014-06-25T14:26:39Z</time>
      </trkpt>
      <trkpt lat="43.39223" lon="6.08129">
        <ele>332.5964050293</ele>
        <time>2014-06-25T14:26:41Z</time>
      </trkpt>
      <trkpt lat="43.39218" lon="6.08124">
        <ele>335.31289672852</ele>
        <time>2014-06-25T14:26:47Z</time>
      </trkpt>
      <trkpt lat="43.3922" lon="6.08124">
        <ele>334.55490112305</ele>
        <time>2014-06-25T14:26:54Z</time>
      </trkpt>
      <trkpt lat="43.3922" lon="6.08122">
        <ele>334.71597290039</ele>
        <time>2014-06-25T14:27:00Z</time>
      </trkpt>
      <trkpt lat="43.3922" lon="6.0812">
        <ele>334.93560791016</ele>
        <time>2014-06-25T14:27:01Z</time>
      </trkpt>
      <trkpt lat="43.39215" lon="6.08107">
        <ele>338.04504394531</ele>
        <time>2014-06-25T14:27:05Z</time>
      </trkpt>
      <trkpt lat="43.39251" lon="6.081">
        <ele>325.22943115234</ele>
        <time>2014-06-25T14:27:09Z</time>
      </trkpt>
      <trkpt lat="43.39268" lon="6.08096">
        <ele>316.03698730469</ele>
        <time>2014-06-25T14:27:12Z</time>
      </trkpt>
      <trkpt lat="43.39276" lon="6.08096">
        <ele>311.92224121094</ele>
        <time>2014-06-25T14:27:13Z</time>
      </trkpt>
      <trkpt lat="43.39289" lon="6.08092">
        <ele>306.33541870117</ele>
        <time>2014-06-25T14:27:15Z</time>
      </trkpt>
      <trkpt lat="43.39291" lon="6.08089">
        <ele>305.9228515625</ele>
        <time>2014-06-25T14:27:16Z</time>
      </trkpt>
      <trkpt lat="43.39292" lon="6.08086">
        <ele>305.59555053711</ele>
        <time>2014-06-25T14:27:17Z</time>
      </trkpt>
      <trkpt lat="43.39293" lon="6.08084">
        <ele>305.14483642578</ele>
        <time>2014-06-25T14:27:18Z</time>
      </trkpt>
      <trkpt lat="43.39296" lon="6.08083">
        <ele>303.64379882812</ele>
        <time>2014-06-25T14:27:19Z</time>
      </trkpt>
      <trkpt lat="43.39298" lon="6.08078">
        <ele>303.14224243164</ele>
        <time>2014-06-25T14:27:22Z</time>
      </trkpt>
      <trkpt lat="43.39298" lon="6.08075">
        <ele>303.41223144531</ele>
        <time>2014-06-25T14:27:23Z</time>
      </trkpt>
      <trkpt lat="43.39306" lon="6.08062">
        <ele>299.74478149414</ele>
        <time>2014-06-25T14:27:28Z</time>
      </trkpt>
      <trkpt lat="43.3931" lon="6.08057">
        <ele>299.65869140625</ele>
        <time>2014-06-25T14:27:33Z</time>
      </trkpt>
      <trkpt lat="43.3931" lon="6.08056">
        <ele>299.67620849609</ele>
        <time>2014-06-25T14:27:40Z</time>
      </trkpt>
      <trkpt lat="43.3931" lon="6.08056">
        <ele>299.67620849609</ele>
        <time>2014-06-25T14:27:53Z</time>
      </trkpt>
      <trkpt lat="43.3931" lon="6.08056">
        <ele>299.64474487305</ele>
        <time>2014-06-25T14:28:04Z</time>
      </trkpt>
      <trkpt lat="43.39318" lon="6.08049">
        <ele>300.0032043457</ele>
        <time>2014-06-25T14:28:08Z</time>
      </trkpt>
      <trkpt lat="43.39317" lon="6.08034">
        <ele>302.35452270508</ele>
        <time>2014-06-25T14:28:15Z</time>
      </trkpt>
      <trkpt lat="43.39317" lon="6.08032">
        <ele>302.8450012207</ele>
        <time>2014-06-25T14:28:16Z</time>
      </trkpt>
      <trkpt lat="43.39315" lon="6.08029">
        <ele>303.79998779297</ele>
        <time>2014-06-25T14:28:17Z</time>
      </trkpt>
      <trkpt lat="43.39313" lon="6.08027">
        <ele>304.77395629883</ele>
        <time>2014-06-25T14:28:18Z</time>
      </trkpt>
      <trkpt lat="43.3931" lon="6.08025">
        <ele>306.10971069336</ele>
        <time>2014-06-25T14:28:19Z</time>
      </trkpt>
      <trkpt lat="43.39307" lon="6.08023">
        <ele>307.85699462891</ele>
        <time>2014-06-25T14:28:20Z</time>
      </trkpt>
      <trkpt lat="43.39307" lon="6.0802">
        <ele>308.85949707031</ele>
        <time>2014-06-25T14:28:21Z</time>
      </trkpt>
      <trkpt lat="43.39313" lon="6.08014">
        <ele>307.80157470703</ele>
        <time>2014-06-25T14:28:23Z</time>
      </trkpt>
      <trkpt lat="43.39313" lon="6.08011">
        <ele>308.32211303711</ele>
        <time>2014-06-25T14:28:24Z</time>
      </trkpt>
      <trkpt lat="43.39319" lon="6.08013">
        <ele>305.02224731445</ele>
        <time>2014-06-25T14:28:25Z</time>
      </trkpt>
      <trkpt lat="43.39319" lon="6.08014">
        <ele>304.82681274414</ele>
        <time>2014-06-25T14:28:26Z</time>
      </trkpt>
      <trkpt lat="43.39318" lon="6.08017">
        <ele>305.06243896484</ele>
        <time>2014-06-25T14:28:28Z</time>
      </trkpt>
      <trkpt lat="43.39317" lon="6.08017">
        <ele>305.18170166016</ele>
        <time>2014-06-25T14:28:29Z</time>
      </trkpt>
      <trkpt lat="43.39316" lon="6.08016">
        <ele>305.7946472168</ele>
        <time>2014-06-25T14:28:33Z</time>
      </trkpt>
      <trkpt lat="43.39316" lon="6.08016">
        <ele>305.7946472168</ele>
        <time>2014-06-25T14:28:34Z</time>
      </trkpt>
      <trkpt lat="43.39321" lon="6.08017">
        <ele>303.75534057617</ele>
        <time>2014-06-25T14:28:40Z</time>
      </trkpt>
      <trkpt lat="43.39325" lon="6.08018">
        <ele>301.70385742188</ele>
        <time>2014-06-25T14:28:46Z</time>
      </trkpt>
      <trkpt lat="43.39325" lon="6.08018">
        <ele>301.70385742188</ele>
        <time>2014-06-25T14:28:50Z</time>
      </trkpt>
      <trkpt lat="43.39328" lon="6.08015">
        <ele>300.92977905273</ele>
        <time>2014-06-25T14:28:55Z</time>
      </trkpt>
      <trkpt lat="43.3933" lon="6.08013">
        <ele>299.92764282227</ele>
        <time>2014-06-25T14:28:57Z</time>
      </trkpt>
      <trkpt lat="43.39336" lon="6.08012">
        <ele>298.3024597168</ele>
        <time>2014-06-25T14:29:03Z</time>
      </trkpt>
      <trkpt lat="43.39334" lon="6.08016">
        <ele>298.39337158203</ele>
        <time>2014-06-25T14:29:07Z</time>
      </trkpt>
      <trkpt lat="43.3933" lon="6.08022">
        <ele>299.66540527344</ele>
        <time>2014-06-25T14:29:12Z</time>
      </trkpt>
      <trkpt lat="43.39328" lon="6.08025">
        <ele>300.13415527344</ele>
        <time>2014-06-25T14:29:14Z</time>
      </trkpt>
      <trkpt lat="43.39325" lon="6.08029">
        <ele>300.50466918945</ele>
        <time>2014-06-25T14:29:19Z</time>
      </trkpt>
      <trkpt lat="43.39324" lon="6.08025">
        <ele>301.33572387695</ele>
        <time>2014-06-25T14:29:23Z</time>
      </trkpt>
      <trkpt lat="43.39328" lon="6.08012">
        <ele>300.85211181641</ele>
        <time>2014-06-25T14:29:27Z</time>
      </trkpt>
      <trkpt lat="43.3933" lon="6.08007">
        <ele>300.69094848633</ele>
        <time>2014-06-25T14:29:28Z</time>
      </trkpt>
      <trkpt lat="43.39331" lon="6.07997">
        <ele>300.13272094727</ele>
        <time>2014-06-25T14:29:30Z</time>
      </trkpt>
      <trkpt lat="43.39344" lon="6.07991">
        <ele>297.5322265625</ele>
        <time>2014-06-25T14:29:32Z</time>
      </trkpt>
      <trkpt lat="43.39345" lon="6.0799">
        <ele>297.45376586914</ele>
        <time>2014-06-25T14:29:33Z</time>
      </trkpt>
      <trkpt lat="43.3936" lon="6.0799">
        <ele>295.53720092773</ele>
        <time>2014-06-25T14:29:41Z</time>
      </trkpt>
      <trkpt lat="43.3936" lon="6.0799">
        <ele>295.53720092773</ele>
        <time>2014-06-25T14:30:00Z</time>
      </trkpt>
      <trkpt lat="43.3936" lon="6.0799">
        <ele>295.53720092773</ele>
        <time>2014-06-25T14:30:07Z</time>
      </trkpt>
      <trkpt lat="43.39362" lon="6.07991">
        <ele>295.28979492188</ele>
        <time>2014-06-25T14:30:12Z</time>
      </trkpt>
      <trkpt lat="43.39362" lon="6.07991">
        <ele>295.28979492188</ele>
        <time>2014-06-25T14:30:32Z</time>
      </trkpt>
      <trkpt lat="43.39362" lon="6.07991">
        <ele>295.28979492188</ele>
        <time>2014-06-25T14:30:49Z</time>
      </trkpt>
      <trkpt lat="43.39362" lon="6.07991">
        <ele>295.26062011719</ele>
        <time>2014-06-25T14:30:57Z</time>
      </trkpt>
      <trkpt lat="43.39362" lon="6.07991">
        <ele>295.26062011719</ele>
        <time>2014-06-25T14:31:28Z</time>
      </trkpt>
      <trkpt lat="43.39362" lon="6.07991">
        <ele>295.26062011719</ele>
        <time>2014-06-25T14:33:19Z</time>
      </trkpt>
      <trkpt lat="43.39362" lon="6.07991">
        <ele>295.26062011719</ele>
        <time>2014-06-25T14:33:28Z</time>
      </trkpt>
      <trkpt lat="43.39363" lon="6.07991">
        <ele>295.14044189453</ele>
        <time>2014-06-25T14:33:46Z</time>
      </trkpt>
      <trkpt lat="43.39363" lon="6.07991">
        <ele>295.14044189453</ele>
        <time>2014-06-25T14:34:03Z</time>
      </trkpt>
      <trkpt lat="43.39363" lon="6.07991">
        <ele>295.13873291016</ele>
        <time>2014-06-25T14:35:01Z</time>
      </trkpt>
      <trkpt lat="43.39364" lon="6.07991">
        <ele>295.11297607422</ele>
        <time>2014-06-25T14:35:43Z</time>
      </trkpt>
      <trkpt lat="43.39364" lon="6.07991">
        <ele>295.11297607422</ele>
        <time>2014-06-25T14:35:59Z</time>
      </trkpt>
      <trkpt lat="43.39364" lon="6.07991">
        <ele>295.11297607422</ele>
        <time>2014-06-25T14:36:08Z</time>
      </trkpt>
      <trkpt lat="43.39365" lon="6.07991">
        <ele>295.05633544922</ele>
        <time>2014-06-25T14:36:15Z</time>
      </trkpt>
      <trkpt lat="43.39365" lon="6.07991">
        <ele>295.05633544922</ele>
        <time>2014-06-25T14:36:35Z</time>
      </trkpt>
      <trkpt lat="43.39365" lon="6.07992">
        <ele>295.0237121582</ele>
        <time>2014-06-25T14:36:53Z</time>
      </trkpt>
      <trkpt lat="43.39365" lon="6.07992">
        <ele>295.0237121582</ele>
        <time>2014-06-25T14:37:09Z</time>
      </trkpt>
      <trkpt lat="43.39365" lon="6.07992">
        <ele>295.0237121582</ele>
        <time>2014-06-25T14:37:24Z</time>
      </trkpt>
      <trkpt lat="43.39367" lon="6.07993">
        <ele>294.87438964844</ele>
        <time>2014-06-25T14:37:36Z</time>
      </trkpt>
      <trkpt lat="43.39367" lon="6.07993">
        <ele>294.87438964844</ele>
        <time>2014-06-25T14:37:44Z</time>
      </trkpt>
      <trkpt lat="43.39367" lon="6.07993">
        <ele>294.87438964844</ele>
        <time>2014-06-25T14:37:55Z</time>
      </trkpt>
      <trkpt lat="43.39368" lon="6.07986">
        <ele>294.99108886719</ele>
        <time>2014-06-25T14:38:00Z</time>
      </trkpt>
      <trkpt lat="43.39372" lon="6.07983">
        <ele>294.79541015625</ele>
        <time>2014-06-25T14:38:02Z</time>
      </trkpt>
      <trkpt lat="43.39378" lon="6.07982">
        <ele>294.41604614258</ele>
        <time>2014-06-25T14:38:04Z</time>
      </trkpt>
      <trkpt lat="43.39396" lon="6.07977">
        <ele>292.86721801758</ele>
        <time>2014-06-25T14:38:09Z</time>
      </trkpt>
      <trkpt lat="43.39399" lon="6.07977">
        <ele>292.32131958008</ele>
        <time>2014-06-25T14:38:10Z</time>
      </trkpt>
      <trkpt lat="43.39405" lon="6.07975">
        <ele>291.50936889648</ele>
        <time>2014-06-25T14:38:13Z</time>
      </trkpt>
      <trkpt lat="43.39407" lon="6.07974">
        <ele>291.39779663086</ele>
        <time>2014-06-25T14:38:14Z</time>
      </trkpt>
      <trkpt lat="43.39413" lon="6.07969">
        <ele>290.62188720703</ele>
        <time>2014-06-25T14:38:16Z</time>
      </trkpt>
      <trkpt lat="43.3942" lon="6.07964">
        <ele>289.81851196289</ele>
        <time>2014-06-25T14:38:18Z</time>
      </trkpt>
      <trkpt lat="43.39424" lon="6.07963">
        <ele>289.27261352539</ele>
        <time>2014-06-25T14:38:19Z</time>
      </trkpt>
      <trkpt lat="43.39432" lon="6.07958">
        <ele>288.29415893555</ele>
        <time>2014-06-25T14:38:21Z</time>
      </trkpt>
      <trkpt lat="43.3945" lon="6.07954">
        <ele>286.42144775391</ele>
        <time>2014-06-25T14:38:26Z</time>
      </trkpt>
      <trkpt lat="43.39457" lon="6.07955">
        <ele>286.0202331543</ele>
        <time>2014-06-25T14:38:28Z</time>
      </trkpt>
      <trkpt lat="43.39461" lon="6.07955">
        <ele>285.78912353516</ele>
        <time>2014-06-25T14:38:29Z</time>
      </trkpt>
      <trkpt lat="43.39465" lon="6.07957">
        <ele>285.45336914062</ele>
        <time>2014-06-25T14:38:30Z</time>
      </trkpt>
      <trkpt lat="43.39467" lon="6.07959">
        <ele>285.20764160156</ele>
        <time>2014-06-25T14:38:31Z</time>
      </trkpt>
      <trkpt lat="43.39468" lon="6.0796">
        <ele>285.11477661133</ele>
        <time>2014-06-25T14:38:32Z</time>
      </trkpt>
      <trkpt lat="43.3947" lon="6.0796">
        <ele>285.01416015625</ele>
        <time>2014-06-25T14:38:37Z</time>
      </trkpt>
      <trkpt lat="43.39475" lon="6.07962">
        <ele>284.40295410156</ele>
        <time>2014-06-25T14:38:43Z</time>
      </trkpt>
      <trkpt lat="43.39477" lon="6.07963">
        <ele>284.17291259766</ele>
        <time>2014-06-25T14:38:50Z</time>
      </trkpt>
      <trkpt lat="43.39478" lon="6.07963">
        <ele>284.04931640625</ele>
        <time>2014-06-25T14:38:56Z</time>
      </trkpt>
      <trkpt lat="43.39478" lon="6.07963">
        <ele>284.04931640625</ele>
        <time>2014-06-25T14:39:03Z</time>
      </trkpt>
      <trkpt lat="43.39478" lon="6.07963">
        <ele>284.04931640625</ele>
        <time>2014-06-25T14:39:17Z</time>
      </trkpt>
      <trkpt lat="43.3948" lon="6.07963">
        <ele>283.80554199219</ele>
        <time>2014-06-25T14:39:21Z</time>
      </trkpt>
      <trkpt lat="43.39484" lon="6.07961">
        <ele>283.52404785156</ele>
        <time>2014-06-25T14:39:25Z</time>
      </trkpt>
      <trkpt lat="43.39486" lon="6.07961">
        <ele>283.40045166016</ele>
        <time>2014-06-25T14:39:26Z</time>
      </trkpt>
      <trkpt lat="43.39496" lon="6.07957">
        <ele>282.53527832031</ele>
        <time>2014-06-25T14:39:31Z</time>
      </trkpt>
      <trkpt lat="43.39511" lon="6.07951">
        <ele>281.75756835938</ele>
        <time>2014-06-25T14:39:35Z</time>
      </trkpt>
      <trkpt lat="43.39516" lon="6.07949">
        <ele>281.56872558594</ele>
        <time>2014-06-25T14:39:36Z</time>
      </trkpt>
      <trkpt lat="43.39521" lon="6.07946">
        <ele>281.42797851562</ele>
        <time>2014-06-25T14:39:37Z</time>
      </trkpt>
      <trkpt lat="43.39525" lon="6.07942">
        <ele>281.53179931641</ele>
        <time>2014-06-25T14:39:38Z</time>
      </trkpt>
      <trkpt lat="43.39534" lon="6.07938">
        <ele>282.06948852539</ele>
        <time>2014-06-25T14:39:40Z</time>
      </trkpt>
      <trkpt lat="43.39537" lon="6.07937">
        <ele>282.12274169922</ele>
        <time>2014-06-25T14:39:41Z</time>
      </trkpt>
      <trkpt lat="43.39539" lon="6.07937">
        <ele>282.08212280273</ele>
        <time>2014-06-25T14:39:42Z</time>
      </trkpt>
      <trkpt lat="43.3954" lon="6.07937">
        <ele>282.07037353516</ele>
        <time>2014-06-25T14:39:43Z</time>
      </trkpt>
      <trkpt lat="43.39542" lon="6.07937">
        <ele>282.03082275391</ele>
        <time>2014-06-25T14:39:44Z</time>
      </trkpt>
      <trkpt lat="43.39543" lon="6.07936">
        <ele>282.09649658203</ele>
        <time>2014-06-25T14:39:45Z</time>
      </trkpt>
      <trkpt lat="43.39551" lon="6.07933">
        <ele>282.59375</ele>
        <time>2014-06-25T14:39:50Z</time>
      </trkpt>
      <trkpt lat="43.39552" lon="6.07932">
        <ele>282.73333740234</ele>
        <time>2014-06-25T14:39:51Z</time>
      </trkpt>
      <trkpt lat="43.39558" lon="6.07929">
        <ele>283.28833007812</ele>
        <time>2014-06-25T14:39:54Z</time>
      </trkpt>
      <trkpt lat="43.39559" lon="6.07928">
        <ele>283.47503662109</ele>
        <time>2014-06-25T14:39:55Z</time>
      </trkpt>
      <trkpt lat="43.39561" lon="6.07923">
        <ele>284.40228271484</ele>
        <time>2014-06-25T14:40:02Z</time>
      </trkpt>
      <trkpt lat="43.39561" lon="6.07923">
        <ele>284.3918762207</ele>
        <time>2014-06-25T14:40:11Z</time>
      </trkpt>
      <trkpt lat="43.39561" lon="6.07923">
        <ele>284.3918762207</ele>
        <time>2014-06-25T14:40:19Z</time>
      </trkpt>
      <trkpt lat="43.39562" lon="6.07923">
        <ele>284.42047119141</ele>
        <time>2014-06-25T14:40:27Z</time>
      </trkpt>
      <trkpt lat="43.39563" lon="6.07922">
        <ele>284.6257019043</ele>
        <time>2014-06-25T14:40:35Z</time>
      </trkpt>
      <trkpt lat="43.39564" lon="6.07916">
        <ele>285.78393554688</ele>
        <time>2014-06-25T14:40:39Z</time>
      </trkpt>
      <trkpt lat="43.39564" lon="6.07912">
        <ele>286.43481445312</ele>
        <time>2014-06-25T14:40:41Z</time>
      </trkpt>
      <trkpt lat="43.39567" lon="6.07906">
        <ele>287.35339355469</ele>
        <time>2014-06-25T14:40:45Z</time>
      </trkpt>
      <trkpt lat="43.39565" lon="6.07909">
        <ele>286.83639526367</ele>
        <time>2014-06-25T14:40:49Z</time>
      </trkpt>
      <trkpt lat="43.39566" lon="6.0791">
        <ele>286.63800048828</ele>
        <time>2014-06-25T14:40:52Z</time>
      </trkpt>
      <trkpt lat="43.39567" lon="6.0791">
        <ele>286.60180664062</ele>
        <time>2014-06-25T14:40:53Z</time>
      </trkpt>
      <trkpt lat="43.39568" lon="6.0791">
        <ele>286.5654296875</ele>
        <time>2014-06-25T14:40:55Z</time>
      </trkpt>
      <trkpt lat="43.39571" lon="6.07907">
        <ele>286.95761108398</ele>
        <time>2014-06-25T14:40:59Z</time>
      </trkpt>
      <trkpt lat="43.39574" lon="6.07905">
        <ele>287.35681152344</ele>
        <time>2014-06-25T14:41:02Z</time>
      </trkpt>
      <trkpt lat="43.39577" lon="6.07902">
        <ele>287.68142700195</ele>
        <time>2014-06-25T14:41:08Z</time>
      </trkpt>
      <trkpt lat="43.39577" lon="6.07902">
        <ele>287.68142700195</ele>
        <time>2014-06-25T14:41:30Z</time>
      </trkpt>
      <trkpt lat="43.39577" lon="6.07903">
        <ele>287.61566162109</ele>
        <time>2014-06-25T14:42:34Z</time>
      </trkpt>
      <trkpt lat="43.39577" lon="6.07903">
        <ele>287.61566162109</ele>
        <time>2014-06-25T14:43:00Z</time>
      </trkpt>
      <trkpt lat="43.39578" lon="6.07902">
        <ele>287.66653442383</ele>
        <time>2014-06-25T14:44:31Z</time>
      </trkpt>
      <trkpt lat="43.39578" lon="6.07902">
        <ele>287.66653442383</ele>
        <time>2014-06-25T14:44:48Z</time>
      </trkpt>
      <trkpt lat="43.39577" lon="6.07902">
        <ele>287.71432495117</ele>
        <time>2014-06-25T14:45:13Z</time>
      </trkpt>
      <trkpt lat="43.39577" lon="6.07902">
        <ele>287.71432495117</ele>
        <time>2014-06-25T14:45:26Z</time>
      </trkpt>
      <trkpt lat="43.39577" lon="6.07902">
        <ele>287.71432495117</ele>
        <time>2014-06-25T14:45:46Z</time>
      </trkpt>
      <trkpt lat="43.39577" lon="6.07902">
        <ele>287.75543212891</ele>
        <time>2014-06-25T14:45:47Z</time>
      </trkpt>
      <trkpt lat="43.39577" lon="6.07902">
        <ele>287.75543212891</ele>
        <time>2014-06-25T14:46:09Z</time>
      </trkpt>
      <trkpt lat="43.39577" lon="6.07902">
        <ele>287.68966674805</ele>
        <time>2014-06-25T14:46:43Z</time>
      </trkpt>
      <trkpt lat="43.39577" lon="6.07903">
        <ele>287.55810546875</ele>
        <time>2014-06-25T14:46:51Z</time>
      </trkpt>
      <trkpt lat="43.39577" lon="6.07903">
        <ele>287.55810546875</ele>
        <time>2014-06-25T14:47:12Z</time>
      </trkpt>
      <trkpt lat="43.39578" lon="6.07903">
        <ele>287.47689819336</ele>
        <time>2014-06-25T14:47:40Z</time>
      </trkpt>
      <trkpt lat="43.39578" lon="6.07903">
        <ele>287.47689819336</ele>
        <time>2014-06-25T14:47:54Z</time>
      </trkpt>
      <trkpt lat="43.3958" lon="6.07904">
        <ele>287.29943847656</ele>
        <time>2014-06-25T14:48:27Z</time>
      </trkpt>
      <trkpt lat="43.39582" lon="6.07906">
        <ele>287.02362060547</ele>
        <time>2014-06-25T14:48:28Z</time>
      </trkpt>
      <trkpt lat="43.3959" lon="6.07905">
        <ele>287.07308959961</ele>
        <time>2014-06-25T14:48:31Z</time>
      </trkpt>
      <trkpt lat="43.39598" lon="6.07902">
        <ele>287.61383056641</ele>
        <time>2014-06-25T14:48:33Z</time>
      </trkpt>
      <trkpt lat="43.39602" lon="6.079">
        <ele>287.94000244141</ele>
        <time>2014-06-25T14:48:34Z</time>
      </trkpt>
      <trkpt lat="43.39606" lon="6.07898">
        <ele>288.30047607422</ele>
        <time>2014-06-25T14:48:35Z</time>
      </trkpt>
      <trkpt lat="43.39612" lon="6.07896">
        <ele>288.720703125</ele>
        <time>2014-06-25T14:48:36Z</time>
      </trkpt>
      <trkpt lat="43.39616" lon="6.07894">
        <ele>289.22882080078</ele>
        <time>2014-06-25T14:48:37Z</time>
      </trkpt>
      <trkpt lat="43.39637" lon="6.0789">
        <ele>290.71710205078</ele>
        <time>2014-06-25T14:48:41Z</time>
      </trkpt>
      <trkpt lat="43.39643" lon="6.07889">
        <ele>291.19604492188</ele>
        <time>2014-06-25T14:48:42Z</time>
      </trkpt>
      <trkpt lat="43.39661" lon="6.07891">
        <ele>292.24548339844</ele>
        <time>2014-06-25T14:48:45Z</time>
      </trkpt>
      <trkpt lat="43.39668" lon="6.07892">
        <ele>292.40496826172</ele>
        <time>2014-06-25T14:48:46Z</time>
      </trkpt>
      <trkpt lat="43.3968" lon="6.07897">
        <ele>292.27447509766</ele>
        <time>2014-06-25T14:48:48Z</time>
      </trkpt>
      <trkpt lat="43.39686" lon="6.07901">
        <ele>291.83160400391</ele>
        <time>2014-06-25T14:48:49Z</time>
      </trkpt>
      <trkpt lat="43.39691" lon="6.07907">
        <ele>290.86343383789</ele>
        <time>2014-06-25T14:48:50Z</time>
      </trkpt>
      <trkpt lat="43.39695" lon="6.07913">
        <ele>289.85806274414</ele>
        <time>2014-06-25T14:48:51Z</time>
      </trkpt>
      <trkpt lat="43.397" lon="6.0792">
        <ele>288.7724609375</ele>
        <time>2014-06-25T14:48:52Z</time>
      </trkpt>
      <trkpt lat="43.3971" lon="6.07935">
        <ele>285.33410644531</ele>
        <time>2014-06-25T14:48:54Z</time>
      </trkpt>
      <trkpt lat="43.39718" lon="6.07943">
        <ele>283.69818115234</ele>
        <time>2014-06-25T14:48:55Z</time>
      </trkpt>
      <trkpt lat="43.39731" lon="6.07956">
        <ele>281.2961730957</ele>
        <time>2014-06-25T14:48:57Z</time>
      </trkpt>
      <trkpt lat="43.39736" lon="6.0796">
        <ele>280.03289794922</ele>
        <time>2014-06-25T14:48:58Z</time>
      </trkpt>
      <trkpt lat="43.39747" lon="6.07967">
        <ele>277.62237548828</ele>
        <time>2014-06-25T14:49:00Z</time>
      </trkpt>
      <trkpt lat="43.39753" lon="6.0797">
        <ele>276.60595703125</ele>
        <time>2014-06-25T14:49:01Z</time>
      </trkpt>
      <trkpt lat="43.39776" lon="6.07983">
        <ele>274.0022277832</ele>
        <time>2014-06-25T14:49:05Z</time>
      </trkpt>
      <trkpt lat="43.39783" lon="6.07987">
        <ele>273.65881347656</ele>
        <time>2014-06-25T14:49:06Z</time>
      </trkpt>
      <trkpt lat="43.39812" lon="6.08002">
        <ele>272.30142211914</ele>
        <time>2014-06-25T14:49:10Z</time>
      </trkpt>
      <trkpt lat="43.3982" lon="6.08006">
        <ele>271.43661499023</ele>
        <time>2014-06-25T14:49:11Z</time>
      </trkpt>
      <trkpt lat="43.39825" lon="6.0801">
        <ele>270.85266113281</ele>
        <time>2014-06-25T14:49:12Z</time>
      </trkpt>
      <trkpt lat="43.39832" lon="6.08014">
        <ele>270.4020690918</ele>
        <time>2014-06-25T14:49:13Z</time>
      </trkpt>
      <trkpt lat="43.39843" lon="6.08022">
        <ele>268.60263061523</ele>
        <time>2014-06-25T14:49:15Z</time>
      </trkpt>
      <trkpt lat="43.39868" lon="6.08037">
        <ele>265.26202392578</ele>
        <time>2014-06-25T14:49:20Z</time>
      </trkpt>
      <trkpt lat="43.3989" lon="6.08039">
        <ele>263.76184082031</ele>
        <time>2014-06-25T14:49:25Z</time>
      </trkpt>
      <trkpt lat="43.399" lon="6.08032">
        <ele>263.81747436523</ele>
        <time>2014-06-25T14:49:28Z</time>
      </trkpt>
      <trkpt lat="43.39902" lon="6.08029">
        <ele>263.95544433594</ele>
        <time>2014-06-25T14:49:29Z</time>
      </trkpt>
      <trkpt lat="43.39911" lon="6.08017">
        <ele>264.3479309082</ele>
        <time>2014-06-25T14:49:33Z</time>
      </trkpt>
      <trkpt lat="43.39923" lon="6.08007">
        <ele>263.94174194336</ele>
        <time>2014-06-25T14:49:37Z</time>
      </trkpt>
      <trkpt lat="43.39933" lon="6.08001">
        <ele>263.24526977539</ele>
        <time>2014-06-25T14:49:40Z</time>
      </trkpt>
      <trkpt lat="43.39936" lon="6.07999">
        <ele>262.95217895508</ele>
        <time>2014-06-25T14:49:41Z</time>
      </trkpt>
      <trkpt lat="43.39954" lon="6.07987">
        <ele>261.27288818359</ele>
        <time>2014-06-25T14:49:46Z</time>
      </trkpt>
      <trkpt lat="43.39964" lon="6.07982">
        <ele>260.04440307617</ele>
        <time>2014-06-25T14:49:49Z</time>
      </trkpt>
      <trkpt lat="43.39967" lon="6.0798">
        <ele>259.70074462891</ele>
        <time>2014-06-25T14:49:50Z</time>
      </trkpt>
      <trkpt lat="43.39973" lon="6.07973">
        <ele>258.8232421875</ele>
        <time>2014-06-25T14:49:54Z</time>
      </trkpt>
      <trkpt lat="43.39975" lon="6.07972">
        <ele>258.603515625</ele>
        <time>2014-06-25T14:49:55Z</time>
      </trkpt>
      <trkpt lat="43.39975" lon="6.0797">
        <ele>258.45825195312</ele>
        <time>2014-06-25T14:49:56Z</time>
      </trkpt>
      <trkpt lat="43.39975" lon="6.07964">
        <ele>258.32263183594</ele>
        <time>2014-06-25T14:49:58Z</time>
      </trkpt>
      <trkpt lat="43.39975" lon="6.07961">
        <ele>258.240234375</ele>
        <time>2014-06-25T14:49:59Z</time>
      </trkpt>
      <trkpt lat="43.39977" lon="6.0795">
        <ele>257.47808837891</ele>
        <time>2014-06-25T14:50:01Z</time>
      </trkpt>
      <trkpt lat="43.39984" lon="6.07921">
        <ele>255.48165893555</ele>
        <time>2014-06-25T14:50:05Z</time>
      </trkpt>
      <trkpt lat="43.39986" lon="6.07913">
        <ele>255.0654296875</ele>
        <time>2014-06-25T14:50:06Z</time>
      </trkpt>
      <trkpt lat="43.39988" lon="6.07907">
        <ele>254.73583984375</ele>
        <time>2014-06-25T14:50:07Z</time>
      </trkpt>
      <trkpt lat="43.39993" lon="6.07891">
        <ele>254.07666015625</ele>
        <time>2014-06-25T14:50:09Z</time>
      </trkpt>
      <trkpt lat="43.39997" lon="6.07874">
        <ele>252.88191223144</ele>
        <time>2014-06-25T14:50:11Z</time>
      </trkpt>
      <trkpt lat="43.39999" lon="6.07866">
        <ele>252.25019836426</ele>
        <time>2014-06-25T14:50:12Z</time>
      </trkpt>
      <trkpt lat="43.40001" lon="6.07858">
        <ele>251.68714904785</ele>
        <time>2014-06-25T14:50:13Z</time>
      </trkpt>
      <trkpt lat="43.40004" lon="6.0785">
        <ele>251.06916809082</ele>
        <time>2014-06-25T14:50:14Z</time>
      </trkpt>
      <trkpt lat="43.40008" lon="6.07835">
        <ele>249.95336914062</ele>
        <time>2014-06-25T14:50:16Z</time>
      </trkpt>
      <trkpt lat="43.40019" lon="6.07797">
        <ele>248.60458374023</ele>
        <time>2014-06-25T14:50:22Z</time>
      </trkpt>
      <trkpt lat="43.40034" lon="6.07752">
        <ele>248.00119018555</ele>
        <time>2014-06-25T14:50:29Z</time>
      </trkpt>
      <trkpt lat="43.40039" lon="6.0774">
        <ele>247.66558837891</ele>
        <time>2014-06-25T14:50:31Z</time>
      </trkpt>
      <trkpt lat="43.40051" lon="6.07725">
        <ele>246.64419555664</ele>
        <time>2014-06-25T14:50:34Z</time>
      </trkpt>
      <trkpt lat="43.40074" lon="6.07693">
        <ele>245.36798095703</ele>
        <time>2014-06-25T14:50:40Z</time>
      </trkpt>
      <trkpt lat="43.40077" lon="6.07687">
        <ele>245.16026306152</ele>
        <time>2014-06-25T14:50:41Z</time>
      </trkpt>
      <trkpt lat="43.40081" lon="6.0768">
        <ele>244.9250793457</ele>
        <time>2014-06-25T14:50:42Z</time>
      </trkpt>
      <trkpt lat="43.40084" lon="6.07672">
        <ele>244.76715087891</ele>
        <time>2014-06-25T14:50:43Z</time>
      </trkpt>
      <trkpt lat="43.40089" lon="6.07652">
        <ele>244.75106811523</ele>
        <time>2014-06-25T14:50:45Z</time>
      </trkpt>
      <trkpt lat="43.40091" lon="6.07641">
        <ele>245.11366271973</ele>
        <time>2014-06-25T14:50:46Z</time>
      </trkpt>
      <trkpt lat="43.40091" lon="6.07629">
        <ele>245.43013000488</ele>
        <time>2014-06-25T14:50:47Z</time>
      </trkpt>
      <trkpt lat="43.40092" lon="6.07616">
        <ele>245.65960693359</ele>
        <time>2014-06-25T14:50:49Z</time>
      </trkpt>
      <trkpt lat="43.40093" lon="6.07605">
        <ele>245.62963867188</ele>
        <time>2014-06-25T14:50:50Z</time>
      </trkpt>
      <trkpt lat="43.40096" lon="6.07593">
        <ele>245.2451171875</ele>
        <time>2014-06-25T14:50:51Z</time>
      </trkpt>
      <trkpt lat="43.40099" lon="6.07583">
        <ele>244.69580078125</ele>
        <time>2014-06-25T14:50:52Z</time>
      </trkpt>
      <trkpt lat="43.40104" lon="6.07574">
        <ele>243.98168945312</ele>
        <time>2014-06-25T14:50:53Z</time>
      </trkpt>
      <trkpt lat="43.40115" lon="6.07558">
        <ele>242.58270263672</ele>
        <time>2014-06-25T14:50:55Z</time>
      </trkpt>
      <trkpt lat="43.40128" lon="6.07536">
        <ele>241.22314453125</ele>
        <time>2014-06-25T14:50:58Z</time>
      </trkpt>
      <trkpt lat="43.40134" lon="6.07521">
        <ele>240.32298278809</ele>
        <time>2014-06-25T14:51:00Z</time>
      </trkpt>
      <trkpt lat="43.4014" lon="6.07506">
        <ele>239.11264038086</ele>
        <time>2014-06-25T14:51:02Z</time>
      </trkpt>
      <trkpt lat="43.40146" lon="6.07477">
        <ele>238.46960449219</ele>
        <time>2014-06-25T14:51:05Z</time>
      </trkpt>
      <trkpt lat="43.40149" lon="6.07456">
        <ele>237.92868041992</ele>
        <time>2014-06-25T14:51:07Z</time>
      </trkpt>
      <trkpt lat="43.40149" lon="6.07436">
        <ele>237.31369018555</ele>
        <time>2014-06-25T14:51:09Z</time>
      </trkpt>
      <trkpt lat="43.40149" lon="6.07426">
        <ele>236.9841003418</ele>
        <time>2014-06-25T14:51:10Z</time>
      </trkpt>
      <trkpt lat="43.40147" lon="6.07417">
        <ele>236.70944213867</ele>
        <time>2014-06-25T14:51:11Z</time>
      </trkpt>
      <trkpt lat="43.40146" lon="6.07407">
        <ele>236.74853515625</ele>
        <time>2014-06-25T14:51:12Z</time>
      </trkpt>
      <trkpt lat="43.40142" lon="6.07391">
        <ele>236.87213134766</ele>
        <time>2014-06-25T14:51:14Z</time>
      </trkpt>
      <trkpt lat="43.40142" lon="6.07382">
        <ele>236.89959716797</ele>
        <time>2014-06-25T14:51:15Z</time>
      </trkpt>
      <trkpt lat="43.40144" lon="6.0736">
        <ele>236.77481079102</ele>
        <time>2014-06-25T14:51:18Z</time>
      </trkpt>
      <trkpt lat="43.40145" lon="6.07352">
        <ele>236.45381164551</ele>
        <time>2014-06-25T14:51:19Z</time>
      </trkpt>
      <trkpt lat="43.40149" lon="6.07319">
        <ele>235.65240478516</ele>
        <time>2014-06-25T14:51:23Z</time>
      </trkpt>
      <trkpt lat="43.4015" lon="6.07303">
        <ele>235.59747314453</ele>
        <time>2014-06-25T14:51:25Z</time>
      </trkpt>
      <trkpt lat="43.40149" lon="6.07264">
        <ele>235.11157226562</ele>
        <time>2014-06-25T14:51:30Z</time>
      </trkpt>
      <trkpt lat="43.40149" lon="6.07257">
        <ele>234.89698791504</ele>
        <time>2014-06-25T14:51:31Z</time>
      </trkpt>
      <trkpt lat="43.40149" lon="6.07235">
        <ele>234.62493896484</ele>
        <time>2014-06-25T14:51:35Z</time>
      </trkpt>
      <trkpt lat="43.40154" lon="6.07225">
        <ele>234.44641113281</ele>
        <time>2014-06-25T14:51:37Z</time>
      </trkpt>
      <trkpt lat="43.40158" lon="6.0722">
        <ele>234.29534912109</ele>
        <time>2014-06-25T14:51:38Z</time>
      </trkpt>
      <trkpt lat="43.40179" lon="6.07202">
        <ele>233.56750488281</ele>
        <time>2014-06-25T14:51:42Z</time>
      </trkpt>
      <trkpt lat="43.40186" lon="6.07198">
        <ele>233.3203125</ele>
        <time>2014-06-25T14:51:43Z</time>
      </trkpt>
      <trkpt lat="43.40193" lon="6.07193">
        <ele>233.06178283691</ele>
        <time>2014-06-25T14:51:44Z</time>
      </trkpt>
      <trkpt lat="43.402" lon="6.07189">
        <ele>232.6375579834</ele>
        <time>2014-06-25T14:51:45Z</time>
      </trkpt>
      <trkpt lat="43.40208" lon="6.07184">
        <ele>232.19964599609</ele>
        <time>2014-06-25T14:51:46Z</time>
      </trkpt>
      <trkpt lat="43.40216" lon="6.0718">
        <ele>231.83253479004</ele>
        <time>2014-06-25T14:51:47Z</time>
      </trkpt>
      <trkpt lat="43.40225" lon="6.07176">
        <ele>231.56231689453</ele>
        <time>2014-06-25T14:51:48Z</time>
      </trkpt>
      <trkpt lat="43.40234" lon="6.07173">
        <ele>231.34602355957</ele>
        <time>2014-06-25T14:51:49Z</time>
      </trkpt>
      <trkpt lat="43.40242" lon="6.07172">
        <ele>231.08337402344</ele>
        <time>2014-06-25T14:51:50Z</time>
      </trkpt>
      <trkpt lat="43.40249" lon="6.0717">
        <ele>230.89456176758</ele>
        <time>2014-06-25T14:51:51Z</time>
      </trkpt>
      <trkpt lat="43.40255" lon="6.07169">
        <ele>230.55854797363</ele>
        <time>2014-06-25T14:51:52Z</time>
      </trkpt>
      <trkpt lat="43.40259" lon="6.07169">
        <ele>230.27404785156</ele>
        <time>2014-06-25T14:51:53Z</time>
      </trkpt>
      <trkpt lat="43.40263" lon="6.0717">
        <ele>229.99548339844</ele>
        <time>2014-06-25T14:51:54Z</time>
      </trkpt>
      <trkpt lat="43.40265" lon="6.07171">
        <ele>229.83064270019</ele>
        <time>2014-06-25T14:51:55Z</time>
      </trkpt>
      <trkpt lat="43.40268" lon="6.07172">
        <ele>229.63987731934</ele>
        <time>2014-06-25T14:51:56Z</time>
      </trkpt>
      <trkpt lat="43.40274" lon="6.07176">
        <ele>229.24772644043</ele>
        <time>2014-06-25T14:51:58Z</time>
      </trkpt>
      <trkpt lat="43.40284" lon="6.07191">
        <ele>228.55395507812</ele>
        <time>2014-06-25T14:52:02Z</time>
      </trkpt>
      <trkpt lat="43.40294" lon="6.07204">
        <ele>227.81286621094</ele>
        <time>2014-06-25T14:52:05Z</time>
      </trkpt>
      <trkpt lat="43.40307" lon="6.07213">
        <ele>226.93951416016</ele>
        <time>2014-06-25T14:52:08Z</time>
      </trkpt>
      <trkpt lat="43.4034" lon="6.07228">
        <ele>225.54443359375</ele>
        <time>2014-06-25T14:52:14Z</time>
      </trkpt>
      <trkpt lat="43.4035" lon="6.07233">
        <ele>224.83032226562</ele>
        <time>2014-06-25T14:52:16Z</time>
      </trkpt>
      <trkpt lat="43.40353" lon="6.07237">
        <ele>224.5556640625</ele>
        <time>2014-06-25T14:52:17Z</time>
      </trkpt>
      <trkpt lat="43.40355" lon="6.0724">
        <ele>224.41833496094</ele>
        <time>2014-06-25T14:52:18Z</time>
      </trkpt>
      <trkpt lat="43.40357" lon="6.07242">
        <ele>224.30847167969</ele>
        <time>2014-06-25T14:52:19Z</time>
      </trkpt>
      <trkpt lat="43.40358" lon="6.07244">
        <ele>224.25354003906</ele>
        <time>2014-06-25T14:52:20Z</time>
      </trkpt>
      <trkpt lat="43.40359" lon="6.07247">
        <ele>224.17114257812</ele>
        <time>2014-06-25T14:52:22Z</time>
      </trkpt>
      <trkpt lat="43.40359" lon="6.0725">
        <ele>224.1162109375</ele>
        <time>2014-06-25T14:52:26Z</time>
      </trkpt>
      <trkpt lat="43.4036" lon="6.07254">
        <ele>224.08874511719</ele>
        <time>2014-06-25T14:52:28Z</time>
      </trkpt>
      <trkpt lat="43.40361" lon="6.07268">
        <ele>224.03381347656</ele>
        <time>2014-06-25T14:52:33Z</time>
      </trkpt>
      <trkpt lat="43.40361" lon="6.07272">
        <ele>223.98944091797</ele>
        <time>2014-06-25T14:52:34Z</time>
      </trkpt>
      <trkpt lat="43.40372" lon="6.07285">
        <ele>223.77203369141</ele>
        <time>2014-06-25T14:52:38Z</time>
      </trkpt>
      <trkpt lat="43.40376" lon="6.07286">
        <ele>223.59481811523</ele>
        <time>2014-06-25T14:52:39Z</time>
      </trkpt>
      <trkpt lat="43.4039" lon="6.07283">
        <ele>222.97320556641</ele>
        <time>2014-06-25T14:52:42Z</time>
      </trkpt>
      <trkpt lat="43.40395" lon="6.07282">
        <ele>222.78094482422</ele>
        <time>2014-06-25T14:52:43Z</time>
      </trkpt>
      <trkpt lat="43.40401" lon="6.07282">
        <ele>222.57495117188</ele>
        <time>2014-06-25T14:52:44Z</time>
      </trkpt>
      <trkpt lat="43.40413" lon="6.07284">
        <ele>222.14923095703</ele>
        <time>2014-06-25T14:52:46Z</time>
      </trkpt>
      <trkpt lat="43.40419" lon="6.07284">
        <ele>221.83154296875</ele>
        <time>2014-06-25T14:52:47Z</time>
      </trkpt>
      <trkpt lat="43.40425" lon="6.07283">
        <ele>221.36462402344</ele>
        <time>2014-06-25T14:52:48Z</time>
      </trkpt>
      <trkpt lat="43.40432" lon="6.07283">
        <ele>220.87023925781</ele>
        <time>2014-06-25T14:52:49Z</time>
      </trkpt>
      <trkpt lat="43.4044" lon="6.07282">
        <ele>220.34838867188</ele>
        <time>2014-06-25T14:52:50Z</time>
      </trkpt>
      <trkpt lat="43.40462" lon="6.07281">
        <ele>220</ele>
        <time>2014-06-25T14:52:53Z</time>
      </trkpt>
      <trkpt lat="43.40485" lon="6.0728">
        <ele>219.52624511719</ele>
        <time>2014-06-25T14:52:56Z</time>
      </trkpt>
      <trkpt lat="43.40493" lon="6.0728">
        <ele>219.25158691406</ele>
        <time>2014-06-25T14:52:57Z</time>
      </trkpt>
      <trkpt lat="43.405" lon="6.07282">
        <ele>218.99066162109</ele>
        <time>2014-06-25T14:52:58Z</time>
      </trkpt>
      <trkpt lat="43.40506" lon="6.07288">
        <ele>218.77093505859</ele>
        <time>2014-06-25T14:52:59Z</time>
      </trkpt>
      <trkpt lat="43.40512" lon="6.07295">
        <ele>218.57867431641</ele>
        <time>2014-06-25T14:53:00Z</time>
      </trkpt>
      <trkpt lat="43.40524" lon="6.07301">
        <ele>218.13922119141</ele>
        <time>2014-06-25T14:53:03Z</time>
      </trkpt>
      <trkpt lat="43.40541" lon="6.07302">
        <ele>218</ele>
        <time>2014-06-25T14:53:06Z</time>
      </trkpt>
      <trkpt lat="43.40554" lon="6.07303">
        <ele>218</ele>
        <time>2014-06-25T14:53:10Z</time>
      </trkpt>
      <trkpt lat="43.40556" lon="6.07304">
        <ele>217.98565673828</ele>
        <time>2014-06-25T14:53:11Z</time>
      </trkpt>
      <trkpt lat="43.40556" lon="6.07303">
        <ele>217.98565673828</ele>
        <time>2014-06-25T14:53:12Z</time>
      </trkpt>
      <trkpt lat="43.40556" lon="6.07304">
        <ele>217.97192382812</ele>
        <time>2014-06-25T14:53:13Z</time>
      </trkpt>
      <trkpt lat="43.40556" lon="6.07304">
        <ele>217.97192382812</ele>
        <time>2014-06-25T14:53:27Z</time>
      </trkpt>
      <trkpt lat="43.40557" lon="6.07303">
        <ele>217.95819091797</ele>
        <time>2014-06-25T14:53:55Z</time>
      </trkpt>
      <trkpt lat="43.40557" lon="6.07303">
        <ele>217.95819091797</ele>
        <time>2014-06-25T14:54:09Z</time>
      </trkpt>
      <trkpt lat="43.40557" lon="6.07303">
        <ele>217.95819091797</ele>
        <time>2014-06-25T14:54:27Z</time>
      </trkpt>
      <trkpt lat="43.40557" lon="6.07303">
        <ele>217.94445800781</ele>
        <time>2014-06-25T14:54:34Z</time>
      </trkpt>
      <trkpt lat="43.40557" lon="6.07303">
        <ele>217.94445800781</ele>
        <time>2014-06-25T14:54:44Z</time>
      </trkpt>
      <trkpt lat="43.40563" lon="6.07305">
        <ele>217.72473144531</ele>
        <time>2014-06-25T14:54:50Z</time>
      </trkpt>
      <trkpt lat="43.40581" lon="6.07304">
        <ele>217.07928466797</ele>
        <time>2014-06-25T14:54:55Z</time>
      </trkpt>
      <trkpt lat="43.40595" lon="6.073">
        <ele>217</ele>
        <time>2014-06-25T14:54:59Z</time>
      </trkpt>
      <trkpt lat="43.40609" lon="6.07312">
        <ele>216.77258300781</ele>
        <time>2014-06-25T14:55:02Z</time>
      </trkpt>
      <trkpt lat="43.40625" lon="6.07338">
        <ele>215.5</ele>
        <time>2014-06-25T14:55:07Z</time>
      </trkpt>
      <trkpt lat="43.40633" lon="6.07339">
        <ele>215.22534179688</ele>
        <time>2014-06-25T14:55:09Z</time>
      </trkpt>
      <trkpt lat="43.40636" lon="6.07334">
        <ele>215.11547851562</ele>
        <time>2014-06-25T14:55:10Z</time>
      </trkpt>
      <trkpt lat="43.40643" lon="6.07323">
        <ele>215.22387695312</ele>
        <time>2014-06-25T14:55:12Z</time>
      </trkpt>
      <trkpt lat="43.40648" lon="6.07319">
        <ele>215.17924499512</ele>
        <time>2014-06-25T14:55:13Z</time>
      </trkpt>
      <trkpt lat="43.40659" lon="6.07312">
        <ele>215.02304077148</ele>
        <time>2014-06-25T14:55:15Z</time>
      </trkpt>
      <trkpt lat="43.40677" lon="6.07302">
        <ele>215</ele>
        <time>2014-06-25T14:55:18Z</time>
      </trkpt>
      <trkpt lat="43.40702" lon="6.07288">
        <ele>214.72595214844</ele>
        <time>2014-06-25T14:55:22Z</time>
      </trkpt>
      <trkpt lat="43.40715" lon="6.07281">
        <ele>214.24530029297</ele>
        <time>2014-06-25T14:55:24Z</time>
      </trkpt>
      <trkpt lat="43.40722" lon="6.07277">
        <ele>213.99810791016</ele>
        <time>2014-06-25T14:55:25Z</time>
      </trkpt>
      <trkpt lat="43.40736" lon="6.07269">
        <ele>213.48999023438</ele>
        <time>2014-06-25T14:55:27Z</time>
      </trkpt>
      <trkpt lat="43.40763" lon="6.07254">
        <ele>212.54241943359</ele>
        <time>2014-06-25T14:55:31Z</time>
      </trkpt>
      <trkpt lat="43.40799" lon="6.07222">
        <ele>212</ele>
        <time>2014-06-25T14:55:37Z</time>
      </trkpt>
      <trkpt lat="43.40825" lon="6.0718">
        <ele>211.6575012207</ele>
        <time>2014-06-25T14:55:43Z</time>
      </trkpt>
      <trkpt lat="43.40836" lon="6.07156">
        <ele>211.55226135254</ele>
        <time>2014-06-25T14:55:46Z</time>
      </trkpt>
      <trkpt lat="43.40843" lon="6.07132">
        <ele>210.64477539062</ele>
        <time>2014-06-25T14:55:49Z</time>
      </trkpt>
      <trkpt lat="43.40847" lon="6.07107">
        <ele>210.49371337891</ele>
        <time>2014-06-25T14:55:52Z</time>
      </trkpt>
      <trkpt lat="43.40849" lon="6.0709">
        <ele>210.45251464844</ele>
        <time>2014-06-25T14:55:54Z</time>
      </trkpt>
      <trkpt lat="43.40849" lon="6.07082">
        <ele>210.42504882812</ele>
        <time>2014-06-25T14:55:55Z</time>
      </trkpt>
      <trkpt lat="43.40847" lon="6.07042">
        <ele>210.50744628906</ele>
        <time>2014-06-25T14:56:00Z</time>
      </trkpt>
      <trkpt lat="43.40845" lon="6.0702">
        <ele>210.58984375</ele>
        <time>2014-06-25T14:56:03Z</time>
      </trkpt>
      <trkpt lat="43.40851" lon="6.07011">
        <ele>210.35638427734</ele>
        <time>2014-06-25T14:56:05Z</time>
      </trkpt>
      <trkpt lat="43.40877" lon="6.07005">
        <ele>209.43627929688</ele>
        <time>2014-06-25T14:56:10Z</time>
      </trkpt>
      <trkpt lat="43.40888" lon="6.07001">
        <ele>209.03802490234</ele>
        <time>2014-06-25T14:56:12Z</time>
      </trkpt>
      <trkpt lat="43.40899" lon="6.06997">
        <ele>208.65350341797</ele>
        <time>2014-06-25T14:56:14Z</time>
      </trkpt>
      <trkpt lat="43.40904" lon="6.06992">
        <ele>208.46124267578</ele>
        <time>2014-06-25T14:56:15Z</time>
      </trkpt>
      <trkpt lat="43.4091" lon="6.06971">
        <ele>208.22778320312</ele>
        <time>2014-06-25T14:56:18Z</time>
      </trkpt>
      <trkpt lat="43.40913" lon="6.06957">
        <ele>208.13165283203</ele>
        <time>2014-06-25T14:56:20Z</time>
      </trkpt>
      <trkpt lat="43.40923" lon="6.0695">
        <ele>207.77459716797</ele>
        <time>2014-06-25T14:56:22Z</time>
      </trkpt>
      <trkpt lat="43.40934" lon="6.06948">
        <ele>207.36260986328</ele>
        <time>2014-06-25T14:56:24Z</time>
      </trkpt>
      <trkpt lat="43.40946" lon="6.06947">
        <ele>207</ele>
        <time>2014-06-25T14:56:26Z</time>
      </trkpt>
      <trkpt lat="43.40979" lon="6.06936">
        <ele>207</ele>
        <time>2014-06-25T14:56:32Z</time>
      </trkpt>
      <trkpt lat="43.4101" lon="6.0692">
        <ele>207</ele>
        <time>2014-06-25T14:56:38Z</time>
      </trkpt>
      <trkpt lat="43.41014" lon="6.06915">
        <ele>207</ele>
        <time>2014-06-25T14:56:39Z</time>
      </trkpt>
      <trkpt lat="43.4102" lon="6.06897">
        <ele>207</ele>
        <time>2014-06-25T14:56:42Z</time>
      </trkpt>
      <trkpt lat="43.41034" lon="6.06884">
        <ele>207</ele>
        <time>2014-06-25T14:56:46Z</time>
      </trkpt>
      <trkpt lat="43.41051" lon="6.06877">
        <ele>207</ele>
        <time>2014-06-25T14:56:50Z</time>
      </trkpt>
      <trkpt lat="43.41065" lon="6.0687">
        <ele>207.66809082031</ele>
        <time>2014-06-25T14:56:55Z</time>
      </trkpt>
      <trkpt lat="43.41065" lon="6.06867">
        <ele>207.66809082031</ele>
        <time>2014-06-25T14:56:56Z</time>
      </trkpt>
      <trkpt lat="43.41067" lon="6.0685">
        <ele>208.18811035156</ele>
        <time>2014-06-25T14:56:59Z</time>
      </trkpt>
      <trkpt lat="43.41071" lon="6.06841">
        <ele>208.79750061035</ele>
        <time>2014-06-25T14:57:01Z</time>
      </trkpt>
      <trkpt lat="43.41074" lon="6.06831">
        <ele>209.2998046875</ele>
        <time>2014-06-25T14:57:03Z</time>
      </trkpt>
      <trkpt lat="43.41079" lon="6.06812">
        <ele>209.65686035156</ele>
        <time>2014-06-25T14:57:06Z</time>
      </trkpt>
      <trkpt lat="43.4108" lon="6.06798">
        <ele>209.76672363281</ele>
        <time>2014-06-25T14:57:08Z</time>
      </trkpt>
      <trkpt lat="43.41085" lon="6.06758">
        <ele>210.06188964844</ele>
        <time>2014-06-25T14:57:14Z</time>
      </trkpt>
      <trkpt lat="43.41088" lon="6.06754">
        <ele>210.18548583984</ele>
        <time>2014-06-25T14:57:15Z</time>
      </trkpt>
      <trkpt lat="43.411" lon="6.06744">
        <ele>210.46981811523</ele>
        <time>2014-06-25T14:57:18Z</time>
      </trkpt>
      <trkpt lat="43.41105" lon="6.0674">
        <ele>210.50590515137</ele>
        <time>2014-06-25T14:57:19Z</time>
      </trkpt>
      <trkpt lat="43.41133" lon="6.06722">
        <ele>210.82731628418</ele>
        <time>2014-06-25T14:57:26Z</time>
      </trkpt>
      <trkpt lat="43.41158" lon="6.06717">
        <ele>212.07014465332</ele>
        <time>2014-06-25T14:57:31Z</time>
      </trkpt>
      <trkpt lat="43.41174" lon="6.06719">
        <ele>212.50273132324</ele>
        <time>2014-06-25T14:57:35Z</time>
      </trkpt>
      <trkpt lat="43.41203" lon="6.06718">
        <ele>213.59449768066</ele>
        <time>2014-06-25T14:57:42Z</time>
      </trkpt>
      <trkpt lat="43.41222" lon="6.06716">
        <ele>214.39787292481</ele>
        <time>2014-06-25T14:57:47Z</time>
      </trkpt>
      <trkpt lat="43.41232" lon="6.06715">
        <ele>214.84075927734</ele>
        <time>2014-06-25T14:57:50Z</time>
      </trkpt>
      <trkpt lat="43.41233" lon="6.06715">
        <ele>214.93002319336</ele>
        <time>2014-06-25T14:57:51Z</time>
      </trkpt>
      <trkpt lat="43.41237" lon="6.06714">
        <ele>215.08795166016</ele>
        <time>2014-06-25T14:57:52Z</time>
      </trkpt>
      <trkpt lat="43.4124" lon="6.06715">
        <ele>215.16348266602</ele>
        <time>2014-06-25T14:57:53Z</time>
      </trkpt>
      <trkpt lat="43.41241" lon="6.06715">
        <ele>215.22184753418</ele>
        <time>2014-06-25T14:57:54Z</time>
      </trkpt>
      <trkpt lat="43.41243" lon="6.06715">
        <ele>215.27677917481</ele>
        <time>2014-06-25T14:57:57Z</time>
      </trkpt>
      <trkpt lat="43.41248" lon="6.06714">
        <ele>215.51710510254</ele>
        <time>2014-06-25T14:58:03Z</time>
      </trkpt>
      <trkpt lat="43.41257" lon="6.06724">
        <ele>215.30140686035</ele>
        <time>2014-06-25T14:58:08Z</time>
      </trkpt>
      <trkpt lat="43.41269" lon="6.06747">
        <ele>216.56997680664</ele>
        <time>2014-06-25T14:58:14Z</time>
      </trkpt>
      <trkpt lat="43.41281" lon="6.06769">
        <ele>217.10687255859</ele>
        <time>2014-06-25T14:58:19Z</time>
      </trkpt>
      <trkpt lat="43.41284" lon="6.06773">
        <ele>217.21673583984</ele>
        <time>2014-06-25T14:58:20Z</time>
      </trkpt>
      <trkpt lat="43.41286" lon="6.06777">
        <ele>217.31286621094</ele>
        <time>2014-06-25T14:58:21Z</time>
      </trkpt>
      <trkpt lat="43.41293" lon="6.06785">
        <ele>217.2721862793</ele>
        <time>2014-06-25T14:58:23Z</time>
      </trkpt>
      <trkpt lat="43.41307" lon="6.068">
        <ele>217.20916748047</ele>
        <time>2014-06-25T14:58:27Z</time>
      </trkpt>
      <trkpt lat="43.41328" lon="6.06814">
        <ele>217</ele>
        <time>2014-06-25T14:58:32Z</time>
      </trkpt>
      <trkpt lat="43.41346" lon="6.06823">
        <ele>217.45520019531</ele>
        <time>2014-06-25T14:58:36Z</time>
      </trkpt>
      <trkpt lat="43.41355" lon="6.06827">
        <ele>217.77105712891</ele>
        <time>2014-06-25T14:58:38Z</time>
      </trkpt>
      <trkpt lat="43.41359" lon="6.06829">
        <ele>217.93585205078</ele>
        <time>2014-06-25T14:58:39Z</time>
      </trkpt>
      <trkpt lat="43.41369" lon="6.06834">
        <ele>217.97862243652</ele>
        <time>2014-06-25T14:58:41Z</time>
      </trkpt>
      <trkpt lat="43.41401" lon="6.06859">
        <ele>218.41900634766</ele>
        <time>2014-06-25T14:58:48Z</time>
      </trkpt>
      <trkpt lat="43.41407" lon="6.06868">
        <ele>218.41030883789</ele>
        <time>2014-06-25T14:58:50Z</time>
      </trkpt>
      <trkpt lat="43.41412" lon="6.06879">
        <ele>218.18542480469</ele>
        <time>2014-06-25T14:58:53Z</time>
      </trkpt>
      <trkpt lat="43.41412" lon="6.0688">
        <ele>218.15452575684</ele>
        <time>2014-06-25T14:58:54Z</time>
      </trkpt>
      <trkpt lat="43.41413" lon="6.06881">
        <ele>218.15280151367</ele>
        <time>2014-06-25T14:58:58Z</time>
      </trkpt>
      <trkpt lat="43.41415" lon="6.06893">
        <ele>217.79577636719</ele>
        <time>2014-06-25T14:59:02Z</time>
      </trkpt>
      <trkpt lat="43.41421" lon="6.06912">
        <ele>217.29461669922</ele>
        <time>2014-06-25T14:59:06Z</time>
      </trkpt>
      <trkpt lat="43.41424" lon="6.06916">
        <ele>217.27546691894</ele>
        <time>2014-06-25T14:59:07Z</time>
      </trkpt>
      <trkpt lat="43.41442" lon="6.06925">
        <ele>217.90216064453</ele>
        <time>2014-06-25T14:59:11Z</time>
      </trkpt>
      <trkpt lat="43.41461" lon="6.06932">
        <ele>218</ele>
        <time>2014-06-25T14:59:15Z</time>
      </trkpt>
      <trkpt lat="43.41471" lon="6.06951">
        <ele>217.76748657227</ele>
        <time>2014-06-25T14:59:18Z</time>
      </trkpt>
      <trkpt lat="43.41476" lon="6.06957">
        <ele>217.46911621094</ele>
        <time>2014-06-25T14:59:19Z</time>
      </trkpt>
      <trkpt lat="43.41488" lon="6.06986">
        <ele>217</ele>
        <time>2014-06-25T14:59:23Z</time>
      </trkpt>
      <trkpt lat="43.41488" lon="6.06995">
        <ele>217</ele>
        <time>2014-06-25T14:59:24Z</time>
      </trkpt>
      <trkpt lat="43.41481" lon="6.0702">
        <ele>216.50924682617</ele>
        <time>2014-06-25T14:59:27Z</time>
      </trkpt>
      <trkpt lat="43.41475" lon="6.07035">
        <ele>216.08319091797</ele>
        <time>2014-06-25T14:59:29Z</time>
      </trkpt>
      <trkpt lat="43.41466" lon="6.07057">
        <ele>215.95489501953</ele>
        <time>2014-06-25T14:59:32Z</time>
      </trkpt>
      <trkpt lat="43.41464" lon="6.07064">
        <ele>215.68710327148</ele>
        <time>2014-06-25T14:59:33Z</time>
      </trkpt>
      <trkpt lat="43.41465" lon="6.07071">
        <ele>215.45021057129</ele>
        <time>2014-06-25T14:59:34Z</time>
      </trkpt>
      <trkpt lat="43.41468" lon="6.07075">
        <ele>215.28713989258</ele>
        <time>2014-06-25T14:59:35Z</time>
      </trkpt>
      <trkpt lat="43.41472" lon="6.07077">
        <ele>215.24673461914</ele>
        <time>2014-06-25T14:59:36Z</time>
      </trkpt>
      <trkpt lat="43.41481" lon="6.0707">
        <ele>215.8235168457</ele>
        <time>2014-06-25T14:59:39Z</time>
      </trkpt>
      <trkpt lat="43.41483" lon="6.07054">
        <ele>216.38531494141</ele>
        <time>2014-06-25T14:59:42Z</time>
      </trkpt>
      <trkpt lat="43.41484" lon="6.07048">
        <ele>216.42651367188</ele>
        <time>2014-06-25T14:59:43Z</time>
      </trkpt>
      <trkpt lat="43.4149" lon="6.07032">
        <ele>216.63250732422</ele>
        <time>2014-06-25T14:59:46Z</time>
      </trkpt>
      <trkpt lat="43.41499" lon="6.07011">
        <ele>216.98455810547</ele>
        <time>2014-06-25T14:59:50Z</time>
      </trkpt>
      <trkpt lat="43.41512" lon="6.06981">
        <ele>217.44274902344</ele>
        <time>2014-06-25T14:59:56Z</time>
      </trkpt>
      <trkpt lat="43.4152" lon="6.06975">
        <ele>217.73114013672</ele>
        <time>2014-06-25T14:59:59Z</time>
      </trkpt>
      <trkpt lat="43.41533" lon="6.06972">
        <ele>218</ele>
        <time>2014-06-25T15:00:02Z</time>
      </trkpt>
      <trkpt lat="43.41542" lon="6.06971">
        <ele>218</ele>
        <time>2014-06-25T15:00:04Z</time>
      </trkpt>
      <trkpt lat="43.41557" lon="6.06969">
        <ele>218.03576660156</ele>
        <time>2014-06-25T15:00:08Z</time>
      </trkpt>
      <trkpt lat="43.4156" lon="6.06968">
        <ele>218.14562988281</ele>
        <time>2014-06-25T15:00:09Z</time>
      </trkpt>
      <trkpt lat="43.41562" lon="6.06968">
        <ele>218.22802734375</ele>
        <time>2014-06-25T15:00:10Z</time>
      </trkpt>
      <trkpt lat="43.41564" lon="6.06968">
        <ele>218.31042480469</ele>
        <time>2014-06-25T15:00:11Z</time>
      </trkpt>
      <trkpt lat="43.41566" lon="6.06967">
        <ele>218.36535644531</ele>
        <time>2014-06-25T15:00:12Z</time>
      </trkpt>
      <trkpt lat="43.41566" lon="6.06967">
        <ele>218.39282226562</ele>
        <time>2014-06-25T15:00:14Z</time>
      </trkpt>
      <trkpt lat="43.41566" lon="6.06967">
        <ele>218.39282226562</ele>
        <time>2014-06-25T15:00:47Z</time>
      </trkpt>
    </trkseg>
  </trk>
</gpx>